[[{"header":{"parameterUnit":"m.s-1","parameterCategory":1,"la1":30.6,"la2":28.766,"lo1":-90.7593,"lo2":-88.6598,"dy":0.0162,"dx":0.0183,"nx":116,"ny":114,"refTime":"2024-06-28T06:00:00:Z","depth":0,"parameterNumber":2,"parameterNumberName":"U-component_of_WINDS"},"data":[0.0,0.0,0.0,0.0,0.0,0.0,0.0,0.0,0.0,0.0,0.0,0.0,0.0,0.0,0.0,0.0,0.0,0.0,0.0,0.0,0.0,0.0,0.0,0.0,0.0,0.0,0.0,0.0,0.0,0.0,0.0,0.0,0.0,0.0,0.0,0.0,0.0,0.0,0.0,0.0,0.0,0.0,0.0,0.0,0.0,0.0,0.0,0.0,0.0,0.0,0.0,0.0,0.0,0.0,0.0,0.0,0.0,0.0,0.0,0.0,0.0,0.0,0.0,0.0,0.0,0.0,0.0,0.0,0.0,0.0,0.0,0.0,0.0,0.0,0.0,0.0,0.0,0.0,0.0,0.0,0.0,0.0,0.0,0.0,0.0,0.0,0.0,0.0,0.0,0.0,0.0,0.0,0.0,0.0,0.0,0.0,0.0,0.0,0.0,0.0,0.0,0.0,0.0,0.0,0.0,0.0,0.0,0.0,0.0,0.0,0.0,0.0,0.0,0.0,0.0,0.0,0.0,0.0,0.0,0.0,0.0,0.0,0.0,0.0,0.0,0.0,0.0,0.0,0.0,0.0,0.0,0.0,0.0,0.0,0.0,0.0,0.0,0.0,0.0,0.0,0.0,0.0,0.0,0.0,0.0,0.0,0.0,0.0,0.0,0.0,0.0,0.0,0.0,0.0,0.0,0.0,0.0,0.0,0.0,0.0,0.0,0.0,0.0,0.0,0.0,0.0,0.0,0.0,0.0,0.0,0.0,0.0,0.0,0.0,0.0,0.0,0.0,0.0,0.0,0.0,0.0,0.0,0.0,0.0,0.0,0.0,0.0,0.0,0.0,0.0,0.0,0.0,0.0,0.0,0.0,0.0,0.0,0.0,0.0,0.0,0.0,0.0,0.0,0.0,0.0,0.0,0.0,0.0,0.0,0.0,0.0,0.0,0.0,0.0,0.0,0.0,0.0,0.0,0.0,0.0,0.0,0.0,0.0,0.0,0.0,0.0,0.0,0.0,0.0,0.0,0.0,0.0,0.0,0.0,0.0,0.0,0.0,0.0,0.0,0.0,0.0,0.0,0.0,0.0,0.0,0.0,0.0,0.0,0.0,0.0,0.0,0.0,0.0,0.0,0.0,0.0,0.0,0.0,0.0,0.0,0.0,0.0,0.0,0.0,0.0,0.0,0.0,0.0,0.0,0.0,0.0,0.0,0.0,0.0,0.0,0.0,0.0,0.0,0.0,0.0,0.0,0.0,0.0,0.0,0.0,0.0,0.0,0.0,0.0,0.0,0.0,0.0,0.0,0.0,0.0,0.0,0.0,0.0,0.0,0.0,0.0,0.0,0.0,0.0,0.0,0.0,0.0,0.0,0.0,0.0,0.0,0.0,0.0,0.0,0.0,0.0,0.0,0.0,0.0,0.0,0.0,0.0,0.0,0.0,0.0,0.0,0.0,0.0,0.0,0.0,0.0,0.0,0.0,0.0,0.0,0.0,0.0,0.0,0.0,0.0,0.0,0.0,0.0,0.0,0.0,0.0,0.0,0.0,0.0,0.0,0.0,0.0,0.0,0.0,0.0,0.0,0.0,0.0,0.0,0.0,0.0,0.0,0.0,0.0,0.0,0.0,0.0,0.0,0.0,0.0,0.0,0.0,0.0,0.0,0.0,0.0,0.0,0.0,0.0,0.0,0.0,0.0,0.0,0.0,0.0,0.0,0.0,0.0,0.0,0.0,0.0,0.0,0.0,0.0,0.0,0.0,0.0,0.0,0.0,0.0,0.0,0.0,0.0,0.0,0.0,0.0,0.0,0.0,0.0,0.0,0.0,0.0,0.0,0.0,0.0,0.0,0.0,0.0,0.0,0.0,0.0,0.0,0.0,0.0,0.0,0.0,0.0,0.0,0.0,0.0,0.0,0.0,0.0,0.0,0.0,0.0,0.0,0.0,0.0,0.0,0.0,0.0,0.0,0.0,0.0,0.0,0.0,0.0,0.0,0.0,0.0,0.0,0.0,0.0,0.0,0.0,0.0,0.0,0.0,0.0,0.0,0.0,0.0,0.0,0.0,0.0,0.0,0.0,0.0,0.0,0.0,0.0,0.0,0.0,0.0,0.0,0.0,0.0,0.0,0.0,0.0,0.0,0.0,0.0,0.0,0.0,0.0,0.0,0.0,0.0,0.0,0.0,0.0,0.0,0.0,0.0,0.0,0.0,0.0,0.0,0.0,0.0,0.0,0.0,0.0,0.0,0.0,0.0,0.0,0.0,0.0,0.0,0.0,0.0,0.0,0.0,0.0,0.0,0.0,0.0,0.0,0.0,0.0,0.0,0.0,0.0,0.0,0.0,0.0,0.0,0.0,0.0,0.0,0.0,0.0,0.0,0.0,0.0,0.0,0.0,0.0,0.0,0.0,0.0,0.0,0.0,0.0,0.0,0.0,0.0,0.0,0.0,0.0,0.0,0.0,0.0,0.0,0.0,0.0,0.0,0.0,0.0,0.0,0.0,0.0,0.0,0.0,0.0,0.0,0.0,0.0,0.0,0.0,0.0,0.0,0.0,0.0,0.0,0.0,0.0,0.0,0.0,0.0,0.0,0.0,0.0,0.0,0.0,0.0,0.0,0.0,0.0,0.0,0.0,0.0,0.0,0.0,0.0,0.0,0.0,0.0,0.0,0.0,0.0,0.0,0.0,0.0,0.0,0.0,0.0,0.0,0.0,0.0,0.0,0.0,0.0,0.0,0.0,0.0,0.0,0.0,0.0,0.0,0.0,0.0,0.0,0.0,0.0,0.0,0.0,0.0,0.0,0.0,0.0,0.0,0.0,0.0,0.0,0.0,0.0,0.0,0.0,0.0,0.0,0.0,0.0,0.0,0.0,0.0,0.0,0.0,0.0,0.0,0.0,0.0,0.0,0.0,0.0,0.0,0.0,0.0,0.0,0.0,0.0,0.0,0.0,0.0,0.0,0.0,0.0,0.0,0.0,0.0,0.0,0.0,0.0,0.0,0.0,0.0,0.0,0.0,0.0,0.0,0.0,0.0,0.0,0.0,0.0,0.0,0.0,0.0,0.0,0.0,0.0,0.0,0.0,0.0,0.0,0.0,0.0,0.0,0.0,0.0,0.0,0.0,0.0,0.0,0.0,0.0,0.0,0.0,0.0,0.0,0.0,0.0,0.0,0.0,0.0,0.0,0.0,0.0,0.0,0.0,0.0,0.0,0.0,0.0,0.0,0.0,0.0,0.0,0.0,0.0,0.0,0.0,0.0,0.0,0.0,0.0,0.0,0.0,0.0,0.0,0.0,0.0,0.0,0.0,0.0,0.0,0.0,0.0,0.0,0.0,0.0,0.0,0.0,0.0,0.0,0.0,0.0,0.0,0.0,0.0,0.0,0.0,0.0,0.0,0.0,0.0,0.0,0.0,0.0,0.0,0.0,0.0,0.0,0.0,0.0,0.0,0.0,0.0,0.0,0.0,0.0,0.0,0.0,0.0,0.0,0.0,0.0,0.0,0.0,0.0,0.0,0.0,0.0,0.0,0.0,0.0,0.0,0.0,0.0,0.0,0.0,0.0,0.0,0.0,0.0,0.0,0.0,0.0,0.0,0.0,0.0,0.0,0.0,0.0,0.0,0.0,0.0,0.0,0.0,0.0,0.0,0.0,0.0,0.0,0.0,0.0,0.0,0.0,0.0,0.0,0.0,0.0,0.0,0.0,0.0,0.0,0.0,0.0,0.0,0.0,0.0,0.0,0.0,0.0,0.0,0.0,0.0,0.0,0.0,0.0,0.0,0.0,0.0,0.0,0.0,0.0,0.0,0.0,0.0,0.0,0.0,0.0,0.0,0.0,0.0,0.0,0.0,0.0,0.0,0.0,0.0,0.0,0.0,0.0,0.0,0.0,0.0,0.0,0.0,0.0,0.0,0.0,0.0,0.0,0.0,0.0,0.0,0.0,0.0,0.0,0.0,0.0,0.0,0.0,0.0,0.0,0.0,0.0,0.0,0.0,0.0,0.0,0.0,0.0,0.0,0.0,0.0,0.0,0.0,0.0,0.0,0.0,0.0,0.0,0.0,0.0,0.0,0.0,0.0,0.0,0.0,0.0,0.0,0.0,0.0,0.0,0.0,0.0,0.0,0.0,0.0,0.0,0.0,0.0,0.0,0.0,0.0,0.0,0.0,0.0,0.0,0.0,0.0,0.0,0.0,0.0,0.0,0.0,0.0,0.0,0.0,0.0,0.0,0.0,0.0,0.0,0.0,0.0,0.0,0.0,0.0,0.0,0.0,0.0,0.0,0.0,0.0,0.0,0.0,0.0,0.0,0.0,0.0,0.0,0.0,0.0,0.0,0.0,0.0,0.0,0.0,0.0,0.0,0.0,0.0,0.0,0.0,0.0,0.0,0.0,0.0,0.0,0.0,0.0,0.0,0.0,0.0,0.0,0.0,0.0,0.0,0.0,0.0,0.0,0.0,0.0,0.0,0.0,0.0,0.0,0.0,0.0,0.0,0.0,0.0,0.0,0.0,0.0,0.0,0.0,0.0,0.0,0.0,0.0,0.0,0.0,0.0,0.0,0.0,0.0,0.0,0.0,0.0,0.0,0.0,0.0,0.0,0.0,0.0,0.0,0.0,0.0,0.0,0.0,0.0,0.0,0.0,0.0,0.0,0.0,0.0,0.0,0.0,0.0,0.0,0.0,0.0,0.0,0.0,0.0,0.0,0.0,0.0,0.0,0.0,0.0,0.0,0.0,0.0,0.0,0.0,0.0,0.0,0.0,0.0,0.0,0.0,0.0,0.0,0.0,0.0,0.0,0.0,0.0,0.0,0.0,0.0,0.0,0.0,0.0,0.0,0.0,0.0,0.0,0.0,0.0,0.0,0.0,0.0,0.0,0.0,0.0,0.0,0.0,0.0,0.0,0.0,0.0,0.0,0.0,0.0,0.0,0.0,0.0,0.0,0.0,0.0,0.0,0.0,0.0,0.0,0.0,0.0,0.0,0.0,0.0,0.0,0.0,0.0,0.0,0.0,0.0,0.0,0.0,0.0,0.0,0.0,0.0,0.0,0.0,0.0,0.0,0.0,0.0,0.0,0.0,0.0,0.0,0.0,0.0,0.0,0.0,0.0,0.0,0.0,0.0,0.0,0.0,0.0,0.0,0.0,0.0,0.0,0.0,0.0,0.0,0.0,0.0,0.0,0.0,0.0,0.0,0.0,0.0,0.0,0.0,0.0,0.0,0.0,0.0,0.0,0.0,0.0,0.0,0.0,0.0,0.0,0.0,0.0,0.0,0.0,0.0,0.0,0.0,0.0,0.0,0.0,0.0,0.0,0.0,0.0,0.0,0.0,0.0,0.0,0.0,0.0,0.0,0.0,0.0,0.0,0.0,0.0,0.0,0.0,0.0,0.0,0.0,0.0,0.0,0.0,0.0,0.0,0.0,0.0,0.0,0.0,0.0,0.0,0.0,0.0,0.0,0.0,0.0,0.0,0.0,0.0,0.0,0.0,0.0,0.0,0.0,0.0,0.0,0.0,0.0,0.0,0.0,0.0,0.0,0.0,0.0,0.0,0.0,0.0,0.0,0.0,0.0,0.0,0.0,0.0,0.0,0.0,0.0,0.0,0.0,0.0,0.0,0.0,0.0,0.0,0.0,0.0,0.0,0.0,0.0,0.0,0.0,0.0,0.0,0.0,0.0,0.0,0.0,0.0,0.0,0.0,0.0,0.0,0.0,0.0,0.0,0.0,0.0,0.0,0.0,0.0,0.0,0.0,0.0,0.0,0.0,0.0,0.0,0.0,0.0,0.0,0.0,0.0,0.0,0.0,0.0,0.0,0.0,0.0,0.0,0.0,0.0,0.0,0.0,0.0,0.0,0.0,0.0,0.0,0.0,0.0,0.0,0.0,0.0,0.0,0.0,0.0,0.0,0.0,0.0,0.0,0.0,0.0,0.0,0.0,0.0,0.0,0.0,0.0,0.0,0.0,0.0,0.0,0.0,0.0,0.0,0.0,0.0,0.0,0.0,0.0,0.0,0.0,0.0,0.0,0.0,0.0,0.0,0.0,0.0,0.0,0.0,0.0,0.0,0.0,0.0,0.0,0.0,0.0,0.0,0.0,-1.3584,0.0,0.0,0.0,0.0,0.0,0.0,0.0,0.0,0.0,0.0,0.0,0.0,0.0,0.0,0.0,0.0,0.0,0.0,0.0,0.0,0.0,0.0,0.0,0.0,-0.6491,-0.631,-0.607,-0.5835,-0.5595,-0.531,0.0,0.0,0.0,0.0,0.0,-0.5098,-0.5322,-0.541,-0.5371,-0.5845,-0.6238,-0.6569,-0.699,-0.7241,-0.7317,0.0,0.0,0.0,0.0,0.0,0.0,0.0,0.0,0.0,0.0,0.0,0.0,0.0,0.0,0.0,0.0,0.0,0.0,0.0,0.0,0.0,0.0,0.0,0.0,0.0,0.0,0.0,0.0,0.0,0.0,0.0,0.0,0.0,0.0,0.0,0.0,0.0,0.0,0.0,0.0,0.0,0.0,0.0,0.0,0.0,0.0,0.0,0.0,0.0,0.0,0.0,0.0,0.0,0.0,0.0,0.0,0.0,0.0,0.0,0.0,0.0,0.0,0.0,0.0,0.0,0.0,0.0,0.0,0.0,0.0,0.0,-1.5381,0.0,0.0,0.0,0.0,0.0,0.0,0.0,0.0,0.0,0.0,0.0,0.0,0.0,0.0,0.0,0.0,0.0,0.0,0.0,0.0,0.0,-0.661,-0.6657,-0.6454,-0.6338,-0.64,-0.599,-0.5743,-0.5776,0.0,0.0,0.0,0.0,-0.5224,-0.5224,-0.5666,-0.5975,-0.6135,-0.6614,-0.7129,-0.7651,-0.7771,-0.7571,0.0,-0.7003,0.0,0.0,0.0,0.0,0.0,0.0,0.0,0.0,0.0,0.0,0.0,0.0,0.0,0.0,0.0,0.0,0.0,0.0,0.0,0.0,0.0,0.0,0.0,0.0,0.0,0.0,0.0,0.0,0.0,0.0,0.0,0.0,0.0,0.0,0.0,0.0,0.0,0.0,0.0,0.0,0.0,0.0,0.0,0.0,0.0,0.0,0.0,0.0,0.0,0.0,0.0,0.0,0.0,0.0,0.0,0.0,0.0,0.0,0.0,0.0,0.0,0.0,0.0,-2.1055,-2.1055,-2.1055,-2.1055,-1.9069,-1.5725,-1.6437,-1.7578,-1.8662,-1.5518,0.0,0.0,0.0,0.0,0.0,0.0,0.0,0.0,0.0,0.0,0.0,0.0,0.0,0.0,0.0,0.0,0.0,0.0,0.0,-0.6659,-0.6837,-0.6835,-0.6921,-0.7218,-0.6864,-0.6703,-0.6881,0.0,0.0,0.0,-0.5704,-0.5704,-0.5704,-0.6058,-0.6247,-0.6271,-0.7025,-0.7544,-0.7878,0.0,0.0,0.0,-0.7811,-0.7483,0.0,0.0,0.0,0.0,0.0,0.0,0.0,0.0,0.0,0.0,0.0,0.0,0.0,0.0,0.0,0.0,0.0,0.0,0.0,0.0,0.0,0.0,0.0,0.0,0.0,0.0,0.0,0.0,0.0,0.0,0.0,0.0,0.0,0.0,0.0,0.0,0.0,0.0,0.0,0.0,0.0,0.0,-1.003,-1.171,0.0,0.0,0.0,0.0,0.0,0.0,0.0,0.0,0.0,0.0,0.0,0.0,0.0,-1.2516,-1.3926,-1.5137,-1.8112,-2.276,-2.276,-2.276,-2.276,-2.276,-2.2448,-2.1923,-2.2051,0.0,-2.2272,-2.0352,0.0,0.0,0.0,0.0,0.0,0.0,0.0,0.0,0.0,0.0,0.0,0.0,0.0,0.0,0.0,0.0,0.0,0.0,0.0,0.0,0.0,-0.7445,-0.772,-0.8105,-0.8068,-0.7871,0.0,0.0,0.0,-0.6152,-0.5914,-0.5895,-0.6076,-0.637,-0.695,-0.7826,-0.8238,-0.8617,0.0,0.0,0.0,0.0,-0.8952,-0.8407,0.0,0.0,0.0,0.0,0.0,0.0,0.0,0.0,0.0,0.0,0.0,0.0,0.0,0.0,0.0,0.0,0.0,0.0,0.0,0.0,0.0,0.0,0.0,0.0,0.0,0.0,0.0,0.0,0.0,0.0,0.0,0.0,0.0,0.0,0.0,0.0,0.0,0.0,0.0,0.0,0.0,-0.7758,-0.9984,-1.1439,-1.1606,-1.065,0.0,0.0,0.0,0.0,0.0,0.0,0.0,0.0,0.0,-1.3487,-1.4021,-1.4536,-1.5057,-1.5531,-1.8257,-2.311,-2.4085,-2.4553,-2.4553,-2.4553,-2.4553,-2.4553,-2.4553,-2.4553,-2.4417,-2.2725,-2.0547,-1.8267,0.0,0.0,0.0,0.0,-1.668,-1.8368,0.0,0.0,0.0,0.0,0.0,0.0,0.0,0.0,0.0,0.0,0.0,0.0,-0.7745,-0.8175,-0.8654,-0.9211,0.0,0.0,0.0,0.0,0.0,-0.6943,-0.6512,-0.6376,-0.6551,-0.7048,-0.783,0.0,0.0,0.0,0.0,0.0,0.0,0.0,0.0,0.0,0.0,0.0,0.0,0.0,0.0,0.0,0.0,0.0,0.0,0.0,0.0,0.0,0.0,0.0,0.0,0.0,0.0,0.0,0.0,0.0,0.0,0.0,0.0,0.0,0.0,0.0,0.0,0.0,0.0,0.0,0.0,0.0,0.0,0.0,0.0,0.0,0.0,0.0,0.0,0.0,0.0,-0.8025,-0.9352,-1.0868,-1.0506,-0.9796,0.0,0.0,0.0,0.0,0.0,0.0,-1.1986,-1.3581,-1.493,-1.5751,-1.5784,-1.5924,-1.6273,-1.765,-2.0135,-2.3773,-2.507,-2.5693,-2.5693,-2.5693,-2.5693,-2.5693,-2.5693,-2.5693,-2.5586,-2.429,-2.2783,-2.1221,-2.1221,-2.1221,-2.1221,-2.1221,-2.2314,-2.3764,0.0,0.0,0.0,0.0,0.0,0.0,0.0,0.0,0.0,0.0,0.0,-0.7767,0.0,0.0,0.0,0.0,0.0,0.0,0.0,0.0,0.0,-0.8297,-0.7851,-0.7493,-0.7252,-0.8315,0.0,0.0,0.0,0.0,0.0,0.0,0.0,0.0,0.0,0.0,0.0,0.0,0.0,0.0,0.0,0.0,0.0,0.0,0.0,0.0,0.0,0.0,0.0,0.0,0.0,0.0,0.0,0.0,0.0,0.0,0.0,0.0,0.0,0.0,0.0,0.0,0.0,0.0,0.0,0.0,0.0,0.0,0.0,0.0,0.0,0.0,0.0,0.0,0.0,0.0,0.0,0.0,0.0,-1.1944,-1.0247,0.0,0.0,0.0,0.0,-1.2283,-1.3291,-1.45,-1.5504,-1.5631,-1.5718,-1.5778,-1.5784,-1.6366,-1.7482,-2.2613,-2.5305,-2.5557,-2.5645,-2.5693,-2.5693,-2.5693,-2.5693,-2.5693,-2.5693,-2.5693,-2.5684,-2.5596,-2.4534,-2.2964,-2.2964,-2.2964,-2.2964,-2.2964,-2.4066,-2.5557,0.0,0.0,0.0,-0.6599,-0.6599,-0.6535,-0.6362,-0.6345,-0.6421,-0.6625,-0.7369,0.0,0.0,0.0,0.0,0.0,0.0,0.0,0.0,0.0,-0.9618,-0.9618,-0.8259,-0.767,-0.8012,-0.873,-0.939,0.0,0.0,0.0,0.0,0.0,0.0,0.0,0.0,0.0,0.0,0.0,0.0,0.0,0.0,0.0,0.0,0.0,0.0,0.0,0.0,0.0,0.0,0.0,0.0,0.0,0.0,0.0,0.0,0.0,0.0,0.0,0.0,0.0,0.0,0.0,0.0,0.0,0.0,0.0,0.0,0.0,0.0,0.0,0.0,0.0,0.0,0.0,0.0,0.0,0.0,0.0,0.0,-1.3173,-1.1404,0.0,-1.2058,-1.3636,-1.4577,-1.4569,-1.497,-1.5391,-1.5758,-1.5784,-1.6179,-1.6934,-1.6961,-1.8853,-2.2767,-2.4716,-2.5693,-2.5703,-2.6855,-2.7383,-2.7383,-2.7383,-2.7383,-2.7383,-2.7383,-2.7383,-2.7383,-2.7383,-2.6367,-2.4767,-2.4767,-2.4767,-2.4767,-2.4767,-2.5157,-2.5693,-0.6599,-0.6599,0.0,-0.6599,-0.6599,-0.6535,-0.6362,-0.6391,-0.6558,-0.6892,-0.7874,0.0,0.0,0.0,0.0,0.0,0.0,0.0,0.0,0.0,-1.0652,-1.0398,-0.8822,-0.8268,-0.8966,-0.9444,0.0,0.0,0.0,0.0,0.0,0.0,0.0,0.0,0.0,0.0,0.0,0.0,0.0,0.0,0.0,0.0,-1.0066,0.0,0.0,0.0,0.0,0.0,0.0,0.0,0.0,0.0,0.0,0.0,0.0,0.0,0.0,0.0,0.0,0.0,0.0,0.0,0.0,0.0,0.0,0.0,0.0,0.0,0.0,0.0,0.0,0.0,0.0,0.0,0.0,0.0,0.0,0.0,-1.2516,-1.4442,-1.3293,-1.2953,-1.4522,-1.4676,-1.4997,-1.5724,-1.6199,-1.642,-1.642,-1.642,-1.678,-1.7555,-1.9369,-2.235,-2.6541,-2.6602,-2.6602,-2.6611,-2.7754,-2.8291,-2.8291,-2.8291,-2.8291,-2.8291,-2.8291,-2.8291,-2.8291,-2.8291,-2.7627,-2.6602,-2.6602,-2.6602,-2.6602,-2.6602,-2.6602,-2.6602,-0.6599,-0.6599,-0.6599,-0.6599,-0.6599,-0.6599,-0.659,-0.6753,-0.7098,-0.7706,-0.8723,0.0,0.0,0.0,0.0,0.0,0.0,0.0,0.0,-1.2074,-1.1321,-1.0656,-0.9643,-0.9438,-1.0181,0.0,0.0,0.0,0.0,0.0,0.0,0.0,0.0,0.0,0.0,0.0,0.0,0.0,0.0,0.0,0.0,0.0,-1.1462,0.0,0.0,0.0,0.0,0.0,0.0,0.0,0.0,0.0,0.0,0.0,0.0,0.0,0.0,0.0,0.0,0.0,0.0,0.0,0.0,0.0,0.0,0.0,0.0,0.0,0.0,0.0,0.0,0.0,0.0,0.0,0.0,0.0,-1.5811,-1.4756,-1.4606,-1.5873,-1.5872,-1.5872,-1.6008,-1.5906,-1.5838,-1.5838,-1.6941,-1.7582,-1.7582,-1.7582,-1.7602,-1.7635,-2.2955,-2.6511,-2.7994,-2.8237,-2.8291,-2.8291,-2.8291,-2.8291,-2.8291,-2.8291,-2.832,-2.8369,-2.8369,-2.8369,-2.8369,-2.8369,-2.8369,-2.8369,-2.831,-2.8291,-2.8291,-2.8291,-2.8291,-2.8291,-0.6633,-0.6599,-0.6599,-0.6599,-0.6599,-0.6535,-0.6345,-0.6479,-0.6826,-0.7438,0.0,0.0,0.0,0.0,0.0,0.0,0.0,0.0,-1.2905,0.0,-1.1423,-1.1043,-1.0986,0.0,0.0,0.0,0.0,0.0,0.0,0.0,0.0,0.0,0.0,0.0,0.0,0.0,0.0,0.0,0.0,0.0,0.0,0.0,-1.2623,0.0,0.0,0.0,0.0,0.0,0.0,0.0,0.0,0.0,0.0,0.0,0.0,0.0,0.0,0.0,0.0,0.0,0.0,0.0,0.0,0.0,0.0,0.0,0.0,0.0,0.0,0.0,0.0,0.0,0.0,0.0,0.0,-1.9734,-1.9255,-1.6972,-1.6771,-2.0622,-1.7979,-1.7203,-2.0764,-1.866,-1.7101,-1.7101,-1.7402,-1.7582,-1.7582,-1.7582,-1.7976,-1.8908,-2.4541,-2.5729,-2.1877,-2.6118,-2.8291,-2.8291,-2.8291,-2.8291,-2.8291,-2.8291,-2.8984,-3.0176,-3.0176,-3.0176,-3.0176,-3.0176,-3.0176,-3.0049,-2.8779,-2.8291,-2.8291,-2.8291,-2.8291,-2.8291,-0.6625,-0.6599,-0.6599,-0.6599,-0.6599,-0.6543,-0.6388,-0.6733,-0.7282,-0.8062,0.0,0.0,0.0,0.0,0.0,0.0,0.0,0.0,-1.2641,-1.2033,-1.178,0.0,0.0,0.0,0.0,0.0,0.0,0.0,0.0,0.0,0.0,0.0,0.0,0.0,0.0,0.0,0.0,0.0,0.0,0.0,0.0,0.0,-1.5056,-1.4754,-1.4338,-1.3936,-1.3936,-1.2856,-1.1496,-1.2187,0.0,0.0,0.0,0.0,0.0,0.0,0.0,0.0,0.0,0.0,0.0,0.0,0.0,0.0,0.0,0.0,0.0,0.0,0.0,0.0,0.0,0.0,0.0,0.0,-1.9091,-2.0913,-1.8862,-1.873,-1.9889,-2.2775,-2.0576,-1.935,-2.0663,-1.8868,-1.7582,-1.7582,-1.8043,-1.833,-1.833,-1.833,-1.9839,-2.3031,-2.4053,-2.4108,-2.3167,-2.6563,-2.8291,-2.8301,-2.9033,-2.9385,-2.9385,-2.9385,-2.9932,0.0,-3.0889,-3.0889,-3.0889,-3.0889,-3.0889,0.0,0.0,0.0,0.0,0.0,-2.9385,-2.9385,-0.6608,-0.6599,-0.6599,-0.6599,-0.6599,-0.6599,-0.6599,-0.7223,-0.8052,-0.907,0.0,0.0,0.0,0.0,0.0,0.0,0.0,0.0,0.0,0.0,0.0,0.0,0.0,0.0,0.0,0.0,0.0,0.0,0.0,0.0,0.0,0.0,0.0,0.0,0.0,0.0,0.0,0.0,0.0,0.0,0.0,0.0,-1.793,-1.6318,-1.5703,-1.5703,-1.5703,-1.4736,-1.3662,-1.4971,0.0,0.0,0.0,0.0,0.0,0.0,0.0,0.0,0.0,0.0,0.0,0.0,0.0,0.0,0.0,0.0,0.0,0.0,0.0,0.0,0.0,0.0,0.0,0.0,-2.1658,-2.0764,-1.6426,-1.9674,-2.2434,-2.229,-2.2387,-2.1181,-1.7939,-1.7582,-1.7635,-1.7769,-1.8764,-1.9424,-1.9424,0.0,0.0,0.0,0.0,-2.2351,-2.853,-2.8584,-2.8584,-2.8603,-3.0156,-3.0889,-3.0889,-3.0889,-3.0889,-3.0889,-3.0889,-3.0889,-3.0889,-3.0889,-3.0889,-3.0889,-3.0889,-3.0889,-3.0889,-3.0889,-3.0889,-3.0889,-0.6633,-0.6599,-0.6599,-0.6599,-0.6599,-0.6599,-0.6599,-0.7223,-0.8052,-0.907,-1.0294,0.0,0.0,0.0,0.0,0.0,0.0,0.0,0.0,0.0,0.0,0.0,0.0,0.0,0.0,0.0,0.0,0.0,0.0,0.0,0.0,0.0,0.0,0.0,0.0,0.0,0.0,0.0,0.0,0.0,0.0,0.0,-1.8633,-1.7812,-1.751,-1.751,-1.751,-1.7295,-1.6855,-1.5771,-1.541,-1.5059,-1.3042,0.0,0.0,0.0,0.0,0.0,0.0,0.0,0.0,0.0,0.0,0.0,0.0,0.0,0.0,0.0,0.0,0.0,0.0,0.0,0.0,-2.2401,-1.9569,-1.6882,-1.592,-1.7464,-1.831,-1.7327,-1.8063,-1.8386,-1.766,-1.7582,-1.7983,-1.9008,-1.9296,-1.9424,-1.9424,-1.9424,-2.2104,-2.8121,-2.2492,-2.2921,-3.0314,-3.0391,-3.0391,-3.0391,0.0,0.0,-3.0889,-3.0889,-3.0889,-3.0889,-3.0889,-3.0889,-3.0889,-3.0889,-3.0889,-3.0889,-3.0889,-3.0889,-3.0889,-3.0889,-3.0889,-3.0889,-0.6642,-0.6599,-0.6599,-0.6599,-0.6599,-0.6599,-0.6599,-0.7397,-0.828,-0.9045,-1.0615,0.0,0.0,0.0,0.0,0.0,0.0,0.0,0.0,0.0,0.0,0.0,0.0,0.0,0.0,0.0,0.0,0.0,0.0,0.0,0.0,0.0,0.0,0.0,0.0,0.0,0.0,0.0,0.0,0.0,0.0,0.0,-1.9686,-1.8926,-1.8379,-1.8008,-1.8008,-1.8008,-1.7881,-1.7002,-1.6133,-1.5264,-1.4414,-1.415,-1.3984,0.0,0.0,0.0,0.0,0.0,0.0,0.0,0.0,0.0,0.0,0.0,0.0,0.0,0.0,-1.8525,-2.0254,0.0,-1.9443,-1.9443,-1.7878,-1.6707,-1.6707,-1.7215,-1.7361,-1.6774,-1.7221,-1.7582,-1.7582,-1.8123,-1.8724,-1.9325,-1.9424,-2.0709,-2.3663,-2.383,-2.5637,-2.9505,-2.673,-2.6994,-3.0879,-3.0889,-3.0889,-3.0889,-3.0889,-3.0889,-3.0889,-3.0889,-3.0889,-3.0889,-3.0889,-3.0889,-3.0889,-3.0889,-3.0889,-3.0889,-3.0889,-3.0889,-3.0889,-3.0889,-3.0889,-3.0889,-0.6651,-0.6599,-0.6599,-0.6599,-0.6599,-0.6599,-0.6599,-0.7473,-0.8361,-0.9012,-1.0804,-1.2241,-1.2826,-1.3364,-1.3684,0.0,0.0,0.0,0.0,0.0,0.0,0.0,0.0,0.0,0.0,0.0,0.0,0.0,0.0,0.0,0.0,0.0,0.0,0.0,0.0,0.0,0.0,0.0,0.0,0.0,0.0,0.0,-2.0527,-1.9832,-1.9004,-1.8232,-1.8066,-1.8008,-1.8012,-1.8138,-1.7249,-1.6017,-1.5684,-1.5508,-1.5137,-1.3769,-1.4102,0.0,0.0,0.0,0.0,0.0,0.0,0.0,0.0,0.0,-2.1104,-2.1104,-2.1104,-2.1494,-2.2838,-2.0134,-1.739,-1.6311,-1.6967,-1.7582,-1.7582,-1.7582,-1.7582,-1.7582,-1.7582,-1.7675,-1.7909,-1.8804,-1.9873,-2.1045,-2.004,-2.1991,-2.796,-2.8613,-2.9443,-3.085,-3.0889,-3.0889,-3.0889,-3.0889,-3.0889,-3.0889,-3.0889,-3.0889,-3.0889,-3.0889,-3.0889,-3.0889,-3.0889,-3.0889,-3.0889,-3.0889,-3.0889,-3.0889,-3.0889,-3.0889,-3.0889,-3.0889,-3.0889,-3.0889,-0.6672,-0.6599,-0.6599,-0.6599,-0.6599,-0.6599,-0.6599,-0.7116,-0.7889,-0.8962,-0.9992,-1.0924,-1.1696,-1.2047,-1.2298,-1.2478,0.0,0.0,0.0,0.0,0.0,0.0,0.0,0.0,0.0,0.0,0.0,0.0,0.0,0.0,0.0,0.0,0.0,0.0,0.0,0.0,0.0,0.0,0.0,0.0,0.0,0.0,-2.0595,-2.0498,-1.993,-1.9043,-1.8281,-1.8008,-1.8083,-1.8615,-1.8663,-1.8224,-1.6708,-1.583,-1.5342,-1.5186,0.0,-1.3769,-1.6533,-1.833,-1.9862,-2.1522,-2.0703,-1.9082,0.0,0.0,-2.2808,-2.2808,-2.2808,-2.2867,-2.3062,-2.3923,-2.3028,-1.8191,-1.7495,-1.7582,-1.7582,-1.7582,-1.7582,-1.7582,-1.7582,-1.8003,-1.9065,-1.9343,-2.1608,-2.6898,-2.2387,-2.1991,-2.796,-2.9756,-3.0693,-3.0889,-3.0889,-3.0889,-3.0889,-3.0889,-3.0889,-3.0889,-3.0889,-3.0889,-3.0889,-3.0889,-3.0889,-3.0889,-3.0889,-3.0889,-3.0889,-3.0889,-3.0889,-3.0889,-3.0889,-3.0889,-3.0889,-3.0889,-3.0889,-3.0889,-0.6681,-0.6599,-0.6642,-0.6748,-0.6685,-0.6599,-0.6599,-0.7053,-0.7691,-0.8524,-0.9499,-1.0365,-1.1012,-1.1771,-1.2014,-1.1475,-1.2753,0.0,0.0,0.0,0.0,0.0,0.0,0.0,0.0,0.0,0.0,0.0,0.0,0.0,0.0,0.0,0.0,0.0,0.0,0.0,0.0,0.0,0.0,0.0,0.0,0.0,-2.1744,-2.0911,-2.0067,-1.918,-1.832,-1.7353,0.0,0.0,-1.9194,-1.8818,-1.8448,-1.6629,-1.478,-1.5529,-1.5348,0.0,-1.7852,-1.8545,0.0,0.0,-2.1963,-2.1435,-2.1034,-2.2068,-2.3091,-2.3091,-2.39,-2.4602,-2.4602,-2.2646,-2.0231,0.0,-1.7582,-1.7582,-1.7582,-1.7582,-1.7582,-1.7582,-1.7582,-1.9466,-2.4132,-2.4561,-2.5617,-2.8121,-2.6,-2.6127,-2.9634,-3.0488,-3.0889,-3.0889,-3.0889,-3.0889,-3.0889,-3.0889,-3.0889,-3.0889,-3.0889,-3.0889,-3.0889,-3.0889,-3.0889,-3.0889,-3.0889,-3.0889,-3.0889,-3.0889,-3.0889,-3.0889,-3.0889,-3.0889,-3.0889,-3.0889,-3.0889,-3.0889,-0.6664,-0.6599,-0.6668,-0.6866,-0.6782,-0.6698,-0.6752,-0.7259,-0.781,-0.8317,-0.9289,-1.0097,-1.0568,-1.1267,-1.1526,-1.1063,-1.2562,-1.3556,0.0,0.0,0.0,0.0,0.0,0.0,0.0,0.0,0.0,0.0,0.0,0.0,0.0,0.0,0.0,0.0,0.0,0.0,0.0,0.0,0.0,0.0,0.0,0.0,-2.3021,-2.2091,-2.0759,-1.9111,-1.7773,-1.6182,0.0,0.0,-1.8797,-1.876,-1.8981,-1.7037,-1.4905,-1.6096,-1.6767,-1.7314,-1.8223,0.0,0.0,-2.0908,-2.2168,-2.2808,-2.3042,-2.3091,-2.3237,-2.3715,-2.4816,-2.5693,-2.5693,-2.1253,-1.7582,-1.7582,-1.7582,-1.7702,-1.8029,-1.7789,-1.7582,-1.7582,-1.8497,-2.0762,-2.4916,-2.7119,-2.8291,-2.8291,-2.874,-2.956,-3.082,-3.0889,-3.0889,-3.0889,-3.0889,-3.0889,-3.0889,-3.0889,-3.0889,-3.0889,-3.0889,-3.0889,-3.0889,-3.0889,-3.0889,-3.0889,-3.0889,-3.0889,-3.0889,-3.0889,-3.0889,-3.0889,-3.0889,-3.0889,-3.0889,-3.0889,-3.0889,-3.0889,-0.6642,-0.6599,-0.6668,-0.6866,-0.6899,-0.696,-0.7154,-0.7756,-0.8277,-0.8546,-0.9419,-1.0105,-1.0381,-1.0148,-1.0408,-1.1472,-1.2061,-1.272,-1.3641,-1.4976,0.0,0.0,0.0,0.0,0.0,0.0,0.0,0.0,0.0,0.0,0.0,0.0,0.0,0.0,0.0,0.0,0.0,0.0,0.0,0.0,0.0,0.0,-2.4172,-2.4542,-2.2423,-1.8955,-1.6406,0.0,0.0,0.0,-1.7318,-1.8088,-1.7399,-1.6688,0.0,-1.7275,-1.8335,0.0,0.0,0.0,-1.9805,-2.0488,-2.1269,-2.2139,-2.2906,-2.3091,-2.3578,-2.5265,-2.5654,-2.5693,-2.5693,-2.1253,-1.7582,-1.7582,-1.7582,-1.7989,-1.9209,-1.8317,-1.7582,-1.7582,-2.0738,-2.1627,0.0,-2.4226,-2.8291,-2.8291,-2.9863,-3.083,-3.0889,-3.0889,-3.0889,-3.0889,-3.0889,-3.0889,-3.0889,-3.0889,-3.0889,-3.0889,-3.0889,-3.0889,-3.0889,-3.0889,-3.0889,-3.0889,-3.0889,-3.0889,-3.0889,-3.0889,-3.0889,-3.0889,-3.0889,-3.0889,-3.0889,-3.0889,-3.0889,-3.0889,-0.6642,-0.6599,-0.6706,-0.7039,-0.7104,-0.7231,-0.7606,-0.797,-0.8296,-0.8567,-0.9387,0.0,0.0,0.0,0.0,0.0,-1.2767,-1.3722,-1.4257,-1.5673,0.0,0.0,0.0,0.0,0.0,0.0,0.0,0.0,0.0,0.0,0.0,0.0,0.0,0.0,0.0,0.0,0.0,0.0,0.0,0.0,0.0,0.0,-2.4127,-2.4616,-2.3133,-2.0345,0.0,0.0,0.0,0.0,0.0,0.0,-1.7352,0.0,0.0,-1.7216,0.0,0.0,0.0,0.0,-2.0605,-2.1943,-2.25,-2.275,-2.3033,-2.3988,-2.4982,-2.5567,-2.4767,-2.3968,-2.3968,-1.9836,-1.6673,-1.7455,-1.825,-1.8968,-1.937,-1.8337,-1.7582,-1.7582,-1.868,0.0,0.0,0.0,0.0,-2.8291,-2.9902,-3.0889,-3.0889,-3.0889,-3.0889,-3.0889,-3.0889,-3.0889,-3.0889,-3.0889,-3.0889,-3.0889,-3.0889,-3.0889,-3.0889,-3.0889,-3.0889,-3.0889,-3.0889,-3.0889,-3.0889,-3.0889,-3.0889,-3.0889,-3.0889,-3.0889,-3.0889,-3.0889,-3.0889,-3.0889,-0.6625,-0.6846,-0.7088,-0.7187,-0.7483,0.0,0.0,0.0,0.0,0.0,0.0,0.0,0.0,0.0,0.0,0.0,0.0,-1.3865,-1.4058,0.0,0.0,0.0,0.0,0.0,0.0,0.0,0.0,0.0,0.0,0.0,0.0,0.0,0.0,0.0,0.0,0.0,0.0,0.0,0.0,0.0,0.0,0.0,-2.3138,-2.3502,-2.2987,0.0,0.0,0.0,0.0,0.0,0.0,0.0,0.0,0.0,0.0,0.0,0.0,-1.8247,0.0,-2.084,-2.1486,-2.3164,-2.3076,-2.2871,-2.3825,-2.4884,-2.5508,-2.4884,-2.3871,-2.3091,-2.3091,-2.0531,-1.8072,-1.7129,-1.8317,-1.9424,-1.9424,-1.8704,-1.8217,-1.8217,-1.9604,-2.0734,0.0,0.0,0.0,-2.5278,-2.8718,-3.0889,-3.0889,-3.0889,-3.0889,-3.0889,-3.0889,-3.0889,-3.0889,-3.0889,-3.0889,-3.0889,-3.0889,-3.0889,-3.0889,-3.0889,-3.0889,-3.0889,-3.0889,-3.0889,-3.0889,-3.0889,-3.0889,-3.0889,-3.0889,-3.0889,-3.0889,-3.0889,-3.0889,-3.1228,-0.6637,-0.7331,-0.7766,0.0,0.0,0.0,0.0,0.0,0.0,0.0,0.0,0.0,0.0,0.0,0.0,0.0,0.0,0.0,0.0,0.0,0.0,0.0,0.0,0.0,-1.8025,-1.8995,0.0,0.0,0.0,0.0,0.0,0.0,0.0,0.0,0.0,0.0,0.0,0.0,0.0,0.0,0.0,0.0,-2.1455,-2.1355,0.0,0.0,0.0,0.0,0.0,0.0,0.0,0.0,0.0,0.0,0.0,0.0,0.0,-2.0546,-2.0595,-2.1349,-2.2471,-2.4082,-2.3172,-2.2567,-2.5118,-2.5615,-2.5089,-2.3432,-2.3023,-2.2935,0.0,0.0,-2.1459,-1.6782,-1.7881,-1.9357,-1.9417,-1.9424,-1.9424,0.0,0.0,0.0,0.0,0.0,0.0,-2.0412,0.0,-3.0889,-3.0889,-3.0889,-3.0889,-3.0889,-3.0889,-3.0889,-3.0889,-3.0889,-3.0889,-3.0889,-3.0889,-3.0889,-3.0889,-3.0889,-3.0889,-3.0889,-3.0889,-3.0889,-3.0889,-3.0889,-3.0889,-3.0889,-3.0889,-3.0889,-3.0889,-3.0889,-3.1112,-3.216,0.0,0.0,0.0,0.0,0.0,0.0,0.0,0.0,0.0,0.0,0.0,0.0,0.0,0.0,0.0,0.0,0.0,0.0,0.0,0.0,0.0,0.0,0.0,0.0,0.0,0.0,0.0,0.0,0.0,0.0,0.0,0.0,0.0,0.0,0.0,0.0,0.0,0.0,0.0,0.0,0.0,0.0,-2.0914,0.0,0.0,0.0,0.0,0.0,0.0,0.0,0.0,0.0,0.0,0.0,-1.8838,0.0,0.0,-1.9756,-2.0429,-2.2617,-2.4806,-2.5245,-2.5014,-2.4864,-2.5538,-2.469,-2.3627,-2.3188,-2.2119,-2.083,-1.9551,0.0,0.0,-1.9584,-1.8644,0.0,-1.9245,-1.9424,0.0,0.0,0.0,-2.1509,-2.2803,-2.7346,0.0,0.0,-2.9792,-3.0889,-3.0889,-3.0889,-3.0889,-3.0889,-3.0889,-3.0889,-3.0889,-3.0889,-3.0889,-3.0889,-3.0889,-3.0889,-3.0889,-3.0889,-3.0889,-3.0889,-3.0889,-3.0889,-3.0889,-3.0889,-3.0889,-3.0889,-3.0889,-3.0889,-3.0889,-3.0889,-3.3698,-3.766,0.0,0.0,0.0,0.0,0.0,0.0,0.0,0.0,0.0,0.0,0.0,0.0,0.0,0.0,0.0,0.0,0.0,0.0,0.0,0.0,0.0,0.0,0.0,0.0,0.0,0.0,0.0,0.0,0.0,0.0,0.0,0.0,0.0,0.0,0.0,0.0,0.0,0.0,0.0,0.0,0.0,0.0,0.0,0.0,0.0,0.0,0.0,0.0,0.0,0.0,0.0,-1.8325,-1.9091,-1.9677,-2.0166,-2.0703,0.0,-2.1572,-2.2568,-2.4258,-2.5693,-2.5693,-2.5693,-2.5693,-2.5693,-2.4933,-2.3803,-2.2324,-2.0039,0.0,-1.7051,0.0,0.0,0.0,0.0,0.0,-2.2744,-2.3934,-2.4447,0.0,-2.4447,0.0,-2.531,-2.8742,-3.0889,0.0,-3.0889,-3.0889,-3.0889,-3.0889,-3.0889,-3.0889,-3.0889,-3.0889,-3.0889,-3.0889,-3.0889,-3.0889,-3.0889,-3.0889,-3.0889,-3.0889,-3.0889,-3.0889,0.0,-3.0889,-3.0889,-3.0889,-3.0889,-3.0889,-3.0889,-3.0889,-3.1228,-3.381,-3.6888,-3.9697,0.0,0.0,0.0,0.0,0.0,0.0,0.0,0.0,0.0,0.0,0.0,0.0,0.0,0.0,0.0,0.0,0.0,0.0,0.0,0.0,0.0,0.0,0.0,0.0,0.0,0.0,0.0,0.0,0.0,0.0,0.0,0.0,0.0,0.0,0.0,0.0,0.0,0.0,0.0,0.0,0.0,0.0,0.0,0.0,0.0,0.0,0.0,0.0,0.0,0.0,-1.8141,-1.9327,-2.0051,-2.1084,-2.2129,-2.2519,-2.331,-2.4307,-2.5382,-2.5693,-2.5693,-2.5693,-2.5693,-2.5635,-2.5391,-2.4816,-2.3471,-2.0498,0.0,-1.5146,-1.5371,0.0,-1.3571,-2.1773,0.0,-2.0911,-2.738,-2.9795,-3.0889,-3.0889,-3.0889,-3.0889,-3.0889,-3.0889,-3.0889,-3.0889,-3.0889,-3.0889,-3.0889,-3.0889,-3.0889,-3.0889,-3.0889,-3.0889,-3.0889,-3.0889,-3.0889,-3.0889,-3.0889,-3.0889,-3.0889,-3.0889,-3.0889,-3.0889,-3.0889,0.0,-3.0889,-3.0889,-3.0889,-3.0889,-3.0889,-3.0889,-3.1614,-3.7542,-3.9697,-3.9697,0.0,0.0,0.0,0.0,0.0,0.0,0.0,-1.098,-1.1229,-1.1744,-1.1085,0.0,0.0,0.0,0.0,0.0,0.0,0.0,0.0,0.0,0.0,0.0,0.0,0.0,0.0,0.0,0.0,0.0,0.0,0.0,0.0,0.0,0.0,0.0,0.0,0.0,0.0,0.0,0.0,0.0,0.0,0.0,0.0,0.0,0.0,0.0,0.0,0.0,0.0,0.0,-1.858,-2.0948,-2.1809,-2.2461,-2.3125,-2.4141,-2.4394,-2.4551,-2.544,-2.5693,-2.5693,-2.5693,-2.5693,-2.5313,-2.3871,-2.0245,0.0,0.0,0.0,-1.375,-1.5156,-1.3815,0.0,-2.1935,0.0,0.0,0.0,0.0,-3.0889,0.0,0.0,0.0,0.0,0.0,0.0,0.0,0.0,-3.0889,-3.0889,-3.0889,-3.0889,-3.0889,-3.0889,-3.0889,-3.0889,-3.0889,-3.0889,-3.0889,-3.0889,-3.0889,-3.0889,-3.0889,-3.0889,-3.0889,-3.0889,0.0,-3.0889,-3.0889,-3.0889,-3.0889,-3.0889,-3.0889,-3.1614,-3.7542,-3.9697,-3.9697,0.0,0.0,0.0,0.0,0.0,0.0,0.0,-1.1361,-1.1848,-1.3123,-1.2816,-1.2571,-1.2789,-1.2932,-1.3242,0.0,0.0,0.0,0.0,0.0,0.0,0.0,0.0,0.0,0.0,0.0,0.0,0.0,0.0,0.0,0.0,0.0,0.0,0.0,0.0,0.0,0.0,0.0,0.0,0.0,0.0,0.0,0.0,0.0,0.0,0.0,0.0,0.0,0.0,0.0,-1.7471,-2.1113,-2.2422,-2.2935,-2.3208,-2.3773,-2.4307,-2.4814,-2.5499,-2.5693,-2.5693,-2.5693,-2.5693,-2.5235,-2.3491,0.0,0.0,0.0,0.0,-1.316,-1.3945,0.0,0.0,0.0,0.0,0.0,0.0,0.0,0.0,0.0,0.0,0.0,0.0,0.0,0.0,0.0,0.0,-3.0889,-3.0889,-3.0889,-3.0889,-3.0889,-3.0889,-3.0889,-3.0889,-3.0889,-3.0889,-3.0889,-3.0889,-3.0889,-3.0889,-3.0889,-3.0889,-3.0889,-3.0889,0.0,-3.0889,-3.0889,-3.0889,-3.0889,-3.0889,-3.2768,-3.5836,-3.8647,-3.9697,-3.9697,0.0,0.0,0.0,0.0,0.0,0.0,0.0,-1.1689,-1.245,-1.4328,-1.4396,-1.4116,-1.3745,-1.3566,-1.3632,0.0,0.0,0.0,0.0,0.0,0.0,0.0,0.0,0.0,0.0,0.0,0.0,0.0,0.0,0.0,0.0,0.0,0.0,0.0,0.0,0.0,0.0,0.0,0.0,0.0,0.0,0.0,0.0,0.0,0.0,0.0,0.0,0.0,0.0,0.0,-1.637,-2.0043,-2.1839,-2.2589,-2.2847,-2.2935,-2.3848,-2.4922,-2.5518,-2.5693,-2.5693,-2.5693,-2.5411,-2.468,-2.2935,-1.8867,0.0,0.0,-1.2905,-1.2905,-1.2905,0.0,0.0,0.0,0.0,0.0,0.0,0.0,0.0,0.0,0.0,0.0,0.0,0.0,0.0,0.0,0.0,0.0,-3.0889,-3.0889,-3.0889,-3.0889,-3.0889,-3.0889,-3.0889,-3.0889,-3.0889,-3.0889,-3.0889,-3.0889,-3.0889,-3.0889,-3.0889,-3.0889,-3.0889,0.0,0.0,-3.0889,-3.0889,-3.1005,-3.2275,-3.5629,-3.9697,-3.9697,-3.9697,-3.9697,0.0,0.0,0.0,0.0,0.0,0.0,0.0,-1.1831,-1.2948,-1.4632,-1.4828,-1.4936,-1.5254,-1.5175,-1.4911,0.0,0.0,0.0,0.0,0.0,0.0,0.0,0.0,0.0,0.0,0.0,0.0,0.0,0.0,0.0,0.0,0.0,0.0,0.0,0.0,0.0,0.0,0.0,0.0,0.0,0.0,0.0,0.0,0.0,0.0,0.0,0.0,0.0,0.0,0.0,0.0,-1.724,-1.9409,-2.097,-2.207,-2.2461,0.0,0.0,-2.545,-2.5693,-2.5693,-2.5693,-2.4504,-2.2877,-2.1191,0.0,0.0,0.0,-1.2905,-1.2905,-1.2905,-1.3032,0.0,0.0,0.0,0.0,0.0,0.0,0.0,0.0,0.0,0.0,0.0,0.0,0.0,0.0,0.0,0.0,-3.0889,-3.0889,-3.0889,-3.0889,-3.0889,-3.0889,-3.0889,-3.0889,-3.0889,-3.0889,-3.0889,-3.0889,-3.0889,-3.0889,-3.0889,-3.0889,-3.0889,0.0,0.0,-3.0889,-3.0889,-3.1441,-3.6769,-3.9193,-3.9697,-3.9697,-3.9697,-3.9697,0.0,0.0,0.0,0.0,0.0,0.0,-1.1737,-1.2121,-1.3132,-1.5856,-1.587,-1.5864,-1.6512,-1.6385,-1.587,-1.493,0.0,0.0,0.0,0.0,0.0,0.0,0.0,0.0,0.0,0.0,0.0,0.0,0.0,0.0,0.0,0.0,0.0,0.0,0.0,0.0,0.0,0.0,0.0,0.0,0.0,0.0,0.0,0.0,0.0,0.0,0.0,0.0,0.0,0.0,0.0,0.0,-1.776,-1.8948,0.0,0.0,-2.3208,-2.391,-2.5313,-2.5693,-2.5693,-2.5693,-2.3652,-2.0596,-1.6838,0.0,-1.3701,-1.3042,-1.2905,-1.2905,-1.2905,-1.2905,-1.313,0.0,-1.6777,-1.9512,0.0,0.0,0.0,0.0,0.0,0.0,0.0,0.0,0.0,0.0,0.0,0.0,-3.0889,-3.0889,-3.0889,-3.0889,-3.0889,-3.0889,-3.0889,-3.0889,-3.0889,-3.0889,-3.0889,-3.0889,-3.0889,-3.0889,-3.0889,-3.0889,-3.0889,0.0,0.0,-3.0889,-3.2985,-3.6445,-3.8752,-3.9697,-3.9697,-3.9697,-3.9697,-3.9697,0.0,0.0,0.0,0.0,0.0,-0.9761,-1.1874,-1.2332,-1.3425,-1.6177,-1.6118,-1.618,-1.7082,-1.6557,-1.5992,-1.5603,-1.5281,0.0,0.0,0.0,0.0,0.0,0.0,0.0,0.0,0.0,0.0,0.0,0.0,0.0,0.0,0.0,0.0,0.0,0.0,0.0,0.0,0.0,0.0,0.0,0.0,0.0,0.0,0.0,0.0,0.0,0.0,0.0,0.0,0.0,0.0,0.0,0.0,0.0,0.0,0.0,-2.246,-2.3364,-2.4592,-2.5294,-2.5567,-2.505,-2.2373,-1.8789,0.0,0.0,-1.2905,-1.2905,-1.2905,-1.2905,-1.2905,-1.2905,-1.2905,0.0,-1.5771,-1.8857,-2.1239,0.0,0.0,0.0,0.0,0.0,0.0,0.0,0.0,0.0,0.0,0.0,0.0,-3.0889,-3.0889,-3.0889,-3.0889,-3.0889,-3.0889,-3.0889,-3.0889,-3.0889,-3.0889,-3.0889,-3.0889,-3.0889,-3.0889,-3.0889,0.0,0.0,0.0,-3.0889,-3.4359,-3.9697,-3.9697,-3.9697,-3.9697,-3.9697,-3.9697,-3.9697,0.0,0.0,0.0,0.0,0.0,0.0,-1.0849,-1.2416,-1.3909,-1.5077,-1.521,-1.5634,-1.6778,-1.5365,-1.4957,-1.6545,-1.5709,0.0,0.0,0.0,0.0,0.0,0.0,0.0,0.0,0.0,0.0,0.0,0.0,0.0,0.0,0.0,0.0,0.0,0.0,0.0,0.0,0.0,0.0,0.0,0.0,0.0,-1.65,0.0,0.0,0.0,0.0,0.0,0.0,0.0,0.0,0.0,0.0,0.0,0.0,0.0,-2.0939,-2.3101,-2.312,-2.4378,-2.5274,-2.3549,-2.0547,-1.7803,0.0,-1.4717,-1.2905,-1.2905,-1.2905,-1.2905,-1.2905,-1.2905,-1.2905,-1.2905,-1.5771,-1.8018,-1.8057,0.0,0.0,0.0,0.0,0.0,0.0,0.0,0.0,0.0,0.0,0.0,0.0,-3.0889,-3.0889,-3.0889,-3.0889,-3.0889,-3.0889,-3.0889,-3.0889,-3.0889,-3.0889,-3.0889,-3.0889,-3.0889,-3.0889,0.0,0.0,0.0,0.0,-3.0889,-3.4359,-3.9697,-3.9697,-3.9697,-3.9697,-3.9697,-3.9697,-3.9697,0.0,0.0,0.0,0.0,0.0,0.0,0.0,-1.1801,-1.2703,-1.4674,-1.4529,-1.4732,-1.6008,-1.5257,-1.5037,-1.6009,-1.5234,0.0,0.0,0.0,0.0,0.0,0.0,0.0,0.0,0.0,0.0,0.0,0.0,0.0,0.0,0.0,0.0,0.0,0.0,0.0,0.0,0.0,0.0,0.0,0.0,-1.572,-1.593,0.0,0.0,0.0,0.0,0.0,0.0,0.0,0.0,0.0,0.0,0.0,0.0,-1.7128,0.0,0.0,-2.2457,-2.35,-2.2662,-1.7441,-1.8848,-2.0177,-1.5234,-1.6222,-1.7161,-1.3639,-1.2905,-1.2905,-1.2905,-1.2905,-1.4424,-1.9131,-1.7832,0.0,0.0,0.0,0.0,0.0,0.0,0.0,0.0,0.0,0.0,0.0,0.0,0.0,0.0,-3.0889,-3.0889,-3.0889,-3.0889,-3.0889,-3.0889,-3.0889,-3.0889,-3.0889,-3.0889,-3.0889,-3.0889,-3.0889,0.0,0.0,0.0,0.0,0.0,-3.2617,-3.541,-3.9697,-3.9697,-3.9697,-3.9697,-3.9697,-3.9697,-3.9697,0.0,0.0,0.0,0.0,0.0,0.0,0.0,-1.1154,-1.2009,-1.3471,-1.351,-1.3929,-1.5275,-1.4601,-1.4511,-1.5709,-1.4904,0.0,0.0,0.0,0.0,0.0,0.0,0.0,0.0,0.0,0.0,0.0,0.0,0.0,0.0,0.0,0.0,0.0,0.0,0.0,0.0,0.0,0.0,0.0,-1.4948,-1.5314,-1.5432,0.0,0.0,0.0,0.0,0.0,0.0,0.0,0.0,0.0,0.0,0.0,0.0,0.0,-1.6942,-1.7988,0.0,-2.0216,-1.8242,-1.3955,-1.6103,-1.8393,-1.5215,-1.6377,-1.7139,-1.3639,-1.2905,-1.2905,-1.2905,-1.2903,-1.4722,-2.0255,-1.9029,0.0,0.0,0.0,0.0,0.0,0.0,0.0,0.0,0.0,0.0,0.0,0.0,0.0,0.0,-3.0889,-3.0889,-3.0889,-3.0889,-3.0889,-3.0889,-3.0889,-3.0889,-3.0889,-3.0889,-3.0889,-3.0889,-3.0889,0.0,0.0,0.0,0.0,0.0,-3.7002,-3.8585,-4.094,-4.094,-4.0425,-3.9798,-4.0626,-4.094,-4.094,0.0,0.0,0.0,0.0,0.0,0.0,0.0,-1.0513,-1.173,-1.173,-1.231,-1.3193,-1.4451,-1.3478,-1.352,-1.5484,0.0,0.0,0.0,0.0,0.0,0.0,0.0,0.0,0.0,0.0,0.0,-1.6437,-1.6398,-1.6135,-1.5659,0.0,0.0,0.0,0.0,0.0,0.0,0.0,0.0,0.0,-1.4281,-1.4808,0.0,0.0,0.0,0.0,0.0,0.0,0.0,0.0,0.0,0.0,0.0,0.0,0.0,0.0,0.0,0.0,0.0,-1.5505,-1.3138,-1.3041,-1.2968,-1.3574,-1.62,-1.541,0.0,-1.3062,-1.2905,-1.2905,-1.2905,-1.2896,-1.4024,-1.7456,0.0,0.0,0.0,0.0,0.0,0.0,0.0,0.0,0.0,0.0,0.0,0.0,0.0,0.0,0.0,-3.0889,-3.0889,-3.0889,-3.0889,-3.0889,-3.0889,-3.0889,-3.0889,-3.0889,-3.0889,-3.0889,-3.0889,-3.0889,0.0,0.0,0.0,0.0,0.0,-4.2974,-4.2974,-4.2974,-4.2974,-4.1731,-4.0174,-4.2221,-4.2974,-4.2974,0.0,0.0,0.0,0.0,0.0,0.0,0.0,0.0,0.0,0.0,-1.1625,-1.216,-1.2463,-1.2224,-1.2643,0.0,0.0,0.0,0.0,0.0,0.0,0.0,0.0,0.0,0.0,0.0,0.0,-1.5894,-1.6732,-1.6811,-1.6137,-1.6514,0.0,0.0,0.0,0.0,0.0,0.0,0.0,0.0,-1.447,-1.4753,0.0,0.0,0.0,0.0,-1.5613,-1.548,0.0,0.0,0.0,0.0,0.0,0.0,0.0,0.0,-1.5854,-1.5177,-1.5407,0.0,-1.5421,-1.4502,-1.3586,-1.3057,0.0,-1.4233,-1.4233,0.0,0.0,-1.2905,-1.2905,-1.2907,-1.4019,0.0,0.0,0.0,0.0,0.0,0.0,0.0,0.0,0.0,0.0,0.0,0.0,0.0,0.0,0.0,0.0,-3.0889,-3.0889,-3.0889,-3.0889,-3.0889,-3.0889,-3.0889,-3.0889,-3.0889,-3.0889,-3.0889,-3.0889,-3.0889,0.0,0.0,0.0,0.0,-4.2974,-4.2974,-4.2974,-4.2974,-4.2974,-4.266,-4.2271,-4.2785,-4.2974,-4.2974,0.0,0.0,0.0,0.0,0.0,0.0,0.0,0.0,0.0,0.0,0.0,-1.1805,-1.1805,-1.1805,0.0,0.0,0.0,0.0,0.0,0.0,0.0,0.0,0.0,0.0,0.0,0.0,0.0,0.0,0.0,-1.6232,0.0,0.0,0.0,0.0,0.0,0.0,0.0,0.0,0.0,0.0,-1.4205,0.0,0.0,0.0,0.0,0.0,-1.4947,-1.5074,0.0,-1.5928,-1.6019,-1.5778,0.0,0.0,0.0,0.0,-1.4915,-1.5051,-1.5433,-1.6717,-1.7814,-1.7177,-1.6236,-1.5509,-1.5509,0.0,0.0,0.0,0.0,0.0,-1.3945,0.0,0.0,0.0,0.0,0.0,0.0,0.0,0.0,0.0,0.0,0.0,0.0,0.0,0.0,0.0,0.0,0.0,0.0,-3.0889,-3.0889,-3.0889,-3.0889,-3.0889,-3.0889,-3.0889,-3.0889,-3.0889,-3.0889,-3.0889,-3.0889,-3.0889,-3.0889,0.0,0.0,0.0,-3.8853,-4.1773,-4.2974,-4.2974,-4.2974,-4.2974,-4.2974,-4.2974,-4.2974,-4.2974,0.0,0.0,0.0,0.0,0.0,0.0,0.0,0.0,0.0,0.0,0.0,0.0,0.0,0.0,0.0,0.0,0.0,0.0,0.0,0.0,0.0,0.0,0.0,0.0,0.0,0.0,0.0,0.0,0.0,0.0,0.0,0.0,-1.3746,0.0,0.0,0.0,0.0,0.0,0.0,-1.278,-1.3543,0.0,0.0,0.0,0.0,0.0,0.0,0.0,0.0,-1.5508,-1.5827,-1.5997,-1.5499,0.0,0.0,0.0,0.0,0.0,-1.6436,-1.825,-1.9721,-1.9292,-1.8978,-1.8676,-1.8337,0.0,0.0,0.0,0.0,0.0,0.0,0.0,0.0,0.0,0.0,0.0,0.0,0.0,0.0,0.0,0.0,0.0,0.0,0.0,0.0,0.0,0.0,0.0,0.0,-3.0889,-3.0889,-3.0889,-3.0889,-3.0889,-3.0889,-3.0889,-3.0889,-3.0889,-3.0889,-3.0889,-3.0889,-3.0889,-3.0889,-3.1025,0.0,0.0,-3.3902,-4.0349,-4.2974,-4.2974,-4.2974,-4.2974,-4.2974,-4.2974,-4.2974,-4.2974,0.0,0.0,0.0,0.0,0.0,0.0,0.0,0.0,0.0,0.0,0.0,0.0,0.0,0.0,0.0,0.0,0.0,0.0,0.0,0.0,0.0,0.0,0.0,0.0,0.0,0.0,0.0,0.0,0.0,0.0,-1.5132,-1.5394,-1.4879,0.0,0.0,0.0,0.0,-1.2905,-1.2475,-1.1844,0.0,0.0,0.0,0.0,0.0,0.0,0.0,0.0,0.0,-1.4612,-1.4747,-1.4456,-1.5303,0.0,0.0,0.0,0.0,0.0,-1.7155,-1.9128,-1.9889,-1.7512,-1.8234,-1.905,0.0,0.0,0.0,0.0,0.0,0.0,0.0,0.0,0.0,0.0,0.0,0.0,0.0,0.0,0.0,0.0,0.0,0.0,0.0,0.0,0.0,0.0,0.0,0.0,0.0,-3.0889,-3.0889,-3.0889,-3.0889,-3.0889,-3.0889,-3.0889,-3.0889,-3.0889,-3.0889,-3.0889,-3.0889,-3.0889,-3.0889,-3.118,0.0,-3.6723,-3.3902,-4.0349,-4.2974,-4.2974,-4.2974,-4.2974,-4.2974,-4.2974,-4.2974,-4.2974,0.0,0.0,0.0,0.0,0.0,0.0,0.0,0.0,0.0,0.0,0.0,0.0,0.0,0.0,0.0,0.0,0.0,0.0,0.0,0.0,0.0,0.0,0.0,0.0,0.0,0.0,0.0,0.0,0.0,-1.5535,-1.5419,-1.5263,-1.4523,-1.3262,0.0,0.0,0.0,-1.1897,-1.1535,-1.1598,0.0,0.0,0.0,0.0,0.0,0.0,0.0,0.0,0.0,0.0,-1.4667,-1.4959,-1.5475,0.0,0.0,0.0,0.0,0.0,-1.6291,-1.8177,-1.9447,-1.8469,-2.0355,-2.2176,0.0,0.0,0.0,0.0,0.0,0.0,0.0,0.0,0.0,0.0,0.0,0.0,0.0,0.0,0.0,0.0,0.0,0.0,0.0,0.0,0.0,0.0,0.0,0.0,0.0,0.0,-3.0889,-3.0889,-3.0889,-3.0889,-3.0889,-3.0889,-3.0889,-3.0889,-3.0889,-3.0889,-3.0889,-3.0889,-3.2654,-3.5793,0.0,-3.8586,-3.7099,-4.1296,-4.2974,-4.2974,-4.2974,-4.2974,-4.2974,-4.2974,-4.2974,-4.2974,0.0,0.0,0.0,0.0,0.0,0.0,0.0,0.0,0.0,0.0,0.0,0.0,0.0,0.0,0.0,0.0,0.0,0.0,0.0,0.0,0.0,0.0,0.0,0.0,0.0,0.0,-1.5187,-1.5165,-1.4967,-1.4989,-1.5219,-1.4728,-1.3923,0.0,0.0,0.0,0.0,-1.087,-1.0684,-1.1286,0.0,0.0,0.0,0.0,0.0,0.0,0.0,0.0,0.0,0.0,0.0,0.0,0.0,0.0,0.0,-1.5174,-1.4846,-1.4707,-1.5707,-1.7407,-1.9153,-2.0129,0.0,0.0,0.0,0.0,0.0,0.0,0.0,0.0,0.0,0.0,0.0,0.0,0.0,0.0,0.0,0.0,0.0,0.0,0.0,0.0,0.0,0.0,0.0,0.0,0.0,0.0,0.0,0.0,-3.0889,-3.0889,-3.0889,-3.0889,-3.0889,-3.0889,-3.0889,-3.0889,-3.0889,-3.0889,-3.0889,-3.0889,-3.4136,-3.9697,-3.9697,-3.9697,-3.9823,-4.1517,-4.2208,-4.2258,-4.2773,-4.2974,-4.2974,-4.2974,-4.2974,-4.2974,0.0,0.0,0.0,0.0,0.0,0.0,0.0,0.0,0.0,0.0,0.0,0.0,0.0,0.0,0.0,0.0,0.0,0.0,0.0,0.0,0.0,0.0,0.0,0.0,0.0,-1.463,-1.4526,-1.4461,-1.4278,-1.4076,-1.3835,-1.4053,-1.3685,-1.2837,0.0,0.0,0.0,0.0,-1.0342,-1.0391,-1.038,0.0,0.0,0.0,0.0,0.0,0.0,0.0,0.0,0.0,0.0,0.0,0.0,0.0,-1.3933,-1.3933,-1.3909,-1.4339,-1.6508,-1.7967,-1.9419,-2.1574,0.0,0.0,0.0,0.0,0.0,0.0,0.0,0.0,0.0,0.0,0.0,0.0,0.0,0.0,0.0,0.0,0.0,0.0,0.0,0.0,0.0,0.0,0.0,0.0,0.0,0.0,0.0,0.0,0.0,-3.0889,-3.0889,-3.0889,-3.0889,-3.0889,-3.0889,-3.0889,-3.0889,-3.0889,-3.0889,-3.0889,-3.4136,-3.9697,-3.9697,-3.9697,-3.9697,-3.986,-3.9936,-4.0136,-4.2183,-4.2974,-4.2974,-4.2974,-4.2974,-4.2974,0.0,0.0,0.0,0.0,0.0,0.0,0.0,0.0,0.0,0.0,0.0,0.0,0.0,0.0,0.0,0.0,0.0,0.0,0.0,0.0,0.0,0.0,0.0,-1.4169,-1.3803,-1.4586,-1.4795,-1.439,-1.4194,-1.3968,-1.3714,-1.3977,0.0,0.0,0.0,0.0,0.0,0.0,-1.0071,-1.074,-1.0074,-1.0108,0.0,0.0,0.0,0.0,0.0,0.0,0.0,0.0,-1.35,-1.3957,-1.3781,-1.4024,-1.4321,-1.4048,-1.4429,-1.5097,-1.5975,-1.8075,0.0,0.0,0.0,0.0,0.0,0.0,0.0,0.0,0.0,0.0,0.0,0.0,0.0,0.0,0.0,0.0,0.0,0.0,0.0,0.0,0.0,0.0,0.0,0.0,0.0,0.0,0.0,0.0,0.0,0.0,0.0,-3.0889,-3.0889,-3.0889,-3.0889,-3.1825,-3.2264,-3.2264,-3.2264,-3.1767,-3.0947,-3.2825,-3.5836,-3.9697,-3.9697,-3.9697,-3.9697,-3.9697,-3.9697,-3.991,-4.212,-4.2974,-4.2974,-4.2974,-4.2974,-4.2974,0.0,0.0,0.0,0.0,0.0,0.0,0.0,0.0,0.0,0.0,0.0,0.0,0.0,0.0,0.0,0.0,0.0,0.0,0.0,0.0,0.0,0.0,0.0,-1.3275,-1.27,-1.3949,-1.4371,-1.3932,-1.3918,-1.3743,-1.3441,0.0,0.0,0.0,0.0,0.0,0.0,0.0,0.0,-1.065,-0.9839,-0.9824,0.0,0.0,0.0,0.0,0.0,0.0,0.0,0.0,-1.3222,-1.3428,-1.3114,-1.3432,-1.3906,-1.3756,-1.455,-1.5439,-1.5439,-1.7612,-2.0024,0.0,0.0,0.0,0.0,0.0,0.0,0.0,0.0,0.0,0.0,0.0,0.0,0.0,0.0,0.0,0.0,0.0,0.0,0.0,0.0,0.0,0.0,0.0,0.0,0.0,0.0,0.0,0.0,0.0,0.0,0.0,-3.1343,-3.1612,-3.1604,-3.3088,-3.4013,-3.4504,-3.4504,-3.3845,-3.2804,-3.5508,-3.7767,-3.9697,-3.9697,-3.9697,-3.9697,-3.9697,-3.9697,-3.991,-4.212,-4.2974,-4.2974,-4.2974,-4.2974,-4.2974,0.0,0.0,0.0,0.0,0.0,0.0,0.0,0.0,0.0,0.0,0.0,0.0,0.0,0.0,0.0,0.0,0.0,0.0,0.0,0.0,0.0,0.0,0.0,-1.221,-1.1605,-1.2562,-1.3019,-1.2895,-1.3291,-1.3281,-1.2871,-1.2881,0.0,0.0,0.0,0.0,0.0,0.0,0.0,0.0,-0.96,-0.9824,-1.0341,0.0,0.0,0.0,0.0,0.0,0.0,0.0,-1.3326,-1.258,-1.356,-1.3097,-1.2301,-1.2754,-1.3947,-1.5107,-1.5081,-1.6557,0.0,0.0,0.0,0.0,0.0,0.0,0.0,0.0,0.0,0.0,0.0,0.0,0.0,0.0,0.0,0.0,0.0,0.0,0.0,0.0,0.0,0.0,0.0,0.0,0.0,0.0,0.0,0.0,0.0,0.0,0.0,0.0,-3.2339,-3.3089,-3.3124,-3.457,-3.6054,-3.7518,-3.7518,-3.7228,-3.6776,-3.8792,-3.9697,-3.9697,-3.9697,-3.9697,-3.9697,-3.9697,-3.9697,-3.991,-4.2095,-4.2961,-4.2974,-4.2974,-4.2974,-4.2974,0.0,0.0,0.0,0.0,0.0,0.0,0.0,0.0,0.0,0.0,0.0,0.0,0.0,0.0,0.0,0.0,0.0,0.0,0.0,0.0,0.0,0.0,0.0,0.0,0.0,0.0,-1.1826,-1.2398,-1.2525,-1.2292,0.0,0.0,0.0,-1.1249,0.0,0.0,0.0,0.0,0.0,0.0,-0.9474,-0.9614,-1.0132,0.0,0.0,0.0,0.0,0.0,0.0,0.0,0.0,0.0,-1.1923,-1.2403,-1.3012,-1.2545,-1.368,-1.5034,-1.4715,-1.6938,0.0,0.0,0.0,0.0,0.0,0.0,0.0,0.0,0.0,0.0,0.0,0.0,0.0,0.0,0.0,0.0,0.0,0.0,0.0,0.0,0.0,0.0,0.0,0.0,0.0,0.0,0.0,0.0,0.0,0.0,0.0,0.0,-3.2868,-3.3588,-3.4626,-3.6108,-3.7079,-3.7518,-3.857,-3.8961,-3.8844,-3.9413,-3.9697,-3.9697,-3.9697,-3.9697,-3.9697,-3.9697,-3.9697,-3.976,-4.0413,-4.1618,-4.2974,-4.2974,-4.2974,-4.2974,0.0,0.0,0.0,0.0,0.0,0.0,0.0,0.0,0.0,0.0,0.0,0.0,0.0,0.0,0.0,0.0,0.0,0.0,0.0,0.0,0.0,0.0,0.0,0.0,0.0,-1.0895,-1.1151,0.0,0.0,0.0,0.0,0.0,0.0,-1.0788,0.0,-0.9358,0.0,0.0,0.0,0.0,-0.9001,-0.929,-0.9971,0.0,0.0,0.0,0.0,0.0,0.0,0.0,0.0,0.0,-1.1348,-1.1796,-1.251,-1.2662,-1.3796,-1.5121,-1.5693,0.0,0.0,0.0,0.0,0.0,0.0,0.0,0.0,0.0,0.0,0.0,0.0,0.0,0.0,0.0,0.0,0.0,0.0,0.0,0.0,0.0,0.0,0.0,0.0,0.0,0.0,0.0,0.0,0.0,0.0,0.0,0.0,0.0,-3.4263,-3.525,-3.6162,-3.7648,-3.8348,-3.836,-3.9297,-3.9697,-3.9697,-3.9697,-3.9697,-3.9697,-3.9697,-3.9697,-3.9697,-3.9697,-3.9697,-3.9697,-3.9697,-4.0501,-4.1781,-4.266,-4.2974,-4.2974,0.0,0.0,-0.7106,-0.6927,0.0,0.0,0.0,0.0,0.0,0.0,0.0,-0.9843,0.0,0.0,0.0,-0.9905,-0.9905,-0.9905,0.0,0.0,0.0,0.0,0.0,0.0,0.0,0.0,0.0,0.0,0.0,0.0,0.0,0.0,-1.0515,-0.971,0.0,-0.9173,0.0,0.0,0.0,0.0,-0.8386,-0.8887,-0.9759,-0.9866,0.0,0.0,0.0,0.0,0.0,0.0,0.0,0.0,-1.1485,-1.1348,-1.1316,-1.293,-1.4053,-1.5225,0.0,0.0,0.0,0.0,0.0,0.0,0.0,0.0,0.0,0.0,0.0,0.0,0.0,0.0,0.0,0.0,0.0,0.0,0.0,0.0,0.0,0.0,0.0,0.0,0.0,0.0,0.0,0.0,0.0,0.0,0.0,0.0,0.0,-3.3521,-3.6103,-3.7549,-3.769,-3.9025,-3.9697,0.0,-3.9697,-3.9697,-3.9697,-3.9697,-3.9697,-3.9697,-3.9697,-3.9697,-3.9697,-3.9697,-3.9697,-3.9697,-3.9697,-3.9697,-3.9936,-4.1944,-4.2811,-4.2974,0.0,0.0,-0.6952,-0.6903,0.0,0.0,0.0,0.0,-0.7763,-0.8238,-0.8875,-0.9428,-0.9855,-0.9905,0.0,-0.9905,-0.9905,-0.9905,-0.9905,0.0,0.0,0.0,0.0,0.0,0.0,0.0,0.0,0.0,0.0,0.0,0.0,0.0,0.0,-0.8995,0.0,-0.8446,0.0,0.0,0.0,-0.7804,-0.8268,-0.8524,-0.8743,-0.9696,-1.0182,0.0,0.0,0.0,0.0,0.0,0.0,0.0,-1.1055,-1.1473,-1.1999,-1.2369,-1.3584,-1.5058,0.0,0.0,0.0,0.0,0.0,0.0,0.0,0.0,0.0,0.0,0.0,0.0,0.0,0.0,0.0,0.0,0.0,0.0,0.0,0.0,0.0,0.0,0.0,0.0,0.0,0.0,0.0,0.0,0.0,0.0,0.0,0.0,0.0,-3.6455,-3.7185,-3.8069,-3.9245,-3.953,-3.9697,0.0,-3.9697,-3.9697,-3.9697,-3.9697,-3.9697,-3.9697,-3.9697,-3.9697,-3.9697,-3.9697,-3.9697,-3.9697,-3.9697,-3.9697,-3.9747,-4.0224,-4.1492,-4.2974,0.0,0.0,0.0,0.0,0.0,0.0,0.0,0.0,-0.8325,-0.8637,-0.9151,-0.9591,-0.9868,-0.9905,0.0,0.0,-0.9905,-0.9828,-0.9673,-0.9302,-0.9297,-0.9777,0.0,0.0,0.0,0.0,0.0,0.0,0.0,0.0,0.0,0.0,0.0,-0.8791,0.0,-0.821,0.0,0.0,-0.764,-0.7892,-0.7974,-0.8216,-0.8558,-0.9195,-0.9506,-0.9706,-1.0416,0.0,0.0,0.0,0.0,0.0,0.0,0.0,-1.1697,-1.2353,-1.3377,-1.4847,0.0,0.0,0.0,0.0,0.0,0.0,0.0,0.0,0.0,0.0,0.0,0.0,0.0,0.0,0.0,0.0,0.0,0.0,0.0,0.0,0.0,0.0,0.0,0.0,0.0,0.0,0.0,0.0,0.0,0.0,0.0,-3.446,-3.5928,-3.7464,-3.8214,-3.8908,-3.9697,-3.9697,-3.9697,-3.9697,-3.9697,-3.9697,-3.9697,-3.9697,-3.9697,-3.9697,-3.9697,-3.9697,-3.9697,-3.9697,-3.9697,-3.9697,-3.9697,-3.9697,-3.9697,-3.9697,-4.0413,-4.1555,0.0,0.0,0.0,0.0,0.0,0.0,0.0,0.0,0.0,-0.9088,-0.9566,-0.9905,-0.9905,-0.9905,-0.9905,0.0,0.0,0.0,-0.9422,-0.9345,-0.9335,-0.9393,0.0,0.0,0.0,0.0,0.0,0.0,0.0,0.0,0.0,0.0,0.0,-0.8791,0.0,0.0,0.0,0.0,-0.7647,-0.7968,-0.7478,-0.7701,-0.8331,-0.8452,-0.8586,-0.8866,-0.9925,-1.0225,-1.0049,-0.97,0.0,0.0,0.0,0.0,-1.1144,-1.2332,-1.3212,-1.4605,0.0,0.0,0.0,0.0,0.0,0.0,0.0,0.0,0.0,0.0,0.0,0.0,0.0,0.0,0.0,0.0,0.0,0.0,0.0,0.0,0.0,0.0,0.0,0.0,0.0,0.0,0.0,0.0,0.0,0.0,-3.3845,-3.614,-3.7636,-3.7861,-3.9077,-3.9697,-3.9697,-3.9697,-3.9697,-3.9697,-3.9697,-3.9697,-3.9697,-3.9697,-3.9697,-3.9697,-3.9697,-3.9697,-3.9697,-3.9697,-3.9697,-3.9697,-3.9697,-3.9697,-3.9697,-3.9697,-3.9697,-4.0011,0.0,0.0,0.0,0.0,0.0,0.0,0.0,0.0,0.0,0.0,-0.9566,-0.9905,-0.9905,-0.9905,-0.9905,-0.9905,-0.9905,-0.9751,-0.9422,0.0,0.0,0.0,0.0,0.0,0.0,0.0,0.0,0.0,0.0,0.0,0.0,0.0,0.0,-0.8791,0.0,0.0,0.0,0.0,-0.6975,-0.6807,-0.6491,-0.654,-0.6858,-0.7436,-0.7634,-0.785,-0.9658,-0.9893,-0.9395,-0.9733,-1.0011,0.0,0.0,0.0,0.0,0.0,0.0,0.0,0.0,0.0,0.0,0.0,0.0,0.0,0.0,0.0,0.0,0.0,0.0,0.0,0.0,0.0,0.0,0.0,0.0,0.0,0.0,0.0,0.0,0.0,0.0,0.0,0.0,0.0,0.0,0.0,0.0,0.0,-3.6799,-3.7305,-3.8072,-3.9362,-3.9581,-3.9697,-3.9697,-3.9697,-3.9697,-3.9697,-3.9697,-3.9697,-3.9697,-3.9697,-3.9697,-3.9697,-3.9697,-3.9697,-3.9697,-3.9697,-3.9697,-3.9697,-3.9697,-3.9697,-3.9697,-3.9697,-3.9697,-4.0011,0.0,0.0,0.0,0.0,0.0,0.0,0.0,0.0,0.0,0.0,0.0,-0.9905,-0.9905,-0.9905,-0.9905,-0.9905,-0.9737,-0.9462,-0.9087,-0.8531,0.0,0.0,0.0,0.0,0.0,0.0,0.0,0.0,0.0,0.0,0.0,-0.8297,-0.8758,0.0,0.0,0.0,0.0,0.0,0.0,-0.7604,-0.6934,-0.6879,-0.7237,-0.7214,-0.7096,-0.7065,-0.837,-0.8994,-0.9228,-0.9435,-0.9935,-1.0404,-0.9855,0.0,0.0,0.0,0.0,0.0,0.0,0.0,0.0,0.0,0.0,0.0,0.0,0.0,0.0,0.0,0.0,0.0,0.0,0.0,0.0,0.0,0.0,0.0,0.0,0.0,0.0,0.0,0.0,0.0,0.0,0.0,0.0,0.0,0.0,-3.5911,-3.7002,-3.8125,-3.9025,-3.9685,-3.9697,-3.9697,-3.9697,-3.9697,-3.9697,-3.9697,-3.9697,-3.9697,-3.9697,-3.9697,-3.9697,-3.9697,-3.9697,-3.9697,-3.9697,-3.9697,-3.9697,-3.9697,-3.9697,-3.9697,-3.9697,-3.9697,-3.9697,-4.0011,0.0,0.0,0.0,0.0,0.0,0.0,0.0,0.0,0.0,0.0,0.0,-0.9905,-0.9905,0.0,0.0,0.0,-0.9541,-0.9195,-0.8706,0.0,0.0,0.0,0.0,0.0,0.0,0.0,0.0,0.0,0.0,0.0,-0.8509,-0.8557,-0.9447,0.0,-0.9893,0.0,0.0,0.0,0.0,-0.8453,-0.7392,-0.7178,-0.7405,-0.68,-0.6421,-0.6384,-0.7844,0.0,0.0,0.0,0.0,0.0,0.0,0.0,0.0,0.0,0.0,0.0,0.0,0.0,0.0,0.0,0.0,0.0,0.0,0.0,0.0,0.0,0.0,0.0,0.0,0.0,0.0,0.0,0.0,0.0,0.0,0.0,0.0,0.0,0.0,0.0,0.0,0.0,0.0,0.0,0.0,-3.7185,-3.7481,-3.8788,-3.9546,-3.9685,-3.9697,-3.9697,-3.9697,-3.9697,-3.9697,-3.9697,-3.9697,-3.9697,-3.9697,-3.9697,-3.9697,-3.9697,-3.9697,-3.9697,-3.9697,-3.9697,-3.9697,-3.9697,-3.9697,-3.9697,-3.9697,-3.9697,-3.9697,-4.0011,0.0,0.0,0.0,0.0,0.0,0.0,0.0,0.0,0.0,0.0,0.0,-0.9905,-0.9905,-0.9905,-0.9764,-0.9461,-0.9409,-0.9087,-0.8365,0.0,0.0,0.0,0.0,0.0,0.0,0.0,0.0,0.0,0.0,0.0,-0.8791,-0.9038,-1.0097,-1.1785,-1.0588,-0.9606,-0.8811,0.0,0.0,-0.8594,-0.7398,-0.6762,-0.6483,-0.5695,-0.5379,-0.5789,0.0,0.0,0.0,0.0,0.0,0.0,0.0,0.0,0.0,0.0,0.0,0.0,0.0,0.0,0.0,0.0,0.0,0.0,0.0,0.0,0.0,0.0,0.0,0.0,0.0,0.0,0.0,0.0,0.0,0.0,0.0,0.0,0.0,0.0,0.0,0.0,0.0,0.0,0.0,0.0,0.0,-3.8417,-3.9474,-3.9171,-3.9145,-3.9672,-3.9697,-3.9697,-3.9697,-3.9697,-3.9697,-3.9697,-3.9697,-3.9697,-3.9697,-3.9697,-3.9697,-3.9697,-3.9697,-3.9697,-3.9697,-3.9697,-3.9697,-3.9697,-3.9697,-3.9697,-3.9697,-3.9697,-3.9697,-4.0011,0.0,0.0,0.0,0.0,0.0,0.0,0.0,0.0,0.0,0.0,0.0,0.0,0.0,-0.9699,-0.954,-0.9409,-0.8965,0.0,0.0,0.0,0.0,0.0,0.0,0.0,0.0,0.0,0.0,0.0,0.0,-0.6419,-0.7973,-0.8232,-0.8838,-0.9668,-0.9967,-1.0147,-1.0181,-0.9462,0.0,0.0,-0.8275,-0.909,0.0,-1.2739,-1.4143,-1.5284,0.0,0.0,0.0,0.0,0.0,0.0,-1.0245,-1.0693,-1.0968,-1.0636,0.0,0.0,0.0,0.0,0.0,0.0,0.0,0.0,0.0,0.0,0.0,0.0,0.0,0.0,0.0,0.0,0.0,0.0,0.0,0.0,0.0,0.0,0.0,0.0,0.0,0.0,0.0,0.0,0.0,0.0,0.0,0.0,-3.7568,-3.8279,-3.8994,-3.9672,-3.9233,-3.922,-3.9685,-3.9697,-3.9697,-3.9697,-3.9697,-3.9697,-3.9697,-3.9697,-3.9697,-3.9697,-3.9697,-3.9697,-3.9697,-3.9697,-3.9697,-3.9697,-3.9697,-3.9697,-3.9697,-3.9697,-3.9697,-3.9798,0.0,0.0,0.0,-0.9607,0.0,-0.8851,-0.8989,-0.8763,-0.8748,-0.9148,0.0,0.0,0.0,0.0,-0.9525,-0.9254,-0.8535,0.0,-0.771,0.0,0.0,0.0,0.0,0.0,0.0,0.0,0.0,0.0,0.0,0.0,0.0,-0.7589,-0.8132,-0.8818,-0.933,-0.9876,0.0,0.0,0.0,-0.9852,0.0,0.0,-1.3711,0.0,-1.957,0.0,0.0,0.0,0.0,0.0,0.0,0.0,0.0,-1.1113,-1.0936,-1.043,-1.0303,0.0,0.0,0.0,0.0,0.0,0.0,0.0,0.0,0.0,0.0,0.0,0.0,0.0,0.0,0.0,0.0,0.0,0.0,0.0,0.0,0.0,0.0,0.0,0.0,0.0,0.0,0.0,0.0,0.0,0.0,0.0,-3.6797,-3.7443,-3.8342,-3.9383,-3.8944,-3.9019,-3.9685,-3.9697,-3.9697,-3.9697,-3.9697,-3.9697,-3.9697,-3.9697,-3.9697,-3.9697,-3.9697,-3.9697,-3.9697,-3.9697,-3.9697,-3.9697,-3.9697,-3.9697,-3.9697,-3.9697,-3.9697,-3.9697,-0.9893,-0.9893,-0.988,-0.9866,-0.9605,-0.9391,-0.939,-0.9056,-0.8811,-0.8822,0.0,0.0,0.0,0.0,0.0,-0.8989,-0.8194,-0.7734,-0.7715,-0.7329,0.0,0.0,0.0,0.0,0.0,0.0,0.0,0.0,0.0,0.0,0.0,0.0,-0.8243,-0.9511,-0.883,-0.8784,-0.9288,0.0,-1.1651,-1.1542,0.0,-1.1381,-1.4423,0.0,0.0,0.0,-2.0625,-2.0635,0.0,-1.6768,0.0,0.0,0.0,-1.1992,-1.085,-1.043,-1.0342,0.0,0.0,0.0,0.0,0.0,0.0,0.0,0.0,0.0,0.0,0.0,0.0,0.0,0.0,0.0,0.0,0.0,0.0,0.0,0.0,0.0,0.0,0.0,0.0,0.0,0.0,0.0,0.0,0.0,0.0,-3.6716,-3.7442,-3.6769,-3.7169,-3.8781,-3.8906,-3.9132,-3.9659,-3.9685,-3.9697,-3.9697,-3.9697,-3.9697,-3.9697,-3.9697,-3.9697,-3.9697,-3.9697,-3.9697,-3.9697,-3.9697,-3.9697,-3.9697,-3.9697,-3.9697,-3.9697,-3.9697,-3.9697,-3.9697,-0.9581,-0.9528,-0.9461,-0.9229,-0.9105,-0.906,-0.9113,-0.8983,-0.8995,0.0,0.0,0.0,-0.9941,-1.0072,-0.9964,-0.9462,-0.8937,-0.8525,-0.8223,-0.7502,-0.705,-0.6931,-0.6381,-0.6098,0.0,0.0,0.0,0.0,0.0,0.0,0.0,0.0,0.0,0.0,-0.8844,-0.9036,-0.9035,-0.9998,0.0,0.0,-1.2333,-1.1783,0.0,0.0,0.0,0.0,0.0,-2.1367,-2.2275,0.0,-1.9033,-1.623,0.0,0.0,-1.134,-1.0986,-1.1201,-1.1728,-1.2661,0.0,0.0,0.0,0.0,0.0,0.0,0.0,0.0,0.0,0.0,0.0,0.0,0.0,0.0,0.0,0.0,0.0,0.0,0.0,0.0,0.0,0.0,0.0,0.0,0.0,0.0,0.0,-3.6405,-3.648,-3.6704,-3.6532,-3.6808,-3.7626,-3.8492,-3.8994,-3.9094,-3.9496,-3.9697,-3.9697,-3.9697,-3.9697,-3.9697,-3.9697,-3.9697,-3.9697,-3.9697,-3.9697,-3.9697,-3.9697,-3.9697,-3.9697,-3.9697,-3.9697,-3.9697,-3.9697,-3.9697,-3.9697,-0.9989,-0.9966,-0.9919,-0.9726,-0.9552,-0.9458,-0.9496,-0.9332,-0.9355,0.0,0.0,0.0,0.0,-1.0764,-1.0535,-0.995,-0.9494,-0.9014,-0.8434,-0.776,-0.7299,-0.7103,-0.6846,-0.6703,-0.6749,0.0,0.0,0.0,0.0,0.0,0.0,0.0,0.0,0.0,-0.8317,-0.8997,-0.9724,-0.9464,0.0,0.0,-1.4447,0.0,0.0,-1.7937,-2.1356,0.0,0.0,0.0,-2.3091,-2.3091,-2.081,0.0,0.0,-1.3848,-1.2959,-1.1872,-1.194,0.0,-1.3213,0.0,0.0,0.0,0.0,0.0,0.0,0.0,0.0,0.0,0.0,0.0,0.0,0.0,0.0,0.0,0.0,0.0,0.0,0.0,0.0,0.0,0.0,0.0,0.0,0.0,0.0,-3.6019,-3.6279,-3.6405,-3.6405,-3.6403,-3.6666,-3.7174,-3.7826,-3.8441,-3.8919,-3.9195,-3.9471,-3.9697,-3.9697,-3.9697,-3.9697,-3.9697,-3.9697,-3.9697,-3.9697,-3.9697,-3.9697,-3.9697,-3.9697,-3.9697,-3.9697,-3.9697,-3.9697,-3.9697,-3.9697,-3.9697,0.0,-1.0741,-1.0763,-1.0804,-1.0477,-1.0244,-1.0329,-1.0016,-0.9913,0.0,-1.0488,0.0,0.0,0.0,-1.1418,-1.0655,-1.0059,-0.9416,-0.8659,-0.8142,-0.7684,-0.726,-0.76,-0.7587,-0.7169,-0.7574,0.0,0.0,0.0,0.0,0.0,0.0,0.0,0.0,-0.7705,-0.8809,-1.0673,-0.9561,0.0,-1.2197,-1.6239,-1.7227,0.0,0.0,-2.3091,0.0,-2.3091,-2.3091,-2.3081,-2.2945,-2.0791,0.0,0.0,-1.5782,-1.5466,-1.3277,-1.3199,0.0,-1.4416,-1.4934,0.0,0.0,0.0,0.0,-1.9697,-1.9663,0.0,0.0,0.0,0.0,0.0,0.0,0.0,0.0,0.0,0.0,0.0,0.0,0.0,0.0,0.0,0.0,0.0,-3.5119,-3.5408,-3.5408,-3.6028,-3.6414,-3.6405,-3.6405,-3.6631,-3.7073,-3.7149,-3.7663,-3.868,-3.8856,-3.912,-3.9597,-3.9659,-3.9697,-3.9697,-3.9697,-3.9697,-3.9697,-3.9697,-3.9697,-3.9697,-3.9697,-3.9697,-3.9697,-3.9697,-3.9697,-3.9697,-3.9697,-3.9697,-3.9697,-1.1013,-1.0654,-1.0525,-1.0899,-1.0588,-1.0518,-1.122,-1.095,-1.082,-1.1271,0.0,0.0,0.0,0.0,0.0,-1.2416,-1.1318,-1.0449,-0.996,-0.8895,-0.8245,-0.8149,-0.7883,-0.7668,-0.7589,-0.7732,-0.7566,0.0,0.0,0.0,0.0,0.0,0.0,0.0,-0.8402,-0.9143,-0.9952,-1.1436,0.0,-1.4167,-1.6148,0.0,-2.1707,-2.2711,-2.3091,-2.3091,-2.3091,-2.3091,-2.2955,-2.2019,-2.0664,-1.9143,0.0,0.0,-1.8417,-1.6029,-1.7322,-1.9201,-1.7784,-1.8585,-1.9557,-1.8378,0.0,0.0,0.0,-1.8469,0.0,0.0,0.0,0.0,0.0,0.0,0.0,0.0,0.0,0.0,0.0,0.0,0.0,0.0,0.0,0.0,0.0,-3.4768,-3.4843,-3.4843,-3.581,-3.6387,-3.6392,-3.6405,-3.6455,-3.6568,-3.6948,-3.7299,-3.7513,-3.8466,-3.8931,-3.9032,-3.9484,-3.9697,-3.9697,-3.9697,-3.9697,-3.9697,-3.9697,-3.9697,-3.9697,-3.9697,-3.9697,-3.9697,-3.9697,-3.9697,-3.9697,-3.9697,-3.9697,-3.9697,-1.1742,-1.1545,-1.1451,-1.1648,-1.1721,-1.1789,-1.1876,-1.1953,-1.2346,-1.3371,0.0,0.0,0.0,0.0,0.0,0.0,-1.208,-1.118,-1.0361,-0.9706,-0.9158,-0.8727,-0.8658,-0.8651,-0.8649,-0.8944,-0.8856,-0.8352,0.0,0.0,0.0,0.0,0.0,0.0,-0.9548,-1.0366,-1.1369,0.0,-1.3064,-1.4887,-1.665,0.0,-2.3091,-2.3091,-2.3091,-2.3091,-2.3091,-2.4553,-2.6136,-2.4086,-2.264,0.0,0.0,-1.9814,-1.9996,0.0,-1.9048,-2.0949,-1.9521,-2.0059,-2.0951,-2.0794,0.0,0.0,0.0,0.0,0.0,0.0,0.0,0.0,0.0,0.0,0.0,0.0,0.0,0.0,0.0,0.0,0.0,0.0,0.0,0.0,0.0,-3.3571,-3.4123,-3.4675,-3.5403,-3.5865,-3.5859,-3.5868,-3.6018,-3.6405,-3.6681,-3.6958,-3.7186,-3.7751,-3.8366,-3.8919,-3.9145,-3.9433,-3.9697,-3.9697,-3.9697,-3.9697,-3.9697,-3.9697,-3.9697,-3.9697,-3.9697,-3.9697,-3.9697,-3.9697,-3.9697,-3.9697,-3.9697,-3.9697,-1.2551,-1.2601,-1.2636,-1.2559,-1.3004,-1.3172,-1.2615,-1.3035,-1.3962,0.0,0.0,0.0,0.0,0.0,0.0,0.0,0.0,-1.2361,0.0,-1.0782,-1.0205,-0.9404,-0.9601,-0.9735,-0.9756,-1.0252,-1.0281,-0.977,0.0,0.0,0.0,0.0,0.0,0.0,0.0,0.0,0.0,0.0,0.0,-1.5818,0.0,-1.9684,-2.2148,-2.3333,-2.3767,-2.3757,-2.393,-2.6461,-2.9359,-2.6556,0.0,-2.3527,-2.1723,-2.1655,0.0,0.0,0.0,0.0,0.0,0.0,0.0,0.0,0.0,-2.1988,0.0,0.0,0.0,-2.2912,0.0,0.0,0.0,0.0,0.0,0.0,0.0,0.0,0.0,0.0,0.0,0.0,0.0,0.0,0.0,-3.1863,-3.2817,-3.4135,-3.4324,-3.4613,-3.504,-3.5245,-3.5593,-3.6175,-3.6332,-3.6619,-3.7023,-3.7174,-3.7701,-3.8617,-3.8944,-3.927,-3.9697,-3.9697,-3.9697,-3.9697,-3.9697,-3.9697,-3.9697,-3.9697,-3.9697,-3.9697,-3.9697,-3.9697,-3.9697,-3.9697,-3.9697,-3.9697,-1.311,-1.3161,-1.3172,-1.3049,-1.3563,-1.3935,-1.3751,-1.416,-1.5075,0.0,0.0,0.0,0.0,0.0,0.0,0.0,0.0,0.0,-1.4312,0.0,-1.1222,-1.0713,-1.0381,-1.0246,-1.0322,-1.0717,-1.0766,-1.0398,0.0,0.0,0.0,0.0,-0.9862,-1.0533,-1.1923,0.0,0.0,0.0,-1.6326,0.0,-1.8365,-1.8307,0.0,-2.4095,-2.6099,-2.6182,-2.683,-2.8239,-2.9443,0.0,-2.562,-2.4493,0.0,-2.4427,-2.5425,0.0,0.0,0.0,0.0,0.0,0.0,0.0,-2.559,0.0,0.0,0.0,-2.233,-2.0639,0.0,0.0,0.0,0.0,0.0,0.0,0.0,0.0,0.0,0.0,0.0,0.0,0.0,0.0,0.0,0.0,-3.0217,-3.234,-3.1662,-3.2077,-3.4211,-3.5082,-3.5472,-3.5439,-3.6078,-3.6443,-3.6505,-3.7123,-3.7538,-3.7676,-3.8981,-3.9634,-3.9697,-3.9697,-3.9697,-3.9697,-3.9697,-3.9697,-3.9697,-3.9697,-3.9697,-3.9697,-3.9697,-3.9697,-3.9697,-3.9697,-3.9697,-3.9697,-1.3198,-1.3499,-1.3618,-1.3193,-1.4177,-1.4775,-1.4013,-1.6293,-1.8122,0.0,0.0,0.0,0.0,0.0,0.0,0.0,0.0,-1.763,0.0,0.0,0.0,-1.3347,-1.2205,-1.1752,-1.2119,-1.2271,-1.1961,-1.1207,-1.1407,0.0,0.0,0.0,-1.1856,-1.2965,-1.4733,0.0,-1.8166,0.0,0.0,0.0,0.0,0.0,0.0,-2.6045,-2.7302,-2.8462,-2.8752,-2.9287,-2.9538,0.0,-2.6948,0.0,0.0,0.0,0.0,0.0,0.0,0.0,0.0,0.0,0.0,0.0,0.0,0.0,-2.2987,0.0,-2.2644,0.0,0.0,0.0,0.0,0.0,0.0,0.0,0.0,0.0,0.0,0.0,0.0,0.0,0.0,0.0,0.0,0.0,0.0,0.0,0.0,-3.1398,-3.3458,-3.473,-3.5379,-3.5304,-3.6025,-3.6405,-3.6405,-3.6732,-3.7061,-3.7513,-3.8128,-3.8868,-3.9697,-3.9697,-3.9697,-3.9697,-3.9697,-3.9697,-3.9697,-3.9697,-3.9697,-3.9697,-3.9697,-3.9697,-3.9697,-3.9697,-3.9697,-3.9697,-1.3441,-1.379,-1.3944,-1.3457,-1.4666,-1.5443,-1.4716,-1.7553,-1.983,0.0,0.0,0.0,-2.2384,-2.263,0.0,0.0,-2.198,-2.0668,0.0,0.0,-1.658,-1.6361,-1.4438,-1.3718,-1.4449,-1.4004,-1.3291,-1.2358,-1.2527,-1.2413,0.0,0.0,-1.3401,-1.4791,0.0,-1.8944,-2.0657,0.0,0.0,-1.8409,-1.953,-2.3936,-2.9561,-2.7333,-2.7867,-2.9792,-2.9792,-2.9792,-2.9628,-2.8573,-2.8545,0.0,-2.7102,0.0,0.0,0.0,0.0,0.0,-2.7619,0.0,0.0,0.0,0.0,0.0,0.0,0.0,0.0,0.0,0.0,0.0,0.0,0.0,0.0,0.0,0.0,0.0,0.0,0.0,0.0,0.0,0.0,0.0,0.0,0.0,0.0,0.0,0.0,0.0,-3.3331,-3.4474,-3.5215,-3.5567,-3.597,-3.6207,-3.6405,-3.6405,-3.6681,-3.7199,-3.7199,-3.8065,-3.9697,-3.9697,-3.9697,-3.9697,-3.9697,-3.9697,-3.9697,-3.9697,-3.9697,-3.9697,-3.9697,-3.9697,-3.9697,-3.9697,-3.9697,-3.9697,-1.4078,-1.4091,0.0,0.0,-1.4984,-1.5848,-1.6345,-1.7155,-1.8958,0.0,0.0,0.0,0.0,0.0,0.0,0.0,0.0,-2.3962,-2.2969,0.0,-1.9441,-1.9546,-1.6997,-1.6077,0.0,-1.5708,-1.4642,-1.4016,-1.3453,-1.3173,0.0,0.0,0.0,0.0,0.0,-1.9898,-2.144,-2.1037,-2.165,-2.2531,-1.8333,-2.1942,-2.9553,0.0,-2.7872,-2.9792,-2.9792,0.0,0.0,-2.9741,-3.0444,0.0,0.0,0.0,0.0,0.0,0.0,0.0,0.0,0.0,0.0,-2.5791,0.0,0.0,0.0,0.0,-2.4575,0.0,0.0,0.0,0.0,0.0,-2.3175,-2.1094,0.0,0.0,0.0,0.0,0.0,0.0,0.0,0.0,0.0,0.0,0.0,0.0,0.0,0.0,-3.4092,-3.447,-3.5076,-3.6214,-3.5812,-3.583,-3.6405,-3.6405,-3.6417,-3.6443,-3.6443,-3.7599,-3.9697,-3.9697,-3.9697,-3.9697,-3.9697,-3.9697,-3.9697,-3.9697,-3.9697,-3.9697,-3.9697,-3.9697,-3.9697,-3.9697,-3.9697,-3.9697,0.0,0.0,0.0,0.0,0.0,-1.6763,-1.8442,-2.0136,0.0,0.0,0.0,0.0,0.0,-2.5614,-2.7335,0.0,0.0,-2.709,-2.4892,-2.3268,0.0,0.0,0.0,-1.93,0.0,-1.8487,-1.7005,-1.568,-1.5128,-1.4676,0.0,0.0,0.0,0.0,0.0,-2.1242,0.0,0.0,0.0,0.0,0.0,-2.7105,-2.9716,0.0,0.0,-2.9792,-2.9792,-2.9792,0.0,-2.9792,-3.0507,-3.1461,-3.1851,-3.1096,-3.0061,-2.9852,-3.026,0.0,0.0,0.0,-3.0922,-2.7783,0.0,0.0,0.0,0.0,0.0,0.0,0.0,0.0,0.0,0.0,-2.3145,-2.2422,-2.1694,0.0,0.0,0.0,0.0,0.0,0.0,0.0,0.0,0.0,0.0,0.0,0.0,0.0,0.0,-3.4465,-3.5102,-3.5627,-3.5547,-3.5771,-3.6405,-3.6405,-3.6405,-3.6417,-3.689,-3.8019,-3.9697,-3.9697,-3.9697,-3.9697,-3.9697,-3.9697,-3.9697,-3.9697,-3.9697,-3.9697,-3.9697,-3.9697,-3.9697,-3.9697,-3.9697,-3.9697,-1.5223,0.0,0.0,0.0,0.0,0.0,0.0,0.0,0.0,0.0,-2.6389,0.0,-2.6741,0.0,-2.8259,0.0,-3.003,-2.9209,-2.6844,-2.5882,0.0,-2.5665,-2.3368,0.0,0.0,0.0,-1.9459,-1.739,-1.6861,-1.6095,0.0,0.0,0.0,0.0,0.0,0.0,0.0,0.0,-2.7896,0.0,0.0,-2.9955,0.0,0.0,-3.0131,-3.0193,0.0,-3.062,-3.0959,-3.0959,-3.1411,-3.2114,-3.2855,-3.2579,-3.1951,-3.1725,-3.1486,-3.1323,-3.1537,-3.1901,0.0,-2.9038,-2.8549,0.0,-2.5197,0.0,0.0,0.0,0.0,0.0,0.0,0.0,0.0,-2.3471,-2.2209,-2.0665,0.0,0.0,0.0,0.0,0.0,0.0,0.0,0.0,-2.391,-2.7265,0.0,0.0,0.0,0.0,-3.462,-3.5368,-3.5288,-3.5619,-3.6405,-3.6405,-3.6405,-3.6417,-3.7149,-3.8035,-3.9107,-3.9509,-3.9697,-3.9697,-3.9697,-3.9697,-3.9697,-3.9697,-3.9697,-3.9697,-3.9697,-3.9697,-3.9697,-3.9697,-3.9697,-3.9697,0.0,0.0,0.0,0.0,-1.7689,0.0,0.0,0.0,-2.5028,0.0,-2.7281,-2.9955,-2.9955,-2.9955,-2.9955,-2.9955,-3.0595,0.0,-2.895,-2.8436,0.0,0.0,-2.5887,-2.5247,-2.5711,0.0,0.0,0.0,-1.8519,-1.7388,0.0,0.0,0.0,0.0,-1.9397,0.0,-2.3346,-2.7005,-2.9026,-2.9792,-2.9829,-3.0256,-3.0859,-3.0733,-3.0796,-3.0997,-3.1311,-3.2114,-3.3074,-3.3111,-3.3124,-3.3124,-3.3124,-3.3124,-3.3124,-3.3124,-3.2579,-3.2026,-3.2026,-3.2139,-3.1738,-2.9577,0.0,0.0,0.0,0.0,-2.8059,0.0,0.0,0.0,0.0,0.0,0.0,-2.4217,-2.305,-2.1355,0.0,0.0,0.0,0.0,0.0,0.0,0.0,0.0,-2.2175,-2.7596,-2.6432,0.0,0.0,0.0,-3.3515,-3.5347,-3.4939,-3.524,-3.6355,-3.6405,-3.6405,-3.6417,-3.7142,-3.7692,-3.8041,-3.9195,-3.9697,-3.9697,-3.9697,-3.9697,-3.9697,-3.9697,-3.9697,-3.9697,-3.9697,-3.9697,-3.9697,-3.9697,-3.9697,-3.9697,-1.6996,-1.8041,-1.9183,0.0,-1.9773,-2.0476,0.0,0.0,0.0,0.0,-3.0846,-3.2227,-3.2227,-3.2227,-3.2227,-3.2227,-3.2445,0.0,0.0,0.0,0.0,-2.9754,-2.8512,-2.7745,-2.7469,-2.5046,0.0,-2.2054,0.0,0.0,-1.7539,0.0,0.0,0.0,0.0,0.0,-2.3246,-2.546,-2.7708,-2.9829,-3.0231,-3.052,0.0,0.0,-3.1725,-3.1863,-3.1838,-3.2014,-3.2395,-3.2935,-3.3124,-3.3124,-3.3124,-3.3124,-3.3124,-3.3124,-3.2986,-3.2847,-3.2847,-3.2817,-3.2616,-3.1625,-3.0884,-3.0105,0.0,0.0,0.0,0.0,0.0,0.0,0.0,0.0,0.0,0.0,-2.2975,0.0,0.0,0.0,0.0,0.0,0.0,0.0,0.0,-2.0785,-2.2424,-2.3739,-2.5322,0.0,0.0,0.0,0.0,-3.4107,-3.4499,-3.5006,-3.5696,-3.6157,-3.6405,-3.6417,-3.7396,-3.7941,-3.8058,-3.9191,-3.9697,-3.9697,-3.9697,-3.9697,-3.9697,-3.9697,-3.9697,-3.9697,-3.9697,-3.9697,-3.9697,-3.9697,-3.9697,-3.9697,-1.8442,0.0,0.0,-2.2749,0.0,0.0,-2.4827,0.0,0.0,-2.9741,-3.1763,0.0,-3.3124,-3.3124,-3.3124,-3.3124,-3.3124,0.0,-3.111,0.0,0.0,-3.0746,-3.0269,-2.9754,-2.9214,-2.7205,0.0,-2.3484,0.0,0.0,-1.7827,0.0,0.0,0.0,0.0,-2.0613,0.0,-2.5837,-2.826,-3.0181,-3.0495,0.0,0.0,-3.1888,-3.229,-3.2579,-3.2491,-3.2466,-3.2516,-3.2973,-3.3124,-3.3124,-3.3124,-3.3124,-3.3124,-3.3124,-3.3124,-3.3124,-3.3124,-3.3124,-3.3006,-3.2667,-3.2139,-3.1486,-3.067,-3.0733,-3.0771,0.0,0.0,0.0,0.0,0.0,0.0,0.0,0.0,0.0,0.0,0.0,0.0,0.0,0.0,0.0,0.0,-2.0136,-2.1694,-2.2415,-2.4049,0.0,0.0,0.0,0.0,-3.2621,-3.3774,-3.4705,-3.5495,-3.6094,-3.6405,-3.6417,-3.7507,-3.8079,-3.8285,-3.9279,-3.9697,-3.9697,-3.9697,-3.9697,-3.9697,-3.9697,-3.9697,-3.9697,-3.9697,-4.1082,-4.2738,-4.0503,-3.9697,-3.9697,0.0,0.0,0.0,0.0,0.0,0.0,0.0,-2.777,0.0,-2.9089,0.0,-3.3048,-3.3206,-3.3269,-3.3294,-3.3294,0.0,-3.2328,-3.0557,-3.2102,-3.2546,-3.1235,-3.1461,-3.1298,-3.0593,-2.9402,-2.727,0.0,0.0,-2.0113,-1.7576,0.0,0.0,0.0,0.0,0.0,0.0,-2.7107,-2.954,0.0,-3.0771,-3.1386,-3.2227,-3.2303,-3.2641,-3.3124,-3.3124,-3.3124,-3.3124,-3.3124,-3.3124,-3.3124,-3.3124,-3.3124,-3.3124,-3.3124,-3.3124,-3.3124,-3.3124,-3.3124,-3.3124,-3.3124,-3.3124,-3.286,-3.1838,-3.1612,-3.1612,-3.1612,-3.0871,-3.0608,0.0,0.0,0.0,0.0,0.0,0.0,0.0,0.0,0.0,0.0,0.0,0.0,0.0,-1.9348,-2.0644,-2.2101,-2.2604,0.0,0.0,0.0,0.0,-3.1336,-3.3018,-3.4399,-3.5382,0.0,-3.6405,-3.6417,-3.7475,-3.8216,-3.863,-3.9358,-3.9697,-3.9697,-3.9697,-3.9697,-3.9697,-3.9697,-3.9697,-3.9788,-4.0415,-4.3409,-4.6785,-4.2315,-4.0693,-4.0605,0.0,0.0,0.0,0.0,0.0,-2.9089,-2.9189,-2.9767,-3.052,-3.1474,-3.1938,-3.2641,-3.3891,-3.4248,-3.4437,-3.4437,-3.3608,0.0,0.0,0.0,0.0,-3.2747,-3.2797,-3.2102,-3.0645,-2.9063,-2.7281,0.0,-2.2326,-2.01,-1.8682,0.0,0.0,0.0,0.0,0.0,-2.455,-2.7596,0.0,-3.0696,-3.1574,-3.2039,-3.2265,-3.2742,-3.2993,-3.3124,-3.3124,-3.3124,-3.3124,-3.3124,-3.3124,-3.3124,-3.3124,-3.3124,-3.3124,-3.3124,-3.3124,-3.3124,-3.3124,-3.3124,-3.3124,-3.3124,-3.3124,-3.3074,-3.2872,-3.278,-3.278,-3.278,-3.2629,-3.2303,-3.165,0.0,0.0,0.0,0.0,0.0,0.0,0.0,0.0,0.0,0.0,0.0,0.0,0.0,-2.0879,0.0,0.0,0.0,0.0,0.0,0.0,0.0,-3.3018,0.0,0.0,0.0,-3.6405,-3.6417,-3.7475,-3.8216,-3.863,-3.9358,-3.9697,-3.9697,-3.9697,-3.9697,-3.9697,-3.9697,-3.9697,-4.0121,-4.4303,-4.6491,-4.7207,-4.6299,-4.5973,-4.5358,0.0,0.0,0.0,0.0,0.0,0.0,0.0,-3.1825,0.0,-3.3709,-3.3068,-3.286,-3.3564,-3.4437,-3.4926,-3.4738,-3.4751,-3.4525,-3.3909,-3.4437,-3.4318,-3.3174,-3.3124,0.0,-3.1901,-3.0256,-2.8298,-2.6084,-2.3288,-2.0941,-1.897,-1.7591,0.0,0.0,0.0,-2.2585,0.0,0.0,0.0,-3.1085,-3.1888,-3.239,-3.2692,-3.2968,-3.3124,-3.3124,-3.3124,-3.3124,-3.3124,-3.3124,-3.3124,-3.3124,-3.3124,-3.3124,-3.3124,-3.3124,-3.3124,-3.3124,-3.3124,-3.3124,-3.3124,-3.3124,-3.3124,-3.3124,-3.3124,-3.3124,-3.3124,-3.3124,-3.3124,-3.2729,-3.1599,-2.9829,0.0,0.0,0.0,0.0,0.0,0.0,0.0,0.0,0.0,0.0,0.0,0.0,0.0,0.0,0.0,0.0,0.0,0.0,0.0,0.0,0.0,0.0,0.0,0.0,0.0,-3.6417,-3.7475,-3.8103,-3.8316,-3.927,-3.9697,-3.9697,-3.9697,-3.9697,-3.9697,-3.9697,-4.1269,-4.3882,-4.6344,-4.7309,-4.7309,-4.7309,-4.7309,-4.6975,0.0,-2.8448,0.0,0.0,-3.0018,0.0,-3.0997,-3.3345,-3.509,-3.514,-3.4394,-3.3815,-3.3815,-3.4846,-3.5437,-3.509,-3.5855,-3.5676,-3.3928,-3.5449,-3.5625,-3.3891,-3.3815,-3.3608,-3.3257,-3.1863,-2.9779,0.0,-2.4745,0.0,0.0,-1.8468,-1.8114,-1.8605,0.0,0.0,0.0,0.0,-3.0583,-3.1612,-3.2164,-3.2667,-3.3093,-3.3206,-3.3257,-3.3269,-3.3382,-3.3432,-3.3432,-3.3432,-3.3345,-3.3269,-3.3382,-3.3432,-3.3432,-3.3432,-3.3432,-3.3395,-3.3282,-3.3257,-3.3219,-3.3106,-3.3124,-3.3124,-3.3124,-3.3124,-3.3124,-3.3124,-3.3124,-3.2729,-3.1599,-3.0331,0.0,0.0,0.0,0.0,0.0,0.0,0.0,0.0,0.0,0.0,0.0,0.0,0.0,0.0,0.0,0.0,0.0,0.0,0.0,0.0,0.0,-3.337,-3.4361,0.0,-3.6405,-3.6417,-3.7475,-3.8002,-3.8052,-3.9182,-3.9697,-3.9697,-3.9697,-3.9697,-3.9788,-4.0882,-4.3693,-4.7309,-4.7309,-4.7309,-4.7309,-4.7309,-4.7309,-4.7309,0.0,0.0,0.0,0.0,0.0,0.0,-3.0231,-3.3551,-3.5855,-3.4901,-3.5529,-3.6103,-3.6103,-3.6216,-3.6292,-3.6254,-3.6355,-3.6317,-3.6116,-3.6292,-3.6317,-3.6116,-3.6103,-3.5399,-3.3859,-3.3181,-3.1486,0.0,0.0,-2.4217,0.0,-2.0338,-2.0388,-2.1933,0.0,0.0,0.0,-2.9804,-3.116,-3.219,-3.2767,-3.3074,-3.3131,-3.3633,-3.3822,-3.3884,-3.4387,-3.4562,-3.4562,-3.4562,-3.4236,-3.3909,-3.4412,-3.4562,-3.4562,-3.4562,-3.4562,-3.4462,-3.396,-3.3822,-3.3709,-3.3206,-3.3124,-3.3124,-3.3124,-3.3124,-3.3124,-3.3124,-3.3124,-3.2729,-3.1599,-3.126,-3.0645,0.0,0.0,0.0,0.0,0.0,0.0,0.0,0.0,0.0,0.0,0.0,0.0,0.0,0.0,0.0,0.0,0.0,0.0,-2.9716,0.0,-3.2604,-3.3219,-3.5361,-3.6405,-3.6417,-3.7475,-3.8002,-3.8052,-3.9182,-3.9697,-3.9697,-3.9697,-3.9697,-4.0083,-4.4688,-4.6873,-4.7309,-4.7309,-4.7309,-4.7309,-4.7309,-4.7309,-4.7309,0.0,0.0,0.0,0.0,0.0,0.0,0.0,-3.5273,-3.6254,-3.5768,-3.6128,-3.6405,-3.6405,-3.6405,-3.6405,-3.6405,-3.6405,-3.6405,-3.6405,-3.6405,-3.7632,-4.0419,-3.746,-3.5869,-3.6114,-3.4448,-3.2441,0.0,0.0,0.0,0.0,-2.2899,-2.3025,0.0,0.0,-2.811,-2.9716,-3.1386,-3.2528,-3.3269,-3.3834,-3.406,-3.4085,-3.4311,-3.4399,-3.4424,-3.4638,-3.468,-3.4731,-3.5056,-3.4806,-3.4437,-3.4605,-3.468,-3.468,-3.468,-3.468,-3.4675,-3.4449,-3.4399,-3.4349,-3.4123,-3.3822,-3.3571,-3.3571,-3.3319,-3.3124,-3.3124,-3.3124,-3.2943,-3.2478,-3.1599,-3.0809,0.0,0.0,0.0,0.0,0.0,0.0,0.0,0.0,0.0,0.0,0.0,0.0,0.0,0.0,-1.8757,-2.1958,0.0,0.0,-2.8662,0.0,-3.2842,-3.3124,-3.5299,-3.6405,-3.6417,-3.7475,-3.8002,-3.8052,-3.9182,-3.9697,-3.9697,-3.9697,-3.9697,-4.007,-4.5207,-4.7309,-4.7309,-4.7309,-4.7309,-4.7309,-4.7309,-4.7309,-4.7309,-3.0118,0.0,-3.2747,0.0,-3.6405,-3.6405,-3.6405,-3.6405,-3.6405,-3.6405,-3.6983,-3.7134,-3.648,-3.6405,-3.6405,-3.6405,-3.6405,-3.6405,-3.6405,-3.7678,-3.9596,-4.2167,-3.8452,0.0,-3.7731,-3.5513,-3.3608,-3.2014,-3.0595,0.0,0.0,-2.6088,-2.6276,0.0,-2.9302,-3.0683,-3.1675,-3.2993,-3.3784,-3.4173,-3.4562,-3.468,-3.4738,-3.4856,-3.4919,-3.4944,-3.514,-3.5203,-3.5265,-3.5655,-3.5529,-3.5203,-3.5203,-3.5203,-3.5203,-3.5203,-3.5203,-3.5165,-3.4956,-3.4919,-3.4881,-3.4718,-3.4424,-3.4098,-3.3935,-3.3596,-3.3269,-3.3106,-3.3124,-3.3124,-3.3124,-3.1851,-3.0922,-3.1122,0.0,0.0,0.0,0.0,0.0,0.0,-2.5536,-2.3978,-2.3212,0.0,0.0,0.0,0.0,-2.0137,-2.2573,0.0,0.0,0.0,0.0,0.0,0.0,-3.5299,-3.6493,-3.6669,-3.755,-3.809,-3.8291,-3.9258,-3.9697,-3.9697,-3.9697,-3.9697,-3.9981,-4.3598,-4.5973,-4.7309,-4.7309,-4.7309,-4.7309,-4.7309,-4.7309,-4.7309,-3.0218,-3.3338,-3.6355,-3.6405,-3.6405,-3.6405,-3.6405,-3.6405,-3.6405,-3.6405,-3.8278,-3.8818,-3.6656,-3.6405,-3.6405,-3.6405,-3.6405,-3.6405,-3.6405,-4.0675,-4.2263,0.0,0.0,-3.8487,-3.8094,-3.6368,-3.5207,-3.4675,0.0,0.0,-3.0545,-2.998,-3.0294,-3.1373,-3.2516,-3.3332,-3.3897,-3.4462,-3.4655,-3.4668,-3.468,-3.468,-3.4776,-3.5282,-3.5495,-3.5558,-3.6144,-3.6392,-3.6392,-3.6405,-3.6392,-3.6392,-3.6392,-3.6392,-3.6392,-3.6392,-3.6392,-3.6267,-3.5633,-3.5495,-3.5357,-3.4818,-3.4713,-3.4562,-3.4022,-3.3884,-3.3734,-3.3194,-3.3124,-3.3124,-3.3124,-3.2152,-3.1223,-3.0708,0.0,0.0,0.0,0.0,0.0,0.0,-2.4845,-2.3623,-2.4934,0.0,0.0,0.0,0.0,-2.376,-2.546,0.0,0.0,-2.9628,-3.1373,0.0,-3.3111,-3.5299,-3.6681,-3.7186,-3.7739,-3.8304,-3.8932,-3.9433,-3.9697,-3.9697,-3.9697,-3.9697,-3.9697,-3.9788,-4.2738,-4.7309,-4.7309,-4.7309,-4.7309,-4.7309,-4.7309,-4.7309,-3.4456,-3.5449,-3.6895,-3.8366,-3.863,-3.863,-3.863,-3.863,-3.863,-3.863,-3.9245,-3.9421,-3.8718,-3.863,-3.863,0.0,-3.7285,-3.6405,0.0,-3.7756,-4.0099,-4.3436,-4.144,-4.0182,-3.9963,-3.8179,-3.679,-3.5843,0.0,0.0,0.0,-3.2114,-3.2416,-3.3144,-3.4135,-3.4738,-3.4994,-3.5157,-3.5504,-3.5843,-3.5843,-3.5843,-3.5855,-3.6031,-3.6094,-3.6119,-3.6342,-3.6405,-3.6405,-3.6405,-3.6405,-3.6405,-3.6405,-3.6405,-3.6405,-3.6405,-3.6405,-3.6367,-3.6157,-3.6094,-3.6056,-3.5881,-3.5567,-3.5094,-3.4587,-3.3872,-3.3294,-3.3162,-3.367,-3.4191,-3.4191,-3.3767,-3.3398,-3.3223,-3.1827,0.0,0.0,0.0,0.0,0.0,-2.6954,-2.6127,0.0,-2.4728,0.0,0.0,0.0,0.0,0.0,0.0,0.0,0.0,-3.1901,0.0,-3.3633,-3.55,-3.6681,-3.7199,-3.7739,-3.8504,-3.9433,-3.9609,-3.9697,-3.9697,-3.9697,-3.9697,-3.9697,-3.9697,-4.2689,-4.7309,-4.7309,-4.7309,-4.7309,-4.7309,-4.7309,-4.7309,-3.6405,-3.7084,-3.8102,-3.9446,-3.9697,-3.9697,-3.9697,-3.9697,-3.9697,-3.9697,-3.9697,-3.9697,-3.9697,-4.1406,0.0,-4.2544,-3.9524,-3.7662,-3.7662,-3.9414,-4.2155,-4.5881,-4.3996,-4.2582,-4.187,-4.0281,0.0,-3.8037,-3.6464,-3.52,-3.4343,-3.4098,-3.4299,-3.4851,-3.5462,-3.5742,-3.5855,-3.5855,-3.6056,-3.6405,-3.6405,-3.6405,-3.6405,-3.6405,-3.6405,-3.6405,-3.6405,-3.6405,-3.6405,-3.6405,-3.6405,-3.6405,-3.6405,-3.6405,-3.6405,-3.6405,-3.6405,-3.6405,-3.6405,-3.6405,-3.6405,-3.6405,-3.6107,-3.5705,-3.5107,-3.4173,-3.35,-3.3905,-3.4376,-3.4828,-3.5197,-3.4806,-3.4402,-3.4402,-3.2917,-3.1609,-3.1254,0.0,0.0,0.0,0.0,0.0,0.0,-2.6414,0.0,0.0,0.0,0.0,0.0,0.0,0.0,-3.0066,-3.2591,0.0,-3.4512,-3.5943,-3.6996,-3.75,-3.8266,-3.9007,-3.9697,-3.9697,-3.9697,-3.9697,-3.9697,-3.9697,-3.9697,-3.9697,-4.1555,-4.4642,-4.6535,-4.7309,-4.7309,-4.7309,-4.7309,-4.7309,-3.6644,-3.8266,0.0,0.0,-3.9697,0.0,-3.9697,-3.9697,-3.9697,-3.9697,-3.9697,-3.9697,-3.9697,-4.3929,-4.6916,-4.7266,0.0,0.0,0.0,-4.4595,-4.7309,-4.7309,-4.6516,-4.5393,-4.3893,-4.2578,-4.1512,-4.0721,-3.8564,-3.7137,-3.6518,-3.5931,-3.5968,-3.6518,-3.6556,-3.6556,-3.6518,-3.6518,-3.6518,-3.6518,-3.6518,-3.6518,-3.6518,-3.6518,-3.6518,-3.6518,-3.6518,-3.6518,-3.6518,-3.6518,-3.6518,-3.6518,-3.6518,-3.6518,-3.6505,-3.643,-3.6405,-3.6405,-3.6405,-3.6405,-3.6405,-3.6405,-3.638,-3.6169,-3.5621,-3.468,-3.423,-3.5293,-3.5182,-3.5142,-3.6132,-3.537,-3.4627,-3.4627,-3.3526,-3.2393,-3.1426,0.0,0.0,0.0,0.0,0.0,0.0,-2.7682,-2.826,0.0,0.0,0.0,0.0,0.0,-2.9076,-3.2227,-3.342,-3.455,-3.5608,-3.6671,-3.7475,-3.809,-3.917,-3.9697,-3.9697,-3.9697,-3.9697,-3.9697,-3.9697,-3.9697,-3.9697,-3.9697,-3.9697,-4.0224,-4.5298,-4.7309,-4.7309,-4.7309,-4.7309,-4.7309,0.0,0.0,-3.9697,-3.9697,-3.9697,-3.9697,-3.9697,-3.9697,-3.9697,-3.9697,-3.9697,-3.9697,-3.9697,-4.0794,-4.3074,-4.6975,-4.6211,-4.4688,-4.2738,-4.5539,-4.7309,-4.7309,-4.71,-4.6806,-4.6413,-4.4284,-4.2153,-4.0128,-3.9581,-3.8696,-3.7613,-3.7224,-3.7249,-3.7626,-3.7927,-3.7902,-3.7613,-3.7613,-3.7613,-3.7613,-3.7613,-3.7613,-3.7613,-3.7613,-3.7613,-3.7613,-3.7613,-3.7613,-3.7613,-3.7613,-3.7613,-3.7613,-3.7613,-3.7613,-3.745,-3.6656,-3.6405,-3.6405,-3.6405,-3.6405,-3.6405,-3.6405,-3.6044,-3.5658,-3.552,-3.4969,-3.4698,-3.5372,-3.6071,-3.6711,-3.7313,-3.7034,-3.6687,-3.6687,-3.4987,-3.3345,-3.2393,-3.1525,0.0,0.0,-2.9654,-2.9779,-2.9641,-2.9867,-2.9854,0.0,0.0,0.0,0.0,-3.0658,-3.18,-3.3445,-3.453,-3.5633,-3.6784,-3.7061,-3.7676,-3.868,-3.9371,-3.9697,-3.9697,-3.9697,-3.9697,-3.9697,-3.9697,-3.9697,-3.9697,-3.9697,-3.9697,-4.0224,-4.5298,-4.7309,-4.7309,-4.7309,-4.7309,-4.7309,-3.9697,-3.9697,-3.9697,-3.9697,-3.9697,-3.9697,-3.9697,-3.9697,-3.9697,-3.9697,-3.9697,-4.0605,-4.293,-4.317,-4.4303,-4.7062,-4.5161,-4.421,-4.5161,-4.6535,-4.7309,-4.7309,-4.7309,-4.7309,-4.7309,-4.6002,-4.4237,-4.2035,-4.1175,-4.0072,-3.8868,-3.8095,-3.7839,-3.8015,-3.8228,-3.8203,-3.8002,-3.8002,-3.8002,-3.8002,-3.8002,-3.8002,-3.8002,-3.8002,-3.8002,-3.8002,-3.8002,-3.8002,-3.8002,-3.8002,-3.8002,-3.8002,-3.8002,-3.8002,-3.7889,-3.7287,-3.6935,-3.6782,-3.6782,-3.6606,-3.6405,-3.6405,-3.6132,-3.6045,-3.6563,-3.6264,-3.627,-3.7547,-3.7863,-3.8104,-3.8841,-3.8127,-3.7404,-3.7404,-3.5881,-3.4192,-3.2784,-3.2177,0.0,-3.0313,-3.0432,-3.0708,-3.0947,-3.1198,-3.1122,-3.057,-3.0997,0.0,-3.1298,-3.2604,-3.352,-3.3884,-3.4919,-3.6069,-3.7174,-3.7701,-3.8391,-3.9245,-3.9546,-3.9697,-3.9697,-3.9697,-3.9697,-3.9697,-3.9697,-3.9697,-3.9697,-3.9697,-3.9697,-3.9981,-4.2738,-4.5252,-4.7309,-4.7309,-4.7309,-4.7309,-4.0693,-4.0844,-4.0605,-3.9839,-3.9697,-3.9697,-3.9697,-3.9697,-3.9697,-3.9697,-4.0364,-4.2509,-4.6829,-4.7309,-4.7309,-4.7309,-4.3361,-4.2689,-4.7019,-4.7309,-4.7309,-4.7309,-4.7309,-4.7309,-4.7309,-4.7309,-4.646,-4.4744,-4.3054,-4.1543,-4.0148,-3.9041,-3.8452,-3.8266,-3.8266,-3.8266,-3.8266,-3.8266,-3.8266,-3.8266,-3.8266,-3.8266,-3.8266,-3.8266,-3.8266,-3.8266,-3.8266,-3.8266,-3.8266,-3.8266,-3.8266,-3.8266,-3.8266,-3.8266,-3.8266,-3.8266,-3.7877,-3.7425,-3.7337,-3.6958,-3.6531,-3.6531,-3.6468,-3.6709,-3.7848,-3.7738,-3.8034,-4.016,-3.9787,-3.932,-4.0241,-3.8841,-3.7524,-3.7419,-3.6342,-3.4887,-3.3066,0.0,-3.2432,-3.0993,-3.1048,-3.135,-3.1641,-3.2139,-3.2303,-3.1926,-3.2704,-3.3244,-3.3319,-3.4299,-3.4753,-3.4572,-3.5514,-3.659,-3.7739,-3.8567,-3.9233,-3.9697,-3.9697,-3.9697,-3.9697,-3.9697,-3.9697,-3.9697,-3.9697,-3.9697,-3.9697,-3.9697,-3.9697,-3.9788,-4.0554,-4.3504,-4.7309,-4.7309,-4.7309,-4.7309,-4.5252,-4.6107,-4.478,-4.0453,-3.9697,-3.9697,-3.9697,-3.9697,-3.9697,-3.9697,-4.3456,-4.6403,-4.7207,-4.7309,-4.7309,-4.7309,-4.6594,-4.6447,-4.7251,-4.7309,-4.7309,-4.7309,-4.7309,-4.7309,-4.7309,-4.7309,-4.6638,-4.5304,-4.4963,-4.365,-4.1327,-4.113,-4.0472,-3.9433,-3.9433,-3.9433,-3.9433,-3.9433,-3.9433,-3.9433,-3.9433,-3.9433,-3.9433,-3.9433,-3.9433,-3.9433,-3.9433,-3.9433,-3.9433,-3.9433,-3.9433,-3.9433,-3.9433,-3.9433,-3.9433,-3.9433,-3.9044,-3.8504,-3.8015,-3.7475,-3.7109,-3.7109,-3.6757,-3.6709,-3.7848,-3.8041,-3.8487,-4.0245,-4.0452,-4.0325,-4.0405,-3.9215,-3.8063,-3.7494,-3.6342,-3.51,-3.3945,0.0,-3.39,-3.2,-3.3131,-3.3744,-3.2932,-3.3319,-3.3796,-3.4173,-3.3935,-3.3972,-3.4449,-3.5019,-3.606,-3.7564,-3.8221,-3.9094,-4.0228,-3.9816,-3.9609,-3.9697,-3.9697,-3.9697,-3.9697,-3.9697,-3.9697,-3.9697,-3.9697,-3.9697,-3.9697,-3.9697,-3.9697,-4.0121,-4.4442,-4.6594,-4.7309,-4.7309,-4.7309,-4.7309,-4.2738,-4.5403,-4.5689,-4.0605,-3.9697,-4.0655,-4.3361,-4.3787,-4.3787,-4.3787,-4.5824,-4.7309,-4.7309,-4.7309,-4.7309,-4.7309,-4.7309,-4.7309,-4.7309,-4.7309,-4.7309,-4.7309,-4.7309,-4.7309,-4.7309,-4.7309,-4.7019,-4.6403,-4.5734,-4.478,-4.3646,-4.2217,-4.1269,-4.0693,-4.0032,-3.9697,-3.9697,-3.9697,-3.9697,-3.9697,-3.9697,-3.9697,-3.9697,-3.9697,-3.9697,-3.9697,-3.9697,-3.9697,-3.9697,-3.9697,-3.9697,-3.9697,-3.9697,-3.9697,-3.9697,-3.9697,-3.9308,-3.8793,-3.8165,-3.7814,-3.7626,-3.7626,-3.7703,-3.8041,-3.9239,-3.9727,-4.0377,-4.1773,-4.1787,-4.1534,-4.1488,-4.0083,-3.896,-3.902,-3.7345,0.0,0.0,-3.5581,-3.5244,-3.444,-3.4861,-3.5118,-3.4947,-3.4571,-3.4449,-3.4655,-3.4487,-3.4587,-3.5094,-3.6332,-3.7807,-3.9617,-4.0526,-4.0972,-4.0782,-4.0746,-4.0364,-3.9697,-3.9697,-3.9697,-3.9697,-3.9697,-3.9697,-3.9697,-3.9697,-3.9697,-3.9697,-3.9697,-3.9697,-4.0224,-4.5298,-4.7309,-4.7309,-4.7309,-4.7309,-4.7309,-4.1369,-4.4642,-4.6062,-4.2168,-4.1455,-4.2786,-4.6682,-4.7309,-4.7309,-4.7309,-4.7309,-4.7309,-4.7309,-4.7309,-4.7309,-4.7309,-4.7309,-4.7309,-4.7309,-4.7309,-4.7309,-4.7309,-4.7309,-4.7309,-4.7309,-4.7309,-4.7309,-4.7309,-4.6299,-4.5689,-4.5358,-4.3409,-4.2168,-4.1555,-4.0605,-3.9981,-3.9697,-3.9697,-3.9697,-3.9697,-3.9697,-3.9697,-3.9697,-3.9697,-3.9697,-3.9697,-3.9697,-3.9697,-3.9697,-3.9697,-3.9697,-3.9697,-3.9697,-3.9697,-3.9697,-3.9697,-3.9396,-3.8969,-3.8517,-3.8304,-3.8302,-3.8574,-3.8877,-3.9535,-4.1021,-4.1596,-4.2165,-4.3299,-4.3045,-4.259,-4.2425,-4.0995,-3.9993,-4.0337,0.0,0.0,0.0,-3.7259,-3.7024,-3.6978,-3.6607,-3.6447,-3.6667,-3.5699,-3.5102,-3.5102,-3.5102,-3.5478,-3.6286,-3.7717,-3.9474,-4.1602,-4.2611,-4.2582,-4.1451,-4.1514,-4.0982,-3.9697,-3.9697,-3.9697,-3.9697,-3.9697,-3.9697,-3.9697,-3.9697,-3.9697,-3.9697,-3.9697,-3.9697,-4.0224,-4.5298,-4.7309,-4.7309,-4.7309,-4.7309,-4.7309,-4.6299,-4.7019,-4.7164,-4.6829,-4.6726,-4.6873,-4.7251,-4.7309,-4.7309,-4.7309,-4.7309,-4.7309,-4.7309,-4.7309,-4.7309,-4.7309,-4.7309,-4.7309,-4.7309,-4.7309,-4.7309,-4.7309,-4.7309,-4.7309,-4.7309,-4.7309,-4.7309,-4.7309,-4.7207,-4.655,-4.5403,-4.5207,-4.3882,-4.1604,-4.1505,-4.0794,-3.9697,-3.9697,-3.9697,-3.9697,-3.9697,-3.9697,-3.9697,-3.9697,-3.9697,-3.9697,-3.9697,-3.9697,-3.9697,-3.9697,-3.9697,-3.9697,-3.9697,-3.9697,-3.9697,-3.9697,-3.9672,-3.9622,-3.9584,-3.9195,-3.9132,-4.0305,-4.0219,-4.0461,-4.2847,-4.2941,-4.286,-4.3983,-4.3678,-4.3075,-4.2515,-4.1782,-4.1055,-4.0487,0.0,0.0,-3.9211,-3.9704,-3.9728,-3.8731,-3.864,-3.8281,-3.7303,-3.668,-3.6279,-3.6279,-3.6279,-3.7011,-3.8727,-3.8978,-4.065,-4.4235,-4.4276,-4.3944,-4.3292,-4.2155,-4.0982,-3.9697,-3.9697,-3.9697,-3.9697,-3.9697,-3.9697,-3.9697,-3.9697,-3.9697,-3.9697,-3.9697,-3.9697,-4.0224,-4.5298,-4.7309,-4.7309,-4.7309,-4.7309,-4.7309,-4.7121,-4.7309,-4.7309,-4.7309,-4.7309,-4.7309,-4.7309,-4.7309,-4.7309,-4.7309,-4.7309,-4.7309,-4.7309,-4.7309,-4.7309,-4.7309,-4.7309,-4.7309,-4.7309,-4.7309,-4.7309,-4.7309,-4.7309,-4.7309,-4.7309,-4.7309,-4.7309,-4.7309,-4.7309,-4.7062,-4.655,-4.5779,-4.4456,-4.2738,-4.1936,-4.0882,-3.9697,-3.9697,-3.9697,-3.9697,-3.9697,-3.9697,-3.9697,-3.9697,-3.9697,-3.9697,-3.9697,-3.9697,-3.9697,-3.9697,-3.9697,-3.9697,-3.9697,-3.9697,-3.9697,-3.9697,-3.9697,-3.9697,-3.9697,-3.9534,-3.9715,-4.0992,-4.1392,-4.1969,-4.3679,-4.418,-4.4388,-4.4833,-4.4721,-4.4347,-4.3688,-4.303,-4.2506,-4.2252,0.0,-4.0307,-4.113,-4.1115,-4.0751,-4.0007,-4.0326,-3.9856,-3.8002,-3.7593,-3.7461,-3.7461,-3.7818,-3.8695,-4.0069,-4.1654,-4.3663,-4.6196,-4.6225,-4.5725,-4.4688,-4.3409,-4.2119,-4.0882,-4.007,-3.9697,-3.9697,-3.9697,-4.0121,-4.0882,-4.0882,-4.1032,-4.1169,-4.0121,-3.9697,-4.0224,-4.5298,-4.7309,-4.7309,-4.7309,-4.7309,-4.7309,-4.7309,-4.7309,-4.7309,-4.7309,-4.7309,-4.7309,-4.7309,-4.7309,-4.7309,-4.7309,-4.7309,-4.7309,-4.7309,-4.7309,-4.7309,-4.7309,-4.7309,-4.7309,-4.7309,-4.7309,-4.7309,-4.7309,-4.7309,-4.7309,-4.7309,-4.7309,-4.7309,-4.7309,-4.7309,-4.7309,-4.7266,-4.6403,-4.5115,-4.3456,-4.2593,-4.1269,-3.9697,-3.9697,-3.9697,-3.9697,-3.9697,-3.9697,-3.9697,-3.9697,-3.9697,-3.9697,-3.9697,-3.9981,-4.0313,-4.0313,-4.0554,-4.0882,-4.0882,-4.0605,-4.0313,-4.0313,-4.0313,-4.0364,-4.0794,-4.0882,-4.1082,-4.1985,-4.2807,-4.3716,-4.5037,-4.5457,-4.5618,-4.5618,-4.5454,-4.5155,-4.4706,-4.4257,-4.3943,-4.3943,-4.2641,-4.1938,-4.289,-4.2402,-4.1861,-4.1492,-4.1548,-4.0986,-3.9376,-3.9065,-3.8948,-3.8948,-3.9575,-4.0541,-4.1903,-4.4165,-4.6035,-4.7236,-4.7309,-4.6873,-4.6018,-4.4734,-4.3266,-4.1604,-4.0693,-4.0313,-4.0313,-4.0313,-4.0982,-4.2168,-4.1936,-4.1936,-4.207,-4.0415,-3.9697,-4.0224,-4.5298,-4.7309,-4.7309,-4.7309,-4.7309,-4.7309,-4.7309,-4.7309,-4.7309,-4.7309,-4.7309,-4.7309,-4.7309,-4.7309,-4.7309,-4.7309,-4.7309,-4.7309,-4.7309,-4.7309,-4.7309,-4.7309,-4.7309,-4.7309,-4.7309,-4.7309,-4.7309,-4.7309,-4.7309,-4.7309,-4.7309,-4.7309,-4.7309,-4.7309,-4.7309,-4.7309,-4.7309,-4.7309,-4.5928,-4.3504,-4.3504,-4.207,-3.9697,-3.9697,-3.9697,-3.9697,-3.9697,-3.9697,-3.9697,-3.9697,-3.9697,-3.9697,-3.9697,-4.0554,-4.1604,-4.1604,-4.2461,-4.3504,-4.3504,-4.2641,-4.1604,-4.1604,-4.1604,-4.1887,-4.317,-4.3504,-4.3504,-4.3504,-4.4456,-4.5734,-4.7019,-4.68,-4.6294,-4.6294,-4.5783,-4.5304,-4.5304,-4.5304,-4.5304,-4.5289,-4.4751,-4.4332,-4.4332,-4.3723,-4.3305,-4.3305,-4.2304,-4.1601,-4.1601,-4.1109,-4.08,-4.08,-4.1456,-4.2669,-4.4527,-4.6328,-4.7309,-4.7309,-4.7309,-4.7309,-4.7309,-4.6018,-4.4116,-4.1604,-4.1604,-4.1604,-4.1604,-4.1604,-4.2315,-4.3456,-4.2593,-4.2217,-4.2119,-4.0453,-3.9736,-4.0262,-4.5358,-4.7309,-4.7309,-4.7309,-4.7309,-4.7309,-4.7309,-4.7309,-4.7309,-4.7309,-4.7309,-4.7309,-4.7309,-4.7309,-4.7309,-4.7309,-4.7309,-4.7309,-4.7309,-4.7309,-4.7309,-4.7309,-4.7309,-4.7309,-4.7309,-4.7309,-4.7309,-4.7309,-4.7309,-4.7309,-4.7309,-4.7309,-4.7309,-4.7309,-4.7309,-4.7309,-4.7309,-4.7309,-4.5928,-4.3504,-4.3504,-4.207,-3.9697,-3.9697,-3.9697,-3.9697,-3.9697,-3.9697,-3.9697,-3.9697,-3.9697,-3.9839,-4.0693,-4.1269,-4.1739,-4.2641,-4.317,-4.3504,-4.3504,-4.3266,-4.293,-4.293,-4.293,-4.3026,-4.3409,-4.4163,-4.4826,-4.4826,-4.5115,-4.5734,-4.7019,-4.716,-4.701,-4.701,-4.6845,-4.6561,-4.6097,-4.6022,-4.5858,-4.5379,-4.5125,-4.5005,-4.5005,-4.4825,-4.4403,-4.3622,-4.3917,-4.3536,-4.1928,-4.2375,-4.2765,-4.2765,-4.4124,-4.5418,-4.6459,-4.7016,-4.7309,-4.7309,-4.7309,-4.7309,-4.7309,-4.5161,-4.3693,-4.293,-4.2035,-4.1604,-4.1654,-4.2558,-4.3456,-4.4396,-4.4116,-4.4688,-4.5734,-4.5252,-4.5024,-4.5161,-4.6726,-4.7309,-4.7309,-4.7309,-4.7309,-4.7309,-4.7309,-4.7309,-4.7309,-4.7309,-4.7309,-4.7309,-4.7309,-4.7309,-4.7309,-4.7309,-4.7309,-4.7309,-4.7309,-4.7309,-4.7309,-4.7309,-4.7309,-4.7309,-4.7309,-4.7309,-4.7309,-4.7309,-4.7309,-4.7309,-4.7309,-4.7309,-4.7309,-4.7309,-4.7309,-4.7309,-4.7309,-4.7309,-4.6211,-4.4256,-4.4256,-4.3122,-4.1219,-4.1219,-4.1219,-4.1219,-4.1219,-4.1219,-4.1169,-4.0655,-4.0743,-4.1219,-4.1505,-4.2266,-4.3218,-4.3975,-4.4595,-4.4918,-4.4396,-4.4256,-4.4256,-4.4256,-4.4256,-4.4349,-4.4872,-4.5584,-4.6166,-4.6166,-4.6166,-4.6344,-4.7121,-4.7309,-4.7309,-4.7309,-4.7309,-4.7189,-4.6785,-4.6711,-4.6576,-4.6157,-4.5873,-4.5708,-4.5708,-4.5469,-4.5025,-4.4363,-4.4899,-4.4744,-4.3328,-4.4095,-4.4776,-4.5025,-4.6071,-4.689,-4.7279,-4.7309,-4.7309,-4.7309,-4.7309,-4.7309,-4.7309,-4.5252,-4.4256,-4.4256,-4.3456,-4.3122,-4.3122,-4.3882,-4.4826,-4.5779,-4.5779,-4.6358,-4.7309,-4.7309,-4.7309,-4.7309,-4.7309,-4.7309,-4.7309,-4.7309,-4.7309,-4.7309,-4.7309,-4.7309,-4.7309,-4.7309,-4.7309,-4.7309,-4.7309,-4.7309,-4.7309,-4.7309,-4.7309,-4.7309,-4.7309,-4.7309,-4.7309,-4.7309,-4.7309,-4.7309,-4.7309,-4.7309,-4.7309,-4.7309,-4.7309,-4.7309,-4.7309,-4.7309,-4.7309,-4.7309,-4.7309,-4.7309,-4.7309,-4.7309,-4.6638,-4.5403,-4.5403,-4.4688,-4.3504,-4.3504,-4.3504,-4.3504,-4.3504,-4.3504,-4.3361,-4.2217,-4.2509,-4.3361,-4.2315,-4.3456,-4.5403,-4.5539,-4.6344,-4.7121,-4.5928,-4.5494,-4.5403,-4.5403,-4.5403,-4.5644,-4.6829,-4.7207,-4.7309,-4.7309,-4.7309,-4.7309,-4.7309,-4.7309,-4.7309,-4.7309,-4.7309,-4.7309,-4.7309,-4.7309,-4.7309,-4.7309,-4.68,-4.6369,-4.6369,-4.5873,-4.5469,-4.5469,-4.5469,-4.5469,-4.5469,-4.6037,-4.6651,-4.7249,-4.7309,-4.7309,-4.7309,-4.7309,-4.7309,-4.7309,-4.7309,-4.7309,-4.7309,-4.6166,-4.5494,-4.5403,-4.5403,-4.5403,-4.5403,-4.5539,-4.6211,-4.7309,-4.7309,-4.7309,-4.7309,-4.7309,-4.7309,-4.7309,-4.7309,-4.7309,-4.7309,-4.7309,-4.7309,-4.7309,-4.7309,-4.7309,-4.7309,-4.7309,-4.7309,-4.7309,-4.7309,-4.7309,-4.7309,-4.7309,-4.7309,-4.7309,-4.7309,-4.7309,-4.7309,-4.7309,-4.7309,-4.7309,-4.7309,-4.7309,-4.7309,-4.7309,-4.7309,-4.7309,-4.7309,-4.7309,-4.7309,-4.7309,-4.7309,-4.7309,-4.7309,-4.7309,-4.6638,-4.5403,-4.5403,-4.4688,-4.3504,-4.3504,-4.3504,-4.3504,-4.3504,-4.3504,-4.3456,-4.317,-4.3266,-4.3598,-4.4303,-4.4918,-4.5539,-4.6535,-4.7062,-4.7251,-4.6975,-4.6211,-4.5403,-4.5403,-4.5403,-4.5448,-4.5734,-4.6535,-4.7309,-4.7309,-4.7309,-4.7309,-4.7309,-4.7309,-4.7309,-4.7309,-4.7309,-4.7309,-4.7309,-4.7309,-4.7309,-4.7309,-4.7189,-4.71,-4.71,-4.6965,-4.6875,-4.6875,-4.6875,-4.6875,-4.6875,-4.701,-4.7145,-4.7294,-4.7309,-4.7309,-4.7309,-4.7309,-4.7309,-4.7309,-4.7309,-4.7309,-4.7309,-4.7019,-4.6403,-4.5403,-4.5403,-4.5403,-4.5448,-4.6447,-4.7019,-4.7309,-4.7309,-4.7309,-4.7309,-4.7309,-4.7309,-4.7309,-4.7309,-4.7309,-4.7309,-4.7309,-4.7309,-4.7309,-4.7309,-4.7309,-4.7309,-4.7309,-4.7309,-4.7309,-4.7309,-4.7309,-4.7309,-4.7309,-4.7309,-4.7309,-4.7309,-4.7309,-4.7309,-4.7309,-4.7309,-4.7309,-4.7309,-4.7309,-4.7309,-4.7309,-4.7309,-4.7309,-4.7309,-4.7309,-4.7309,-4.7309,-4.7309,-4.7309,-4.7309,-4.7309,-4.6931,-4.6299,-4.6299,-4.5928,-4.5298,-4.5298,-4.5298,-4.5298,-4.5298,-4.5298,-4.5252,-4.4642,-4.478,-4.5298,-4.5403,-4.5779,-4.6403,-4.7062,-4.7309,-4.7309,-4.7309,-4.6447,-4.5403,-4.5403,-4.4978,-4.4642,-4.5207,-4.5869,-4.6535,-4.7164,-4.7309,-4.7309,-4.7309,-4.7309,-4.7309,-4.7309,-4.7309,-4.7309,-4.7309,-4.7309,-4.7309,-4.7309,-4.7309,-4.7309,-4.7309,-4.7309,-4.7309,-4.7309,-4.7309,-4.7309,-4.7309,-4.7309,-4.7309,-4.7309,-4.7309,-4.7309,-4.7309,-4.7309,-4.7309,-4.7309,-4.7309,-4.7309,-4.7309,-4.7309,-4.6975,-4.6299,-4.6299,-4.6299,-4.6344,-4.7019,-4.7309,-4.7309,-4.7309,-4.7309,-4.7309,-4.7309,-4.7309,-4.7309,-4.7309,-4.7309,-4.7309,-4.7309,-4.7309,-4.7309,-4.7309,-4.7309,-4.7309,-4.7309,-4.7309,-4.7309,-4.7309,-4.7309,-4.7309,-4.7309,-4.7309,-4.7309,-4.7309,-4.7309,-4.7309,-4.7309,-4.7309,-4.7309,-4.7309,-4.7309,-4.7309,-4.7309,-4.7309,-4.7309,-4.7309,-4.7309,-4.7309,-4.7309,-4.7309,-4.7309,-4.7309,-4.7309,-4.7309,-4.7309,-4.7309,-4.7309,-4.7309,-4.7309,-4.7309,-4.7309,-4.7309,-4.7309,-4.7164,-4.6107,-4.6403,-4.7164,-4.6107,-4.6403,-4.7309,-4.7309,-4.7309,-4.7251,-4.7019,-4.6107,-4.5024,-4.4826,-4.4163,-4.374,-4.478,-4.5403,-4.5973,-4.7019,-4.7309,-4.7309,-4.7309,-4.7309,-4.7309,-4.7309,-4.7309,-4.7309,-4.7309,-4.7309,-4.7309,-4.7309,-4.7309,-4.7309,-4.7309,-4.7309,-4.7309,-4.7309,-4.7309,-4.7309,-4.7309,-4.7309,-4.7309,-4.7309,-4.7309,-4.7309,-4.7309,-4.7309,-4.7309,-4.7309,-4.7309,-4.7309,-4.7309,-4.7309,-4.7309,-4.7309,-4.7309,-4.7309,-4.7309,-4.7309,-4.7309,-4.7309,-4.7309,-4.7309,-4.7309,-4.7309,-4.7309,-4.7309,-4.7309,-4.7309,-4.7309,-4.7309,-4.7309,-4.7309,-4.7309,-4.7309,-4.7309,-4.7309,-4.7309,-4.7309,-4.7309,-4.7309,-4.7309,-4.7309,-4.7309,-4.7309,-4.7309,-4.7309,-4.7309,-4.7309,-4.7309,-4.7309,-4.7309,-4.7309,-4.7309,-4.7309,-4.7309,-4.7309,-4.7309,-4.7309,-4.7309,-4.7309,-4.7309,-4.7309,-4.7309,-4.7309,-4.7309,-4.7309,-4.7309,-4.7309,-4.7309,-4.7309,-4.7309,-4.7309,-4.7309,-4.7309,-4.7266,-4.7121,-4.7164,-4.7266,-4.7121,-4.7164,-4.7309,-4.7309,-4.7309,-4.7121,-4.6018,-4.478,-4.3551,-4.2461,-4.2786,-4.3551,-4.3693,-4.5358,-4.7062,-4.7251,-4.7309,-4.7309,-4.7309,-4.7309,-4.7309,-4.7309,-4.7309,-4.7309,-4.7309,-4.7309,-4.7309,-4.7309,-4.7309,-4.7309,-4.7309,-4.7309,-4.7309,-4.7309,-4.7309,-4.7309,-4.7309,-4.7309,-4.7309,-4.7309,-4.7309,-4.7309,-4.7309,-4.7309,-4.7309,-4.7309,-4.7309,-4.7309,-4.7309,-4.7309,-4.7309,-4.7309,-4.7309,-4.7309,-4.7309,-4.7309,-4.7309,-4.7309,-4.7309,-4.7309,-4.7309,-4.7309,-4.7309,-4.7309,-4.7309,-4.7309,-4.7309,-4.7309,-4.7309,-4.7309,-4.7309,-4.7309,-4.7309,-4.7309,-4.7309,-4.7309,-4.7309,-4.7309,-4.7309,-4.7309,-4.7309,-4.7309,-4.7309,-4.7309,-4.7309,-4.7309,-4.7309,-4.7309,-4.7309,-4.7309,-4.7309,-4.7309,-4.7309,-4.7309,-4.7309,-4.7309,-4.7309,-4.7309,-4.7309,-4.7309,-4.7309,-4.7309,-4.7309,-4.7309,-4.7309,-4.7309,-4.7309,-4.7309,-4.7309,-4.7309,-4.7309,-4.7309,-4.7309,-4.7309,-4.7309,-4.7309,-4.7309,-4.7309,-4.7309,-4.7309,-4.7309,-4.7207,-4.6638,-4.5584,-4.4442,-4.3882,-4.3646,-4.3646,-4.4349,-4.5403,-4.6403,-4.7121,-4.7309,-4.7309,-4.7309,-4.7309,-4.7309,-4.7309,-4.7309,-4.7309,-4.7309,-4.7309,-4.7309,-4.7309,-4.7309,-4.7309,-4.7309,-4.7309,-4.7309,-4.7309,-4.7309,-4.7309,-4.7309,-4.7309,-4.7309,-4.7309,-4.7309,-4.7309,-4.7309,-4.7309,-4.7309,-4.7309,-4.7309,-4.7309,-4.7309,-4.7309,-4.7309,-4.7309,-4.7309,-4.7309,-4.7309,-4.7309,-4.7309,-4.7309,-4.7309,-4.7309,-4.7309,-4.7309,-4.7309,-4.7309,-4.7309,-4.7309,-4.7309,-4.7309,-4.7309,-4.7309]},{"header":{"parameterUnit":"m.s-1","parameterCategory":1,"la1":30.6,"la2":28.766,"lo1":-90.7593,"lo2":-88.6598,"dy":0.0162,"dx":0.0183,"nx":116,"ny":114,"refTime":"2024-06-28T06:00:00:Z","depth":0,"parameterNumber":3,"parameterNumberName":"V-component_of_WINDS"},"data":[0.0,0.0,0.0,0.0,0.0,0.0,0.0,0.0,0.0,0.0,0.0,0.0,0.0,0.0,0.0,0.0,0.0,0.0,0.0,0.0,0.0,0.0,0.0,0.0,0.0,0.0,0.0,0.0,0.0,0.0,0.0,0.0,0.0,0.0,0.0,0.0,0.0,0.0,0.0,0.0,0.0,0.0,0.0,0.0,0.0,0.0,0.0,0.0,0.0,0.0,0.0,0.0,0.0,0.0,0.0,0.0,0.0,0.0,0.0,0.0,0.0,0.0,0.0,0.0,0.0,0.0,0.0,0.0,0.0,0.0,0.0,0.0,0.0,0.0,0.0,0.0,0.0,0.0,0.0,0.0,0.0,0.0,0.0,0.0,0.0,0.0,0.0,0.0,0.0,0.0,0.0,0.0,0.0,0.0,0.0,0.0,0.0,0.0,0.0,0.0,0.0,0.0,0.0,0.0,0.0,0.0,0.0,0.0,0.0,0.0,0.0,0.0,0.0,0.0,0.0,0.0,0.0,0.0,0.0,0.0,0.0,0.0,0.0,0.0,0.0,0.0,0.0,0.0,0.0,0.0,0.0,0.0,0.0,0.0,0.0,0.0,0.0,0.0,0.0,0.0,0.0,0.0,0.0,0.0,0.0,0.0,0.0,0.0,0.0,0.0,0.0,0.0,0.0,0.0,0.0,0.0,0.0,0.0,0.0,0.0,0.0,0.0,0.0,0.0,0.0,0.0,0.0,0.0,0.0,0.0,0.0,0.0,0.0,0.0,0.0,0.0,0.0,0.0,0.0,0.0,0.0,0.0,0.0,0.0,0.0,0.0,0.0,0.0,0.0,0.0,0.0,0.0,0.0,0.0,0.0,0.0,0.0,0.0,0.0,0.0,0.0,0.0,0.0,0.0,0.0,0.0,0.0,0.0,0.0,0.0,0.0,0.0,0.0,0.0,0.0,0.0,0.0,0.0,0.0,0.0,0.0,0.0,0.0,0.0,0.0,0.0,0.0,0.0,0.0,0.0,0.0,0.0,0.0,0.0,0.0,0.0,0.0,0.0,0.0,0.0,0.0,0.0,0.0,0.0,0.0,0.0,0.0,0.0,0.0,0.0,0.0,0.0,0.0,0.0,0.0,0.0,0.0,0.0,0.0,0.0,0.0,0.0,0.0,0.0,0.0,0.0,0.0,0.0,0.0,0.0,0.0,0.0,0.0,0.0,0.0,0.0,0.0,0.0,0.0,0.0,0.0,0.0,0.0,0.0,0.0,0.0,0.0,0.0,0.0,0.0,0.0,0.0,0.0,0.0,0.0,0.0,0.0,0.0,0.0,0.0,0.0,0.0,0.0,0.0,0.0,0.0,0.0,0.0,0.0,0.0,0.0,0.0,0.0,0.0,0.0,0.0,0.0,0.0,0.0,0.0,0.0,0.0,0.0,0.0,0.0,0.0,0.0,0.0,0.0,0.0,0.0,0.0,0.0,0.0,0.0,0.0,0.0,0.0,0.0,0.0,0.0,0.0,0.0,0.0,0.0,0.0,0.0,0.0,0.0,0.0,0.0,0.0,0.0,0.0,0.0,0.0,0.0,0.0,0.0,0.0,0.0,0.0,0.0,0.0,0.0,0.0,0.0,0.0,0.0,0.0,0.0,0.0,0.0,0.0,0.0,0.0,0.0,0.0,0.0,0.0,0.0,0.0,0.0,0.0,0.0,0.0,0.0,0.0,0.0,0.0,0.0,0.0,0.0,0.0,0.0,0.0,0.0,0.0,0.0,0.0,0.0,0.0,0.0,0.0,0.0,0.0,0.0,0.0,0.0,0.0,0.0,0.0,0.0,0.0,0.0,0.0,0.0,0.0,0.0,0.0,0.0,0.0,0.0,0.0,0.0,0.0,0.0,0.0,0.0,0.0,0.0,0.0,0.0,0.0,0.0,0.0,0.0,0.0,0.0,0.0,0.0,0.0,0.0,0.0,0.0,0.0,0.0,0.0,0.0,0.0,0.0,0.0,0.0,0.0,0.0,0.0,0.0,0.0,0.0,0.0,0.0,0.0,0.0,0.0,0.0,0.0,0.0,0.0,0.0,0.0,0.0,0.0,0.0,0.0,0.0,0.0,0.0,0.0,0.0,0.0,0.0,0.0,0.0,0.0,0.0,0.0,0.0,0.0,0.0,0.0,0.0,0.0,0.0,0.0,0.0,0.0,0.0,0.0,0.0,0.0,0.0,0.0,0.0,0.0,0.0,0.0,0.0,0.0,0.0,0.0,0.0,0.0,0.0,0.0,0.0,0.0,0.0,0.0,0.0,0.0,0.0,0.0,0.0,0.0,0.0,0.0,0.0,0.0,0.0,0.0,0.0,0.0,0.0,0.0,0.0,0.0,0.0,0.0,0.0,0.0,0.0,0.0,0.0,0.0,0.0,0.0,0.0,0.0,0.0,0.0,0.0,0.0,0.0,0.0,0.0,0.0,0.0,0.0,0.0,0.0,0.0,0.0,0.0,0.0,0.0,0.0,0.0,0.0,0.0,0.0,0.0,0.0,0.0,0.0,0.0,0.0,0.0,0.0,0.0,0.0,0.0,0.0,0.0,0.0,0.0,0.0,0.0,0.0,0.0,0.0,0.0,0.0,0.0,0.0,0.0,0.0,0.0,0.0,0.0,0.0,0.0,0.0,0.0,0.0,0.0,0.0,0.0,0.0,0.0,0.0,0.0,0.0,0.0,0.0,0.0,0.0,0.0,0.0,0.0,0.0,0.0,0.0,0.0,0.0,0.0,0.0,0.0,0.0,0.0,0.0,0.0,0.0,0.0,0.0,0.0,0.0,0.0,0.0,0.0,0.0,0.0,0.0,0.0,0.0,0.0,0.0,0.0,0.0,0.0,0.0,0.0,0.0,0.0,0.0,0.0,0.0,0.0,0.0,0.0,0.0,0.0,0.0,0.0,0.0,0.0,0.0,0.0,0.0,0.0,0.0,0.0,0.0,0.0,0.0,0.0,0.0,0.0,0.0,0.0,0.0,0.0,0.0,0.0,0.0,0.0,0.0,0.0,0.0,0.0,0.0,0.0,0.0,0.0,0.0,0.0,0.0,0.0,0.0,0.0,0.0,0.0,0.0,0.0,0.0,0.0,0.0,0.0,0.0,0.0,0.0,0.0,0.0,0.0,0.0,0.0,0.0,0.0,0.0,0.0,0.0,0.0,0.0,0.0,0.0,0.0,0.0,0.0,0.0,0.0,0.0,0.0,0.0,0.0,0.0,0.0,0.0,0.0,0.0,0.0,0.0,0.0,0.0,0.0,0.0,0.0,0.0,0.0,0.0,0.0,0.0,0.0,0.0,0.0,0.0,0.0,0.0,0.0,0.0,0.0,0.0,0.0,0.0,0.0,0.0,0.0,0.0,0.0,0.0,0.0,0.0,0.0,0.0,0.0,0.0,0.0,0.0,0.0,0.0,0.0,0.0,0.0,0.0,0.0,0.0,0.0,0.0,0.0,0.0,0.0,0.0,0.0,0.0,0.0,0.0,0.0,0.0,0.0,0.0,0.0,0.0,0.0,0.0,0.0,0.0,0.0,0.0,0.0,0.0,0.0,0.0,0.0,0.0,0.0,0.0,0.0,0.0,0.0,0.0,0.0,0.0,0.0,0.0,0.0,0.0,0.0,0.0,0.0,0.0,0.0,0.0,0.0,0.0,0.0,0.0,0.0,0.0,0.0,0.0,0.0,0.0,0.0,0.0,0.0,0.0,0.0,0.0,0.0,0.0,0.0,0.0,0.0,0.0,0.0,0.0,0.0,0.0,0.0,0.0,0.0,0.0,0.0,0.0,0.0,0.0,0.0,0.0,0.0,0.0,0.0,0.0,0.0,0.0,0.0,0.0,0.0,0.0,0.0,0.0,0.0,0.0,0.0,0.0,0.0,0.0,0.0,0.0,0.0,0.0,0.0,0.0,0.0,0.0,0.0,0.0,0.0,0.0,0.0,0.0,0.0,0.0,0.0,0.0,0.0,0.0,0.0,0.0,0.0,0.0,0.0,0.0,0.0,0.0,0.0,0.0,0.0,0.0,0.0,0.0,0.0,0.0,0.0,0.0,0.0,0.0,0.0,0.0,0.0,0.0,0.0,0.0,0.0,0.0,0.0,0.0,0.0,0.0,0.0,0.0,0.0,0.0,0.0,0.0,0.0,0.0,0.0,0.0,0.0,0.0,0.0,0.0,0.0,0.0,0.0,0.0,0.0,0.0,0.0,0.0,0.0,0.0,0.0,0.0,0.0,0.0,0.0,0.0,0.0,0.0,0.0,0.0,0.0,0.0,0.0,0.0,0.0,0.0,0.0,0.0,0.0,0.0,0.0,0.0,0.0,0.0,0.0,0.0,0.0,0.0,0.0,0.0,0.0,0.0,0.0,0.0,0.0,0.0,0.0,0.0,0.0,0.0,0.0,0.0,0.0,0.0,0.0,0.0,0.0,0.0,0.0,0.0,0.0,0.0,0.0,0.0,0.0,0.0,0.0,0.0,0.0,0.0,0.0,0.0,0.0,0.0,0.0,0.0,0.0,0.0,0.0,0.0,0.0,0.0,0.0,0.0,0.0,0.0,0.0,0.0,0.0,0.0,0.0,0.0,0.0,0.0,0.0,0.0,0.0,0.0,0.0,0.0,0.0,0.0,0.0,0.0,0.0,0.0,0.0,0.0,0.0,0.0,0.0,0.0,0.0,0.0,0.0,0.0,0.0,0.0,0.0,0.0,0.0,0.0,0.0,0.0,0.0,0.0,0.0,0.0,0.0,0.0,0.0,0.0,0.0,0.0,0.0,0.0,0.0,0.0,0.0,0.0,0.0,0.0,0.0,0.0,0.0,0.0,0.0,0.0,0.0,0.0,0.0,0.0,0.0,0.0,0.0,0.0,0.0,0.0,0.0,0.0,0.0,0.0,0.0,0.0,0.0,0.0,0.0,0.0,0.0,0.0,0.0,0.0,0.0,0.0,0.0,0.0,0.0,0.0,0.0,0.0,0.0,0.0,0.0,0.0,0.0,0.0,0.0,0.0,0.0,0.0,0.0,0.0,0.0,0.0,0.0,0.0,0.0,0.0,0.0,0.0,0.0,0.0,0.0,0.0,0.0,0.0,0.0,0.0,0.0,0.0,0.0,0.0,0.0,0.0,0.0,0.0,0.0,0.0,0.0,0.0,0.0,0.0,0.0,0.0,0.0,0.0,0.0,0.0,0.0,0.0,0.0,0.0,0.0,0.0,0.0,0.0,0.0,0.0,0.0,0.0,0.0,0.0,0.0,0.0,0.0,0.0,0.0,0.0,0.0,0.0,0.0,0.0,0.0,0.0,0.0,0.0,0.0,0.0,0.0,0.0,0.0,0.0,0.0,0.0,0.0,0.0,0.0,0.0,0.0,0.0,0.0,0.0,0.0,0.0,0.0,0.0,0.0,0.0,0.0,0.0,0.0,0.0,0.0,0.0,0.0,0.0,0.0,0.0,0.0,0.0,0.0,0.0,0.0,0.0,0.0,0.0,0.0,0.0,0.0,0.0,0.0,0.0,0.0,0.0,0.0,0.0,0.0,0.0,0.0,0.0,0.0,0.0,0.0,0.0,0.0,0.0,0.0,0.0,0.0,0.0,0.0,0.0,0.0,0.0,0.0,0.0,0.0,0.0,0.0,0.0,0.0,0.0,0.0,0.0,0.0,0.0,0.0,0.0,0.0,0.0,0.0,0.0,0.0,0.0,0.0,0.0,0.0,0.0,0.0,0.0,0.0,0.0,0.0,0.0,0.0,0.0,0.0,0.0,0.0,0.0,0.0,0.0,0.0,0.0,0.0,0.0,0.0,0.0,0.0,0.0,0.0,0.0,0.0,0.0,0.0,0.0,0.0,0.0,0.0,0.0,0.0,0.0,0.0,0.0,0.0,0.0,0.0,0.0,0.0,0.0,0.0,0.0,0.0,0.0,0.0,0.0,0.0,0.0,0.0,0.0,0.0,0.0,0.0,0.0,0.0,0.0,0.0,0.0,0.0,0.0,0.0,0.0,0.0,0.0,0.0,0.0,0.0,0.0,0.0,0.0,0.0,0.0,0.0,0.0,0.0,0.0,0.0,0.0,0.0,0.0,-2.3528,0.0,0.0,0.0,0.0,0.0,0.0,0.0,0.0,0.0,0.0,0.0,0.0,0.0,0.0,0.0,0.0,0.0,0.0,0.0,0.0,0.0,0.0,0.0,0.0,-0.7963,-0.8058,-0.824,-0.8431,-0.8616,-0.8794,0.0,0.0,0.0,0.0,0.0,-0.8897,-0.9241,-0.9886,-1.0831,-1.1533,-1.2755,-1.4414,-1.3646,-1.2734,-1.171,0.0,0.0,0.0,0.0,0.0,0.0,0.0,0.0,0.0,0.0,0.0,0.0,0.0,0.0,0.0,0.0,0.0,0.0,0.0,0.0,0.0,0.0,0.0,0.0,0.0,0.0,0.0,0.0,0.0,0.0,0.0,0.0,0.0,0.0,0.0,0.0,0.0,0.0,0.0,0.0,0.0,0.0,0.0,0.0,0.0,0.0,0.0,0.0,0.0,0.0,0.0,0.0,0.0,0.0,0.0,0.0,0.0,0.0,0.0,0.0,0.0,0.0,0.0,0.0,0.0,0.0,0.0,0.0,0.0,0.0,0.0,-2.664,0.0,0.0,0.0,0.0,0.0,0.0,0.0,0.0,0.0,0.0,0.0,0.0,0.0,0.0,0.0,0.0,0.0,0.0,0.0,0.0,0.0,-0.7966,-0.813,-0.8242,-0.843,-0.8749,-0.8964,-0.9147,-0.9311,0.0,0.0,0.0,0.0,-0.9095,-0.9095,-0.9989,-1.1268,-1.2935,-1.4307,-1.6153,-1.8415,-1.8704,-1.7622,0.0,-1.4642,0.0,0.0,0.0,0.0,0.0,0.0,0.0,0.0,0.0,0.0,0.0,0.0,0.0,0.0,0.0,0.0,0.0,0.0,0.0,0.0,0.0,0.0,0.0,0.0,0.0,0.0,0.0,0.0,0.0,0.0,0.0,0.0,0.0,0.0,0.0,0.0,0.0,0.0,0.0,0.0,0.0,0.0,0.0,0.0,0.0,0.0,0.0,0.0,0.0,0.0,0.0,0.0,0.0,0.0,0.0,0.0,0.0,0.0,0.0,0.0,0.0,0.0,0.0,-3.6377,-3.6377,-3.6377,-3.6377,-3.7325,-3.8557,-3.1914,-3.0446,-3.2324,-2.6877,0.0,0.0,0.0,0.0,0.0,0.0,0.0,0.0,0.0,0.0,0.0,0.0,0.0,0.0,0.0,0.0,0.0,0.0,0.0,-0.8204,-0.9032,-0.9132,-0.977,-1.1357,-1.0957,-1.0965,-1.1769,0.0,0.0,0.0,-0.9855,-0.9855,-0.9855,-1.1423,-1.2773,-1.3841,-1.7721,-2.0179,-2.1284,0.0,0.0,0.0,-1.8856,-1.7107,0.0,0.0,0.0,0.0,0.0,0.0,0.0,0.0,0.0,0.0,0.0,0.0,0.0,0.0,0.0,0.0,0.0,0.0,0.0,0.0,0.0,0.0,0.0,0.0,0.0,0.0,0.0,0.0,0.0,0.0,0.0,0.0,0.0,0.0,0.0,0.0,0.0,0.0,0.0,0.0,0.0,0.0,-1.7865,-2.0909,0.0,0.0,0.0,0.0,0.0,0.0,0.0,0.0,0.0,0.0,0.0,0.0,0.0,-3.3812,-3.6517,-3.9692,-4.0681,-3.952,-3.952,-3.952,-3.952,-3.952,-3.9676,-3.9857,-3.8778,0.0,-3.8674,-3.525,0.0,0.0,0.0,0.0,0.0,0.0,0.0,0.0,0.0,0.0,0.0,0.0,0.0,0.0,0.0,0.0,0.0,0.0,0.0,0.0,0.0,-1.0833,-1.1917,-1.3129,-1.3427,-1.3362,0.0,0.0,0.0,-1.0656,-1.0724,-1.1,-1.1457,-1.3169,-1.5656,-1.8893,-2.1817,-2.3676,0.0,0.0,0.0,0.0,-2.3551,-2.1689,0.0,0.0,0.0,0.0,0.0,0.0,0.0,0.0,0.0,0.0,0.0,0.0,0.0,0.0,0.0,0.0,0.0,0.0,0.0,0.0,0.0,0.0,0.0,0.0,0.0,0.0,0.0,0.0,0.0,0.0,0.0,0.0,0.0,0.0,0.0,0.0,0.0,0.0,0.0,0.0,0.0,-1.873,-2.2557,-2.5693,-2.6068,-2.5015,0.0,0.0,0.0,0.0,0.0,0.0,0.0,0.0,0.0,-3.7055,-3.8524,-3.9937,-4.1368,-4.2817,-4.2366,-4.013,-4.1822,-4.2634,-4.2634,-4.2634,-4.2634,-4.2634,-4.2634,-4.2634,-4.2398,-3.936,-3.5588,-3.1559,0.0,0.0,0.0,0.0,-3.3455,-3.7349,0.0,0.0,0.0,0.0,0.0,0.0,0.0,0.0,0.0,0.0,0.0,0.0,-1.1243,-1.2739,-1.4122,-1.5292,0.0,0.0,0.0,0.0,0.0,-1.2026,-1.1932,-1.2314,-1.3211,-1.5783,-1.9081,0.0,0.0,0.0,0.0,0.0,0.0,0.0,0.0,0.0,0.0,0.0,0.0,0.0,0.0,0.0,0.0,0.0,0.0,0.0,0.0,0.0,0.0,0.0,0.0,0.0,0.0,0.0,0.0,0.0,0.0,0.0,0.0,0.0,0.0,0.0,0.0,0.0,0.0,0.0,0.0,0.0,0.0,0.0,0.0,0.0,0.0,0.0,0.0,0.0,0.0,-2.2125,-2.5695,-2.9757,-2.8767,-2.6822,0.0,0.0,0.0,0.0,0.0,0.0,-3.2488,-3.7312,-4.102,-4.3423,-4.3515,-4.39,-4.4709,-4.4099,-4.2935,-4.128,-4.3532,-4.4615,-4.4615,-4.4615,-4.4615,-4.4615,-4.4615,-4.4615,-4.4429,-4.2178,-3.9462,-3.6755,-3.6755,-3.6755,-3.6755,-3.6755,-3.865,-4.1264,0.0,0.0,0.0,0.0,0.0,0.0,0.0,0.0,0.0,0.0,0.0,-1.1275,0.0,0.0,0.0,0.0,0.0,0.0,0.0,0.0,0.0,-1.4334,-1.3667,-1.38,-1.4869,-1.9768,0.0,0.0,0.0,0.0,0.0,0.0,0.0,0.0,0.0,0.0,0.0,0.0,0.0,0.0,0.0,0.0,0.0,0.0,0.0,0.0,0.0,0.0,0.0,0.0,0.0,0.0,0.0,0.0,0.0,0.0,0.0,0.0,0.0,0.0,0.0,0.0,0.0,0.0,0.0,0.0,0.0,0.0,0.0,0.0,0.0,0.0,0.0,0.0,0.0,0.0,0.0,0.0,0.0,-3.2816,-2.8154,0.0,0.0,0.0,0.0,-3.2962,-3.6149,-3.9305,-4.2598,-4.3092,-4.3331,-4.3496,-4.3515,-4.4966,-4.8031,-4.573,-4.45,-4.4378,-4.453,-4.4615,-4.4615,-4.4615,-4.4615,-4.4615,-4.4615,-4.4615,-4.4598,-4.4445,-4.2601,-3.9876,-3.9876,-3.9876,-3.9876,-3.9876,-4.1788,-4.4378,0.0,0.0,0.0,-0.7899,-0.7899,-0.7927,-0.8016,-0.803,-0.8367,-0.9309,-1.1002,0.0,0.0,0.0,0.0,0.0,0.0,0.0,0.0,0.0,-1.6616,-1.6616,-1.5782,-1.6831,-2.0082,-2.2967,-2.5369,0.0,0.0,0.0,0.0,0.0,0.0,0.0,0.0,0.0,0.0,0.0,0.0,0.0,0.0,0.0,0.0,0.0,0.0,0.0,0.0,0.0,0.0,0.0,0.0,0.0,0.0,0.0,0.0,0.0,0.0,0.0,0.0,0.0,0.0,0.0,0.0,0.0,0.0,0.0,0.0,0.0,0.0,0.0,0.0,0.0,0.0,0.0,0.0,0.0,0.0,0.0,0.0,-3.6193,-3.1225,0.0,-3.3128,-3.4072,-3.5967,-3.9758,-4.113,-4.2286,-4.3441,-4.3515,-4.4452,-4.6526,-4.6599,-4.6372,-4.5915,-4.5052,-4.4615,-4.4632,-4.6515,-4.7428,-4.7428,-4.7428,-4.7428,-4.7428,-4.7428,-4.7428,-4.7428,-4.7428,-4.5669,-4.3007,-4.3007,-4.3007,-4.3007,-4.3007,-4.3684,-4.4615,-0.7899,-0.7899,0.0,-0.7899,-0.7899,-0.7927,-0.8016,-0.8291,-0.8924,-1.0099,-1.2329,0.0,0.0,0.0,0.0,0.0,0.0,0.0,0.0,0.0,-1.859,-1.8711,-1.86,-2.0147,-2.3588,-2.5599,0.0,0.0,0.0,0.0,0.0,0.0,0.0,0.0,0.0,0.0,0.0,0.0,0.0,0.0,0.0,0.0,-2.058,0.0,0.0,0.0,0.0,0.0,0.0,0.0,0.0,0.0,0.0,0.0,0.0,0.0,0.0,0.0,0.0,0.0,0.0,0.0,0.0,0.0,0.0,0.0,0.0,0.0,0.0,0.0,0.0,0.0,0.0,0.0,0.0,0.0,0.0,0.0,-3.427,-3.968,-3.6523,-3.5587,-3.99,-4.0322,-4.1203,-4.3349,-4.4507,-4.5112,-4.5112,-4.5112,-4.6104,-4.8233,-4.7491,-4.6727,-4.6087,-4.6075,-4.6075,-4.6092,-4.8071,-4.9001,-4.9001,-4.9001,-4.9001,-4.9001,-4.9001,-4.9001,-4.9001,-4.9001,-4.7851,-4.6075,-4.6075,-4.6075,-4.6075,-4.6075,-4.6075,-4.6075,-0.7899,-0.7899,-0.7899,-0.7899,-0.7899,-0.7899,-0.7906,-0.8703,-0.9883,-1.1505,-1.3826,0.0,0.0,0.0,0.0,0.0,0.0,0.0,0.0,-2.0859,-2.0164,-2.0524,-2.1982,-2.3508,-2.5041,0.0,0.0,0.0,0.0,0.0,0.0,0.0,0.0,0.0,0.0,0.0,0.0,0.0,0.0,0.0,0.0,0.0,-2.2678,0.0,0.0,0.0,0.0,0.0,0.0,0.0,0.0,0.0,0.0,0.0,0.0,0.0,0.0,0.0,0.0,0.0,0.0,0.0,0.0,0.0,0.0,0.0,0.0,0.0,0.0,0.0,0.0,0.0,0.0,0.0,0.0,0.0,-2.7385,-3.3836,-3.9994,-4.3025,-4.3462,-4.3462,-4.3391,-4.3553,-4.3662,-4.3662,-4.6544,-4.8306,-4.8306,-4.8306,-4.8361,-4.8453,-4.604,-4.615,-4.9104,-4.9032,-4.9001,-4.9001,-4.9001,-4.9001,-4.9001,-4.9001,-4.9052,-4.9137,-4.9137,-4.9137,-4.9137,-4.9137,-4.9137,-4.9137,-4.9035,-4.9001,-4.9001,-4.9001,-4.9001,-4.9001,-0.787,-0.7899,-0.7899,-0.7899,-0.7899,-0.7927,-0.803,-0.8836,-1.0049,-1.1704,0.0,0.0,0.0,0.0,0.0,0.0,0.0,0.0,-2.2296,0.0,-2.0398,-2.1269,-2.356,0.0,0.0,0.0,0.0,0.0,0.0,0.0,0.0,0.0,0.0,0.0,0.0,0.0,0.0,0.0,0.0,0.0,0.0,0.0,-2.6243,0.0,0.0,0.0,0.0,0.0,0.0,0.0,0.0,0.0,0.0,0.0,0.0,0.0,0.0,0.0,0.0,0.0,0.0,0.0,0.0,0.0,0.0,0.0,0.0,0.0,0.0,0.0,0.0,0.0,0.0,0.0,0.0,-3.4095,-3.3267,-3.8345,-4.1905,-4.1136,-4.2485,-4.2847,-4.1196,-4.4635,-4.6985,-4.6985,-4.781,-4.8306,-4.8306,-4.8306,-4.9389,-5.1773,-4.9221,-4.9163,-5.2012,-5.0039,-4.9001,-4.9001,-4.9001,-4.9001,-4.9001,-4.9001,-5.0202,-5.2266,-5.2266,-5.2266,-5.2266,-5.2266,-5.2266,-5.2046,-4.9847,-4.9001,-4.9001,-4.9001,-4.9001,-4.9001,-0.7878,-0.7899,-0.7899,-0.7899,-0.7899,-0.792,-0.7996,-0.9037,-1.0352,-1.1925,0.0,0.0,0.0,0.0,0.0,0.0,0.0,0.0,-2.184,-2.1377,-2.1696,0.0,0.0,0.0,0.0,0.0,0.0,0.0,0.0,0.0,0.0,0.0,0.0,0.0,0.0,0.0,0.0,0.0,0.0,0.0,0.0,0.0,-2.9,-2.6412,-2.4897,-2.4137,-2.4137,-2.2212,-1.9862,-2.1109,0.0,0.0,0.0,0.0,0.0,0.0,0.0,0.0,0.0,0.0,0.0,0.0,0.0,0.0,0.0,0.0,0.0,0.0,0.0,0.0,0.0,0.0,0.0,0.0,-3.6191,-3.7826,-3.8781,-4.0745,-4.1582,-4.0254,-4.1268,-4.2459,-4.3442,-4.6409,-4.8306,-4.8306,-4.9572,-5.0362,-5.0362,-5.0362,-5.0689,-5.1426,-5.0999,-5.0973,-5.1429,-4.9826,-4.9001,-4.9018,-5.0287,-5.0896,-5.0896,-5.0896,-5.1843,0.0,-5.3501,-5.3501,-5.3501,-5.3501,-5.3501,0.0,0.0,0.0,0.0,0.0,-5.0896,-5.0896,-0.7892,-0.7899,-0.7899,-0.7899,-0.7899,-0.7899,-0.7899,-0.9203,-1.0709,-1.2118,0.0,0.0,0.0,0.0,0.0,0.0,0.0,0.0,0.0,0.0,0.0,0.0,0.0,0.0,0.0,0.0,0.0,0.0,0.0,0.0,0.0,0.0,0.0,0.0,0.0,0.0,0.0,0.0,0.0,0.0,0.0,0.0,-3.1055,-2.8264,-2.7199,-2.7199,-2.7199,-2.5524,-2.3663,-2.593,0.0,0.0,0.0,0.0,0.0,0.0,0.0,0.0,0.0,0.0,0.0,0.0,0.0,0.0,0.0,0.0,0.0,0.0,0.0,0.0,0.0,0.0,0.0,0.0,-3.8574,-4.1196,-4.3214,-4.2072,-4.0891,-4.0524,-4.0805,-4.2952,-4.782,-4.8306,-4.8453,-4.882,-5.1555,-5.3185,-5.3185,0.0,0.0,0.0,0.0,-5.2023,-4.954,-4.9509,-4.9509,-4.9543,-5.2232,-5.3501,-5.3501,-5.3501,-5.3501,-5.3501,-5.3501,-5.3501,-5.3501,-5.3501,-5.3501,-5.3501,-5.3501,-5.3501,-5.3501,-5.3501,-5.3501,-5.3501,-0.787,-0.7899,-0.7899,-0.7899,-0.7899,-0.7899,-0.7899,-0.9203,-1.0709,-1.2118,-1.4465,0.0,0.0,0.0,0.0,0.0,0.0,0.0,0.0,0.0,0.0,0.0,0.0,0.0,0.0,0.0,0.0,0.0,0.0,0.0,0.0,0.0,0.0,0.0,0.0,0.0,0.0,0.0,0.0,0.0,0.0,0.0,-3.2273,-3.0852,-3.0328,-3.0328,-3.0328,-2.9956,-2.9194,-2.7317,-2.6691,-2.6082,-2.2533,0.0,0.0,0.0,0.0,0.0,0.0,0.0,0.0,0.0,0.0,0.0,0.0,0.0,0.0,0.0,0.0,0.0,0.0,0.0,0.0,-3.9095,-4.1258,-4.2996,-4.3444,-4.5347,-4.5749,-4.3155,-4.5133,-4.7126,-4.8194,-4.8306,-4.9407,-5.2048,-5.2837,-5.3185,-5.3185,-5.3185,-5.1916,-4.9077,-5.1728,-5.3032,-5.2637,-5.2638,-5.2638,-5.2638,0.0,0.0,-5.3501,-5.3501,-5.3501,-5.3501,-5.3501,-5.3501,-5.3501,-5.3501,-5.3501,-5.3501,-5.3501,-5.3501,-5.3501,-5.3501,-5.3501,-5.3501,-0.7863,-0.7899,-0.7899,-0.7899,-0.7899,-0.7899,-0.7899,-0.9114,-1.0409,-1.1423,-1.3741,0.0,0.0,0.0,0.0,0.0,0.0,0.0,0.0,0.0,0.0,0.0,0.0,0.0,0.0,0.0,0.0,0.0,0.0,0.0,0.0,0.0,0.0,0.0,0.0,0.0,0.0,0.0,0.0,0.0,0.0,0.0,-3.4011,-3.278,-3.1833,-3.119,-3.119,-3.119,-3.097,-2.9448,-2.7943,-2.6437,-2.4966,-2.4509,-2.4222,0.0,0.0,0.0,0.0,0.0,0.0,0.0,0.0,0.0,0.0,0.0,0.0,0.0,0.0,-3.2087,-3.5081,0.0,-4.1814,-4.1814,-4.4112,-4.5902,-4.5902,-4.7297,-4.77,-4.6085,-4.7315,-4.8306,-4.8306,-4.9793,-5.1444,-5.3096,-5.3185,-5.2572,-5.1181,-5.1104,-5.1141,-5.1232,-5.2602,-5.341,-5.3484,-5.3501,-5.3501,-5.3501,-5.3501,-5.3501,-5.3501,-5.3501,-5.3501,-5.3501,-5.3501,-5.3501,-5.3501,-5.3501,-5.3501,-5.3501,-5.3501,-5.3501,-5.3501,-5.3501,-5.3501,-5.3501,-0.7856,-0.7899,-0.7899,-0.7899,-0.7899,-0.7899,-0.7899,-0.8925,-0.9965,-1.0693,-1.2734,-1.446,-1.532,-1.5786,-1.6563,0.0,0.0,0.0,0.0,0.0,0.0,0.0,0.0,0.0,0.0,0.0,0.0,0.0,0.0,0.0,0.0,0.0,0.0,0.0,0.0,0.0,0.0,0.0,0.0,0.0,0.0,0.0,-3.5464,-3.4264,-3.2916,-3.1579,-3.1292,-3.119,-3.112,-3.0639,-2.885,-2.6856,-2.6961,-2.686,-2.6218,-2.3849,-2.4425,0.0,0.0,0.0,0.0,0.0,0.0,0.0,0.0,0.0,-3.6462,-3.6462,-3.6462,-3.7229,-3.9656,-4.2093,-4.3866,-4.4362,-4.6617,-4.8306,-4.8306,-4.8306,-4.8306,-4.8306,-4.8306,-4.8563,-4.9205,-5.1665,-5.2977,-5.2417,-5.2893,-5.1964,-4.9168,-4.956,-5.0997,-5.3433,-5.3501,-5.3501,-5.3501,-5.3501,-5.3501,-5.3501,-5.3501,-5.3501,-5.3501,-5.3501,-5.3501,-5.3501,-5.3501,-5.3501,-5.3501,-5.3501,-5.3501,-5.3501,-5.3501,-5.3501,-5.3501,-5.3501,-5.3501,-5.3501,-0.7812,-0.7899,-0.7899,-0.7899,-0.7899,-0.7899,-0.7899,-0.8537,-0.9443,-1.0633,-1.1318,-1.2293,-1.3846,-1.3828,-1.4463,-1.6447,0.0,0.0,0.0,0.0,0.0,0.0,0.0,0.0,0.0,0.0,0.0,0.0,0.0,0.0,0.0,0.0,0.0,0.0,0.0,0.0,0.0,0.0,0.0,0.0,0.0,0.0,-3.5583,-3.5414,-3.4433,-3.2983,-3.1664,-3.119,-3.0853,-2.8596,-2.7603,-2.7404,-2.7876,-2.7418,-2.664,-2.6302,0.0,-2.3849,-2.8636,-3.1749,-3.4315,-3.7371,-3.5859,-3.3051,0.0,0.0,-3.9605,-3.9605,-3.9605,-3.9706,-4.0045,-4.2499,-4.5194,-4.739,-4.8067,-4.8306,-4.8306,-4.8306,-4.8306,-4.8306,-4.8306,-4.9462,-5.238,-5.2965,-5.2167,-4.9669,-5.1795,-5.1964,-4.9168,-5.1539,-5.3162,-5.3501,-5.3501,-5.3501,-5.3501,-5.3501,-5.3501,-5.3501,-5.3501,-5.3501,-5.3501,-5.3501,-5.3501,-5.3501,-5.3501,-5.3501,-5.3501,-5.3501,-5.3501,-5.3501,-5.3501,-5.3501,-5.3501,-5.3501,-5.3501,-5.3501,-0.7805,-0.7899,-0.7863,-0.7746,-0.7827,-0.7899,-0.7899,-0.8462,-0.9227,-1.0159,-1.1048,-1.2003,-1.3095,-1.3782,-1.4446,-1.5124,-1.7314,0.0,0.0,0.0,0.0,0.0,0.0,0.0,0.0,0.0,0.0,0.0,0.0,0.0,0.0,0.0,0.0,0.0,0.0,0.0,0.0,0.0,0.0,0.0,0.0,0.0,-3.3968,-3.5148,-3.467,-3.322,-3.1732,-3.0057,0.0,0.0,-2.6178,-2.7189,-2.5922,-2.5484,-2.5408,-2.5279,-2.5481,0.0,-3.092,-3.2121,0.0,0.0,-3.8041,-3.7127,-3.6524,-3.8319,-4.0096,-4.0096,-4.15,-4.2719,-4.2719,-4.4928,-4.7088,0.0,-4.8306,-4.8306,-4.8306,-4.8306,-4.8306,-4.8306,-4.8306,-4.8947,-5.0594,-5.0778,-5.0276,-4.9077,-5.0079,-5.1002,-5.1586,-5.2807,-5.3501,-5.3501,-5.3501,-5.3501,-5.3501,-5.3501,-5.3501,-5.3501,-5.3501,-5.3501,-5.3501,-5.3501,-5.3501,-5.3501,-5.3501,-5.3501,-5.3501,-5.3501,-5.3501,-5.3501,-5.3501,-5.3501,-5.3501,-5.3501,-5.3501,-5.3501,-0.7819,-0.7899,-0.7841,-0.7642,-0.7717,-0.779,-0.7717,-0.8259,-0.8945,-0.9695,-1.0662,-1.1564,-1.2319,-1.3339,-1.4013,-1.416,-1.6408,-1.8831,0.0,0.0,0.0,0.0,0.0,0.0,0.0,0.0,0.0,0.0,0.0,0.0,0.0,0.0,0.0,0.0,0.0,0.0,0.0,0.0,0.0,0.0,0.0,0.0,-3.2424,-3.3534,-3.3711,-3.3102,-3.0784,-2.8027,0.0,0.0,-2.4005,-2.5527,-2.3809,-2.3666,-2.4264,-2.5084,-2.7361,-2.9989,-3.1562,0.0,0.0,-3.6214,-3.8396,-3.9605,-4.0011,-4.0096,-4.035,-4.1179,-4.3091,-4.4615,-4.4615,-4.6635,-4.8306,-4.8306,-4.8306,-4.8636,-4.9536,-4.8875,-4.8306,-4.8306,-4.6957,-4.677,-4.8638,-4.8924,-4.9001,-4.9001,-4.9779,-5.12,-5.3382,-5.3501,-5.3501,-5.3501,-5.3501,-5.3501,-5.3501,-5.3501,-5.3501,-5.3501,-5.3501,-5.3501,-5.3501,-5.3501,-5.3501,-5.3501,-5.3501,-5.3501,-5.3501,-5.3501,-5.3501,-5.3501,-5.3501,-5.3501,-5.3501,-5.3501,-5.3501,-5.3501,-0.7863,-0.7899,-0.7841,-0.7642,-0.7612,-0.753,-0.7264,-0.7739,-0.846,-0.9388,-0.9775,-1.0306,-1.123,-1.1674,-1.2403,-1.3703,-1.5437,-1.7508,-1.9988,-2.3227,0.0,0.0,0.0,0.0,0.0,0.0,0.0,0.0,0.0,0.0,0.0,0.0,0.0,0.0,0.0,0.0,0.0,0.0,0.0,0.0,0.0,0.0,-3.1502,-3.0239,-3.1291,-3.2831,-2.8416,0.0,0.0,0.0,-2.073,-2.1943,-2.232,-2.276,0.0,-2.7182,-3.059,0.0,0.0,0.0,-3.4303,-3.5397,-3.684,-3.8345,-3.9774,-4.0096,-4.0942,-4.387,-4.4547,-4.4615,-4.4615,-4.6635,-4.8306,-4.8306,-4.8306,-4.9426,-5.2598,-5.0325,-4.8306,-4.8306,-4.36,-4.2445,0.0,-4.8723,-4.9001,-4.9001,-5.1725,-5.3399,-5.3501,-5.3501,-5.3501,-5.3501,-5.3501,-5.3501,-5.3501,-5.3501,-5.3501,-5.3501,-5.3501,-5.3501,-5.3501,-5.3501,-5.3501,-5.3501,-5.3501,-5.3501,-5.3501,-5.3501,-5.3501,-5.3501,-5.3501,-5.3501,-5.3501,-5.3501,-5.3501,-5.3501,-0.7863,-0.7899,-0.7783,-0.7402,-0.734,-0.7215,-0.6848,-0.7547,-0.8442,-0.9369,-1.0471,0.0,0.0,0.0,0.0,0.0,-1.5522,-1.7485,-1.9578,-2.2024,0.0,0.0,0.0,0.0,0.0,0.0,0.0,0.0,0.0,0.0,0.0,0.0,0.0,0.0,0.0,0.0,0.0,0.0,0.0,0.0,0.0,0.0,-2.9595,-2.9597,-2.9017,-2.7684,0.0,0.0,0.0,0.0,0.0,0.0,-2.211,0.0,0.0,-2.8231,0.0,0.0,0.0,0.0,-3.569,-3.8007,-3.8971,-3.9503,-3.9994,-4.1653,-4.3379,-4.4395,-4.3007,-4.1619,-4.1619,-4.3525,-4.581,-4.7957,-5.0141,-5.1938,-5.3038,-5.038,-4.8306,-4.8306,-4.6674,0.0,0.0,0.0,0.0,-4.9001,-5.1792,-5.3501,-5.3501,-5.3501,-5.3501,-5.3501,-5.3501,-5.3501,-5.3501,-5.3501,-5.3501,-5.3501,-5.3501,-5.3501,-5.3501,-5.3501,-5.3501,-5.3501,-5.3501,-5.3501,-5.3501,-5.3501,-5.3501,-5.3501,-5.3501,-5.3501,-5.3501,-5.3501,-5.3501,-5.3501,-0.7878,-0.7998,-0.7889,-0.7314,-0.7321,0.0,0.0,0.0,0.0,0.0,0.0,0.0,0.0,0.0,0.0,0.0,0.0,-1.7046,-1.8656,0.0,0.0,0.0,0.0,0.0,0.0,0.0,0.0,0.0,0.0,0.0,0.0,0.0,0.0,0.0,0.0,0.0,0.0,0.0,0.0,0.0,0.0,0.0,-2.7575,-2.8008,-2.7395,0.0,0.0,0.0,0.0,0.0,0.0,0.0,0.0,0.0,0.0,0.0,0.0,-3.1526,0.0,-3.6005,-3.7121,-4.0121,-4.163,-4.2232,-4.1791,-4.321,-4.4293,-4.321,-4.145,-4.0096,-4.0096,-4.1291,-4.323,-4.6121,-5.0325,-5.3185,-5.3185,-5.1389,-5.005,-5.005,-4.8218,-4.7402,0.0,0.0,0.0,-5.0425,-5.2347,-5.3501,-5.3501,-5.3501,-5.3501,-5.3501,-5.3501,-5.3501,-5.3501,-5.3501,-5.3501,-5.3501,-5.3501,-5.3501,-5.3501,-5.3501,-5.3501,-5.3501,-5.3501,-5.3501,-5.3501,-5.3501,-5.3501,-5.3501,-5.3501,-5.3501,-5.3501,-5.3501,-5.3501,-5.328,-0.7944,-0.8196,-0.8166,0.0,0.0,0.0,0.0,0.0,0.0,0.0,0.0,0.0,0.0,0.0,0.0,0.0,0.0,0.0,0.0,0.0,0.0,0.0,0.0,0.0,-2.6289,-2.567,0.0,0.0,0.0,0.0,0.0,0.0,0.0,0.0,0.0,0.0,0.0,0.0,0.0,0.0,0.0,0.0,-2.557,-2.545,0.0,0.0,0.0,0.0,0.0,0.0,0.0,0.0,0.0,0.0,0.0,0.0,0.0,-3.5498,-3.5583,-3.6884,-3.892,-4.1711,-4.4394,-4.6014,-4.4852,-4.4479,-4.3565,-4.0688,-3.9977,-3.9825,0.0,0.0,-4.0573,-4.2741,-4.8633,-5.3002,-5.3167,-5.3185,-5.3185,0.0,0.0,0.0,0.0,0.0,0.0,-5.3002,0.0,-5.3501,-5.3501,-5.3501,-5.3501,-5.3501,-5.3501,-5.3501,-5.3501,-5.3501,-5.3501,-5.3501,-5.3501,-5.3501,-5.3501,-5.3501,-5.3501,-5.3501,-5.3501,-5.3501,-5.3501,-5.3501,-5.3501,-5.3501,-5.3501,-5.3501,-5.3501,-5.3501,-5.3348,-5.2609,0.0,0.0,0.0,0.0,0.0,0.0,0.0,0.0,0.0,0.0,0.0,0.0,0.0,0.0,0.0,0.0,0.0,0.0,0.0,0.0,0.0,0.0,0.0,0.0,0.0,0.0,0.0,0.0,0.0,0.0,0.0,0.0,0.0,0.0,0.0,0.0,0.0,0.0,0.0,0.0,0.0,0.0,-2.4979,0.0,0.0,0.0,0.0,0.0,0.0,0.0,0.0,0.0,0.0,0.0,-3.2221,0.0,0.0,-3.4218,-3.5295,-3.9174,-4.3075,-4.3836,-4.4552,-4.4971,-4.4682,-4.2871,-4.1027,-4.0265,-3.8311,-3.6079,-3.3863,0.0,0.0,-3.7521,-4.4324,0.0,-5.2876,-5.3185,0.0,0.0,0.0,-5.225,-5.5392,-5.3669,0.0,0.0,-5.3471,-5.3501,-5.3501,-5.3501,-5.3501,-5.3501,-5.3501,-5.3501,-5.3501,-5.3501,-5.3501,-5.3501,-5.3501,-5.3501,-5.3501,-5.3501,-5.3501,-5.3501,-5.3501,-5.3501,-5.3501,-5.3501,-5.3501,-5.3501,-5.3501,-5.3501,-5.3501,-5.3501,-5.1521,-4.8749,0.0,0.0,0.0,0.0,0.0,0.0,0.0,0.0,0.0,0.0,0.0,0.0,0.0,0.0,0.0,0.0,0.0,0.0,0.0,0.0,0.0,0.0,0.0,0.0,0.0,0.0,0.0,0.0,0.0,0.0,0.0,0.0,0.0,0.0,0.0,0.0,0.0,0.0,0.0,0.0,0.0,0.0,0.0,0.0,0.0,0.0,0.0,0.0,0.0,0.0,0.0,-2.9613,-3.1617,-3.3405,-3.4928,-3.5859,0.0,-3.7364,-3.9089,-4.2016,-4.4615,-4.4615,-4.4615,-4.4615,-4.4615,-4.3295,-4.1331,-3.8667,-3.4709,0.0,-2.9533,0.0,0.0,0.0,0.0,0.0,-5.1083,-5.2518,-5.3336,0.0,-5.3336,0.0,-5.5861,-5.4485,-5.3501,0.0,-5.3501,-5.3501,-5.3501,-5.3501,-5.3501,-5.3501,-5.3501,-5.3501,-5.3501,-5.3501,-5.3501,-5.3501,-5.3501,-5.3501,-5.3501,-5.3501,-5.3501,-5.3501,0.0,-5.3501,-5.3501,-5.3501,-5.3501,-5.3501,-5.3501,-5.3501,-5.328,-5.1447,-4.9287,-4.7309,0.0,0.0,0.0,0.0,0.0,0.0,0.0,0.0,0.0,0.0,0.0,0.0,0.0,0.0,0.0,0.0,0.0,0.0,0.0,0.0,0.0,0.0,0.0,0.0,0.0,0.0,0.0,0.0,0.0,0.0,0.0,0.0,0.0,0.0,0.0,0.0,0.0,0.0,0.0,0.0,0.0,0.0,0.0,0.0,0.0,0.0,0.0,0.0,0.0,0.0,-3.0569,-3.1771,-3.4295,-3.6518,-3.8328,-3.9005,-4.0375,-4.21,-4.4073,-4.4615,-4.4615,-4.4615,-4.4615,-4.4513,-4.409,-4.3091,-4.0756,-3.5504,0.0,-2.6234,-2.6623,0.0,-3.0752,-3.8778,0.0,-4.8092,-4.889,-5.1606,-5.3501,-5.3501,-5.3501,-5.3501,-5.3501,-5.3501,-5.3501,-5.3501,-5.3501,-5.3501,-5.3501,-5.3501,-5.3501,-5.3501,-5.3501,-5.3501,-5.3501,-5.3501,-5.3501,-5.3501,-5.3501,-5.3501,-5.3501,-5.3501,-5.3501,-5.3501,-5.3501,0.0,-5.3501,-5.3501,-5.3501,-5.3501,-5.3501,-5.3501,-5.3007,-4.8815,-4.7309,-4.7309,0.0,0.0,0.0,0.0,0.0,0.0,0.0,-1.147,-1.2308,-1.2816,-1.2724,0.0,0.0,0.0,0.0,0.0,0.0,0.0,0.0,0.0,0.0,0.0,0.0,0.0,0.0,0.0,0.0,0.0,0.0,0.0,0.0,0.0,0.0,0.0,0.0,0.0,0.0,0.0,0.0,0.0,0.0,0.0,0.0,0.0,0.0,0.0,0.0,0.0,0.0,0.0,-3.21,-3.601,-3.7679,-3.8903,-4.0054,-4.1813,-4.2252,-4.2523,-4.4175,-4.4615,-4.4615,-4.4615,-4.4615,-4.3955,-4.145,-3.5154,0.0,0.0,0.0,-2.3816,-2.6251,-2.4923,0.0,-3.8282,0.0,0.0,0.0,0.0,-5.3501,0.0,0.0,0.0,0.0,0.0,0.0,0.0,0.0,-5.3501,-5.3501,-5.3501,-5.3501,-5.3501,-5.3501,-5.3501,-5.3501,-5.3501,-5.3501,-5.3501,-5.3501,-5.3501,-5.3501,-5.3501,-5.3501,-5.3501,-5.3501,0.0,-5.3501,-5.3501,-5.3501,-5.3501,-5.3501,-5.3501,-5.3007,-4.8815,-4.7309,-4.7309,0.0,0.0,0.0,0.0,0.0,0.0,0.0,-1.2372,-1.351,-1.4703,-1.4841,-1.4948,-1.5275,-1.4585,-1.4357,0.0,0.0,0.0,0.0,0.0,0.0,0.0,0.0,0.0,0.0,0.0,0.0,0.0,0.0,0.0,0.0,0.0,0.0,0.0,0.0,0.0,0.0,0.0,0.0,0.0,0.0,0.0,0.0,0.0,0.0,0.0,0.0,0.0,0.0,0.0,-3.026,-3.6569,-3.8836,-3.9825,-4.0299,-4.128,-4.21,-4.298,-4.4276,-4.4615,-4.4615,-4.4615,-4.4615,-4.3819,-4.079,0.0,0.0,0.0,0.0,-2.2736,-2.4154,0.0,0.0,0.0,0.0,0.0,0.0,0.0,0.0,0.0,0.0,0.0,0.0,0.0,0.0,0.0,0.0,-5.3501,-5.3501,-5.3501,-5.3501,-5.3501,-5.3501,-5.3501,-5.3501,-5.3501,-5.3501,-5.3501,-5.3501,-5.3501,-5.3501,-5.3501,-5.3501,-5.3501,-5.3501,0.0,-5.3501,-5.3501,-5.3501,-5.3501,-5.3501,-5.2186,-5.0009,-4.8046,-4.7309,-4.7309,0.0,0.0,0.0,0.0,0.0,0.0,0.0,-1.3154,-1.4641,-1.6374,-1.6781,-1.6711,-1.6129,-1.5066,-1.4554,0.0,0.0,0.0,0.0,0.0,0.0,0.0,0.0,0.0,0.0,0.0,0.0,0.0,0.0,0.0,0.0,0.0,0.0,0.0,0.0,0.0,0.0,0.0,0.0,0.0,0.0,0.0,0.0,0.0,0.0,0.0,0.0,0.0,0.0,0.0,-2.639,-3.2707,-3.5638,-3.7968,-3.9673,-3.9825,-4.1305,-4.3166,-4.431,-4.4615,-4.4615,-4.4615,-4.4124,-4.2855,-3.9825,-3.2679,0.0,0.0,-2.2296,-2.2296,-2.2296,0.0,0.0,0.0,0.0,0.0,0.0,0.0,0.0,0.0,0.0,0.0,0.0,0.0,0.0,0.0,0.0,0.0,-5.3501,-5.3501,-5.3501,-5.3501,-5.3501,-5.3501,-5.3501,-5.3501,-5.3501,-5.3501,-5.3501,-5.3501,-5.3501,-5.3501,-5.3501,-5.3501,-5.3501,0.0,0.0,-5.3501,-5.3501,-5.3433,-5.2539,-5.0181,-4.7309,-4.7309,-4.7309,-4.7309,0.0,0.0,0.0,0.0,0.0,0.0,0.0,-1.3731,-1.5397,-1.7323,-1.7593,-1.7449,-1.7015,-1.6026,-1.514,0.0,0.0,0.0,0.0,0.0,0.0,0.0,0.0,0.0,0.0,0.0,0.0,0.0,0.0,0.0,0.0,0.0,0.0,0.0,0.0,0.0,0.0,0.0,0.0,0.0,0.0,0.0,0.0,0.0,0.0,0.0,0.0,0.0,0.0,0.0,0.0,-2.1625,-2.4292,-3.1089,-3.8227,-3.8903,0.0,0.0,-4.4192,-4.4615,-4.4615,-4.4615,-4.255,-3.9723,-3.6705,0.0,0.0,0.0,-2.2296,-2.2296,-2.2296,-2.2516,0.0,0.0,0.0,0.0,0.0,0.0,0.0,0.0,0.0,0.0,0.0,0.0,0.0,0.0,0.0,0.0,-5.3501,-5.3501,-5.3501,-5.3501,-5.3501,-5.3501,-5.3501,-5.3501,-5.3501,-5.3501,-5.3501,-5.3501,-5.3501,-5.3501,-5.3501,-5.3501,-5.3501,0.0,0.0,-5.3501,-5.3501,-5.311,-4.9352,-4.7651,-4.7309,-4.7309,-4.7309,-4.7309,0.0,0.0,0.0,0.0,0.0,0.0,-1.226,-1.3344,-1.4746,-1.7153,-1.7168,-1.7013,-1.7098,-1.6207,-1.5225,-1.423,0.0,0.0,0.0,0.0,0.0,0.0,0.0,0.0,0.0,0.0,0.0,0.0,0.0,0.0,0.0,0.0,0.0,0.0,0.0,0.0,0.0,0.0,0.0,0.0,0.0,0.0,0.0,0.0,0.0,0.0,0.0,0.0,0.0,0.0,0.0,0.0,-2.2732,-2.7313,0.0,0.0,-4.0299,-4.1517,-4.3955,-4.4615,-4.4615,-4.4615,-4.0967,-3.5673,-2.9092,0.0,-2.3731,-2.2533,-2.2296,-2.2296,-2.2296,-2.2296,-2.2685,0.0,-2.9059,-3.3795,0.0,0.0,0.0,0.0,0.0,0.0,0.0,0.0,0.0,0.0,0.0,0.0,-5.3501,-5.3501,-5.3501,-5.3501,-5.3501,-5.3501,-5.3501,-5.3501,-5.3501,-5.3501,-5.3501,-5.3501,-5.3501,-5.3501,-5.3501,-5.3501,-5.3501,0.0,0.0,-5.3501,-5.2026,-4.9591,-4.7961,-4.7309,-4.7309,-4.7309,-4.7309,-4.7309,0.0,0.0,0.0,0.0,0.0,-0.974,-1.1797,-1.2854,-1.424,-1.6498,-1.6473,-1.6357,-1.6641,-1.5919,-1.5011,-1.4049,-1.391,0.0,0.0,0.0,0.0,0.0,0.0,0.0,0.0,0.0,0.0,0.0,0.0,0.0,0.0,0.0,0.0,0.0,0.0,0.0,0.0,0.0,0.0,0.0,0.0,0.0,0.0,0.0,0.0,0.0,0.0,0.0,0.0,0.0,0.0,0.0,0.0,0.0,0.0,0.0,-3.861,-4.057,-4.2702,-4.3921,-4.4395,-4.3498,-3.8751,-3.2544,0.0,0.0,-2.2296,-2.2296,-2.2296,-2.2296,-2.2296,-2.2296,-2.2296,0.0,-2.7317,-3.2662,-3.688,0.0,0.0,0.0,0.0,0.0,0.0,0.0,0.0,0.0,0.0,0.0,0.0,-5.3501,-5.3501,-5.3501,-5.3501,-5.3501,-5.3501,-5.3501,-5.3501,-5.3501,-5.3501,-5.3501,-5.3501,-5.3501,-5.3501,-5.3501,0.0,0.0,0.0,-5.3501,-5.1059,-4.7309,-4.7309,-4.7309,-4.7309,-4.7309,-4.7309,-4.7309,0.0,0.0,0.0,0.0,0.0,0.0,-1.05,-1.2416,-1.4154,-1.5443,-1.5613,-1.5634,-1.5715,-1.51,-1.4539,-1.4131,-1.399,0.0,0.0,0.0,0.0,0.0,0.0,0.0,0.0,0.0,0.0,0.0,0.0,0.0,0.0,0.0,0.0,0.0,0.0,0.0,0.0,0.0,0.0,0.0,0.0,0.0,-1.9708,0.0,0.0,0.0,0.0,0.0,0.0,0.0,0.0,0.0,0.0,0.0,0.0,0.0,-3.5109,-4.0113,-4.0146,-4.233,-4.3887,-4.0891,-3.5678,-3.0835,0.0,-2.549,-2.2296,-2.2296,-2.2296,-2.2296,-2.2296,-2.2296,-2.2296,-2.2296,-2.7317,-3.1207,-3.1275,0.0,0.0,0.0,0.0,0.0,0.0,0.0,0.0,0.0,0.0,0.0,0.0,-5.3501,-5.3501,-5.3501,-5.3501,-5.3501,-5.3501,-5.3501,-5.3501,-5.3501,-5.3501,-5.3501,-5.3501,-5.3501,-5.3501,0.0,0.0,0.0,0.0,-5.3501,-5.1059,-4.7309,-4.7309,-4.7309,-4.7309,-4.7309,-4.7309,-4.7309,0.0,0.0,0.0,0.0,0.0,0.0,0.0,-1.0885,-1.1923,-1.3242,-1.3082,-1.3149,-1.3916,-1.3469,-1.3216,-1.3463,-1.399,0.0,0.0,0.0,0.0,0.0,0.0,0.0,0.0,0.0,0.0,0.0,0.0,0.0,0.0,0.0,0.0,0.0,0.0,0.0,0.0,0.0,0.0,0.0,0.0,-2.0212,-2.0072,0.0,0.0,0.0,0.0,0.0,0.0,0.0,0.0,0.0,0.0,0.0,0.0,-2.2627,0.0,0.0,-3.8996,-4.0807,-3.9351,-3.0209,-3.2645,-3.5035,-2.6387,-2.8027,-2.9649,-2.3564,-2.2296,-2.2296,-2.2296,-2.2296,-2.4983,-3.3136,-3.0886,0.0,0.0,0.0,0.0,0.0,0.0,0.0,0.0,0.0,0.0,0.0,0.0,0.0,0.0,-5.3501,-5.3501,-5.3501,-5.3501,-5.3501,-5.3501,-5.3501,-5.3501,-5.3501,-5.3501,-5.3501,-5.3501,-5.3501,0.0,0.0,0.0,0.0,0.0,-5.6494,-5.287,-4.7309,-4.7309,-4.7309,-4.7309,-4.7309,-4.7309,-4.7309,0.0,0.0,0.0,0.0,0.0,0.0,0.0,-0.9675,-1.0508,-1.1353,-1.1337,-1.1688,-1.2789,-1.2225,-1.2149,-1.3123,-1.3657,0.0,0.0,0.0,0.0,0.0,0.0,0.0,0.0,0.0,0.0,0.0,0.0,0.0,0.0,0.0,0.0,0.0,0.0,0.0,0.0,0.0,0.0,0.0,-2.0621,-2.0277,-1.9842,0.0,0.0,0.0,0.0,0.0,0.0,0.0,0.0,0.0,0.0,0.0,0.0,0.0,-2.3106,-2.8303,0.0,-3.5103,-3.1596,-2.4171,-2.7892,-3.1938,-2.6353,-2.8366,-2.9685,-2.3564,-2.2296,-2.2296,-2.2296,-2.3218,-2.6765,-3.535,-3.3464,0.0,0.0,0.0,0.0,0.0,0.0,0.0,0.0,0.0,0.0,0.0,0.0,0.0,0.0,-5.3501,-5.3501,-5.3501,-5.3501,-5.3501,-5.3501,-5.3501,-5.3501,-5.3501,-5.3501,-5.3501,-5.3501,-5.3501,0.0,0.0,0.0,0.0,0.0,-5.5377,-5.2744,-4.879,-4.879,-4.8177,-4.7429,-4.8416,-4.879,-4.879,0.0,0.0,0.0,0.0,0.0,0.0,0.0,-0.8802,-0.9843,-0.9843,-1.0306,-1.1046,-1.2099,-1.1284,-1.1295,-1.2935,0.0,0.0,0.0,0.0,0.0,0.0,0.0,0.0,0.0,0.0,0.0,-1.9633,-2.0847,-2.1076,-2.0407,0.0,0.0,0.0,0.0,0.0,0.0,0.0,0.0,0.0,-2.0876,-2.0288,0.0,0.0,0.0,0.0,0.0,0.0,0.0,0.0,0.0,0.0,0.0,0.0,0.0,0.0,0.0,0.0,0.0,-2.6387,-2.2137,-2.2194,-2.2237,-2.3511,-2.813,-2.6624,0.0,-2.2567,-2.2296,-2.2296,-2.2296,-2.4642,-2.7598,-3.0696,0.0,0.0,0.0,0.0,0.0,0.0,0.0,0.0,0.0,0.0,0.0,0.0,0.0,0.0,0.0,-5.3501,-5.3501,-5.3501,-5.3501,-5.3501,-5.3501,-5.3501,-5.3501,-5.3501,-5.3501,-5.3501,-5.3501,-5.3501,0.0,0.0,0.0,0.0,0.0,-5.1214,-5.1214,-5.1214,-5.1214,-4.9733,-4.7878,-5.0316,-5.1214,-5.1214,0.0,0.0,0.0,0.0,0.0,0.0,0.0,0.0,0.0,0.0,-0.9755,-1.0181,-1.0458,-1.0257,-1.0608,0.0,0.0,0.0,0.0,0.0,0.0,0.0,0.0,0.0,0.0,0.0,0.0,-1.8942,-2.0252,-2.0993,-2.1221,-2.1965,0.0,0.0,0.0,0.0,0.0,0.0,0.0,0.0,-2.1054,-2.0352,0.0,0.0,0.0,0.0,-1.8565,-1.9031,0.0,0.0,0.0,0.0,0.0,0.0,0.0,0.0,-2.0156,-2.1082,-2.2896,0.0,-2.0465,-2.115,-2.1796,-2.2615,0.0,-2.2889,-2.1917,0.0,0.0,-2.2296,-2.2296,-2.4084,-2.6788,0.0,0.0,0.0,0.0,0.0,0.0,0.0,0.0,0.0,0.0,0.0,0.0,0.0,0.0,0.0,0.0,-5.3501,-5.3501,-5.3501,-5.3501,-5.3501,-5.3501,-5.3501,-5.3501,-5.3501,-5.3501,-5.3501,-5.3501,-5.3501,0.0,0.0,0.0,0.0,-5.1214,-5.1214,-5.1214,-5.1214,-5.1214,-5.084,-5.0376,-5.099,-5.1214,-5.1214,0.0,0.0,0.0,0.0,0.0,0.0,0.0,0.0,0.0,0.0,0.0,-0.9905,-0.9905,-0.9905,0.0,0.0,0.0,0.0,0.0,0.0,0.0,0.0,0.0,0.0,0.0,0.0,0.0,0.0,0.0,-2.1492,0.0,0.0,0.0,0.0,0.0,0.0,0.0,0.0,0.0,0.0,-2.062,0.0,0.0,0.0,0.0,0.0,-1.7773,-1.8327,0.0,-1.9193,-1.965,-2.0241,0.0,0.0,0.0,0.0,-2.0861,-2.0763,-2.0481,-2.1688,-2.3111,-2.3588,-2.3513,-2.3321,-2.3321,0.0,0.0,0.0,0.0,0.0,-2.4154,0.0,0.0,0.0,0.0,0.0,0.0,0.0,0.0,0.0,0.0,0.0,0.0,0.0,0.0,0.0,0.0,0.0,0.0,-5.3501,-5.3501,-5.3501,-5.3501,-5.3501,-5.3501,-5.3501,-5.3501,-5.3501,-5.3501,-5.3501,-5.3501,-5.3501,-5.3501,0.0,0.0,0.0,-5.4094,-5.2048,-5.1214,-5.1214,-5.1214,-5.1214,-5.1214,-5.1214,-5.1214,-5.1214,0.0,0.0,0.0,0.0,0.0,0.0,0.0,0.0,0.0,0.0,0.0,0.0,0.0,0.0,0.0,0.0,0.0,0.0,0.0,0.0,0.0,0.0,0.0,0.0,0.0,0.0,0.0,0.0,0.0,0.0,0.0,0.0,-2.357,0.0,0.0,0.0,0.0,0.0,0.0,-2.1804,-2.0125,0.0,0.0,0.0,0.0,0.0,0.0,0.0,0.0,-1.8729,-1.92,-1.9843,-2.0382,0.0,0.0,0.0,0.0,0.0,-2.0342,-2.3465,-2.6712,-2.6251,-2.5415,-2.4616,-2.4333,0.0,0.0,0.0,0.0,0.0,0.0,0.0,0.0,0.0,0.0,0.0,0.0,0.0,0.0,0.0,0.0,0.0,0.0,0.0,0.0,0.0,0.0,0.0,0.0,-5.3501,-5.3501,-5.3501,-5.3501,-5.3501,-5.3501,-5.3501,-5.3501,-5.3501,-5.3501,-5.3501,-5.3501,-5.3501,-5.3501,-5.3602,0.0,0.0,-5.7554,-5.3061,-5.1214,-5.1214,-5.1214,-5.1214,-5.1214,-5.1214,-5.1214,-5.1214,0.0,0.0,0.0,0.0,0.0,0.0,0.0,0.0,0.0,0.0,0.0,0.0,0.0,0.0,0.0,0.0,0.0,0.0,0.0,0.0,0.0,0.0,0.0,0.0,0.0,0.0,0.0,0.0,0.0,0.0,-2.3638,-2.4281,-2.428,0.0,0.0,0.0,0.0,-2.2296,-2.1552,-2.036,0.0,0.0,0.0,0.0,0.0,0.0,0.0,0.0,0.0,-1.8871,-1.9481,-1.9988,-2.0261,0.0,0.0,0.0,0.0,0.0,-2.2509,-2.4538,-2.5803,-2.3292,-2.4142,-2.5165,0.0,0.0,0.0,0.0,0.0,0.0,0.0,0.0,0.0,0.0,0.0,0.0,0.0,0.0,0.0,0.0,0.0,0.0,0.0,0.0,0.0,0.0,0.0,0.0,0.0,-5.3501,-5.3501,-5.3501,-5.3501,-5.3501,-5.3501,-5.3501,-5.3501,-5.3501,-5.3501,-5.3501,-5.3501,-5.3501,-5.3501,-5.3331,0.0,-5.2325,-5.7554,-5.3061,-5.1214,-5.1214,-5.1214,-5.1214,-5.1214,-5.1214,-5.1214,-5.1214,0.0,0.0,0.0,0.0,0.0,0.0,0.0,0.0,0.0,0.0,0.0,0.0,0.0,0.0,0.0,0.0,0.0,0.0,0.0,0.0,0.0,0.0,0.0,0.0,0.0,0.0,0.0,0.0,0.0,-2.3865,-2.4497,-2.4846,-2.429,-2.297,0.0,0.0,0.0,-2.0555,-1.993,-1.9938,0.0,0.0,0.0,0.0,0.0,0.0,0.0,0.0,0.0,0.0,-1.8481,-1.9319,-1.9411,0.0,0.0,0.0,0.0,0.0,-2.1619,-2.3423,-2.4835,-2.3218,-2.5361,-2.7631,0.0,0.0,0.0,0.0,0.0,0.0,0.0,0.0,0.0,0.0,0.0,0.0,0.0,0.0,0.0,0.0,0.0,0.0,0.0,0.0,0.0,0.0,0.0,0.0,0.0,0.0,-5.3501,-5.3501,-5.3501,-5.3501,-5.3501,-5.3501,-5.3501,-5.3501,-5.3501,-5.3501,-5.3501,-5.3501,-5.2258,-5.0064,0.0,-4.9166,-5.2131,-5.1454,-5.1214,-5.1214,-5.1214,-5.1214,-5.1214,-5.1214,-5.1214,-5.1214,0.0,0.0,0.0,0.0,0.0,0.0,0.0,0.0,0.0,0.0,0.0,0.0,0.0,0.0,0.0,0.0,0.0,0.0,0.0,0.0,0.0,0.0,0.0,0.0,0.0,0.0,-2.076,-2.1018,-2.3047,-2.4281,-2.4713,-2.4941,-2.4054,0.0,0.0,0.0,0.0,-1.878,-1.8459,-1.9352,0.0,0.0,0.0,0.0,0.0,0.0,0.0,0.0,0.0,0.0,0.0,0.0,0.0,0.0,0.0,-2.0601,-2.0862,-2.1151,-2.113,-2.2685,-2.4296,-2.431,0.0,0.0,0.0,0.0,0.0,0.0,0.0,0.0,0.0,0.0,0.0,0.0,0.0,0.0,0.0,0.0,0.0,0.0,0.0,0.0,0.0,0.0,0.0,0.0,0.0,0.0,0.0,0.0,-5.3501,-5.3501,-5.3501,-5.3501,-5.3501,-5.3501,-5.3501,-5.3501,-5.3501,-5.3501,-5.3501,-5.3501,-5.1208,-4.7309,-4.7309,-4.7309,-4.7459,-4.9479,-5.0301,-5.0361,-5.0975,-5.1214,-5.1214,-5.1214,-5.1214,-5.1214,0.0,0.0,0.0,0.0,0.0,0.0,0.0,0.0,0.0,0.0,0.0,0.0,0.0,0.0,0.0,0.0,0.0,0.0,0.0,0.0,0.0,0.0,0.0,0.0,0.0,-2.0416,-2.1535,-2.2537,-2.3822,-2.4259,-2.3902,-2.434,-2.3763,-2.2178,0.0,0.0,0.0,0.0,-1.7867,-1.7952,-1.78,0.0,0.0,0.0,0.0,0.0,0.0,0.0,0.0,0.0,0.0,0.0,0.0,0.0,-2.1506,-2.1506,-2.1521,-2.1871,-2.3251,-2.3951,-2.4633,-2.6056,0.0,0.0,0.0,0.0,0.0,0.0,0.0,0.0,0.0,0.0,0.0,0.0,0.0,0.0,0.0,0.0,0.0,0.0,0.0,0.0,0.0,0.0,0.0,0.0,0.0,0.0,0.0,0.0,0.0,-5.3501,-5.3501,-5.3501,-5.3501,-5.3501,-5.3501,-5.3501,-5.3501,-5.3501,-5.3501,-5.3501,-5.1208,-4.7309,-4.7309,-4.7309,-4.7309,-4.7504,-4.7593,-4.7833,-5.0272,-5.1214,-5.1214,-5.1214,-5.1214,-5.1214,0.0,0.0,0.0,0.0,0.0,0.0,0.0,0.0,0.0,0.0,0.0,0.0,0.0,0.0,0.0,0.0,0.0,0.0,0.0,0.0,0.0,0.0,0.0,-1.8424,-1.9086,-2.0831,-2.2037,-2.2698,-2.3918,-2.4254,-2.3814,-2.4271,0.0,0.0,0.0,0.0,0.0,0.0,-1.8356,-1.8697,-1.8221,-1.7866,0.0,0.0,0.0,0.0,0.0,0.0,0.0,0.0,-1.7633,-1.8438,-1.8667,-1.9889,-2.1132,-2.068,-2.0654,-2.0923,-2.149,-2.3031,0.0,0.0,0.0,0.0,0.0,0.0,0.0,0.0,0.0,0.0,0.0,0.0,0.0,0.0,0.0,0.0,0.0,0.0,0.0,0.0,0.0,0.0,0.0,0.0,0.0,0.0,0.0,0.0,0.0,0.0,0.0,-5.3501,-5.3501,-5.3501,-5.3501,-5.2835,-5.2522,-5.2522,-5.2522,-5.287,-5.3467,-5.215,-5.0009,-4.7309,-4.7309,-4.7309,-4.7309,-4.7309,-4.7309,-4.7563,-5.0197,-5.1214,-5.1214,-5.1214,-5.1214,-5.1214,0.0,0.0,0.0,0.0,0.0,0.0,0.0,0.0,0.0,0.0,0.0,0.0,0.0,0.0,0.0,0.0,0.0,0.0,0.0,0.0,0.0,0.0,0.0,-1.79,-1.8265,-2.044,-2.192,-2.2569,-2.3627,-2.3864,-2.334,0.0,0.0,0.0,0.0,0.0,0.0,0.0,0.0,-1.9263,-1.8504,-1.8046,0.0,0.0,0.0,0.0,0.0,0.0,0.0,0.0,-1.7231,-1.8272,-1.8427,-1.9681,-2.101,-2.0734,-2.1022,-2.1446,-2.1446,-2.3266,-2.54,0.0,0.0,0.0,0.0,0.0,0.0,0.0,0.0,0.0,0.0,0.0,0.0,0.0,0.0,0.0,0.0,0.0,0.0,0.0,0.0,0.0,0.0,0.0,0.0,0.0,0.0,0.0,0.0,0.0,0.0,0.0,-5.3077,-5.2872,-5.299,-5.1938,-5.1266,-5.0914,-5.0914,-5.1377,-5.2117,-5.0242,-4.8666,-4.7309,-4.7309,-4.7309,-4.7309,-4.7309,-4.7309,-4.7563,-5.0197,-5.1214,-5.1214,-5.1214,-5.1214,-5.1214,0.0,0.0,0.0,0.0,0.0,0.0,0.0,0.0,0.0,0.0,0.0,0.0,0.0,0.0,0.0,0.0,0.0,0.0,0.0,0.0,0.0,0.0,0.0,-1.6501,-1.6885,-1.9252,-2.109,-2.2279,-2.3021,-2.3004,-2.2293,-2.231,0.0,0.0,0.0,0.0,0.0,0.0,0.0,0.0,-1.8541,-1.8046,-1.7777,0.0,0.0,0.0,0.0,0.0,0.0,0.0,-1.7249,-1.8134,-1.9546,-2.0558,-2.136,-2.209,-2.3041,-2.3885,-2.3902,-2.5134,0.0,0.0,0.0,0.0,0.0,0.0,0.0,0.0,0.0,0.0,0.0,0.0,0.0,0.0,0.0,0.0,0.0,0.0,0.0,0.0,0.0,0.0,0.0,0.0,0.0,0.0,0.0,0.0,0.0,0.0,0.0,0.0,-5.2132,-5.1566,-5.1869,-5.0892,-4.9852,-4.8784,-4.8784,-4.8957,-4.9249,-4.7904,-4.7309,-4.7309,-4.7309,-4.7309,-4.7309,-4.7309,-4.7309,-4.7563,-5.0167,-5.1199,-5.1214,-5.1214,-5.1214,-5.1214,0.0,0.0,0.0,0.0,0.0,0.0,0.0,0.0,0.0,0.0,0.0,0.0,0.0,0.0,0.0,0.0,0.0,0.0,0.0,0.0,0.0,0.0,0.0,0.0,0.0,0.0,-2.0077,-2.1529,-2.1749,-2.1837,0.0,0.0,0.0,-2.2937,0.0,0.0,0.0,0.0,0.0,0.0,-1.9587,-1.9126,-1.8857,0.0,0.0,0.0,0.0,0.0,0.0,0.0,0.0,0.0,-1.8943,-2.0847,-2.2595,-2.1783,-2.2655,-2.377,-2.3209,-2.535,0.0,0.0,0.0,0.0,0.0,0.0,0.0,0.0,0.0,0.0,0.0,0.0,0.0,0.0,0.0,0.0,0.0,0.0,0.0,0.0,0.0,0.0,0.0,0.0,0.0,0.0,0.0,0.0,0.0,0.0,0.0,0.0,-5.1592,-5.1475,-5.0855,-4.9813,-4.9094,-4.8784,-4.8057,-4.7792,-4.7861,-4.7495,-4.7309,-4.7309,-4.7309,-4.7309,-4.7309,-4.7309,-4.7309,-4.7384,-4.8162,-4.9598,-5.1214,-5.1214,-5.1214,-5.1214,0.0,0.0,0.0,0.0,0.0,0.0,0.0,0.0,0.0,0.0,0.0,0.0,0.0,0.0,0.0,0.0,0.0,0.0,0.0,0.0,0.0,0.0,0.0,0.0,0.0,-1.8267,-1.9362,0.0,0.0,0.0,0.0,0.0,0.0,-2.32,0.0,-2.2592,0.0,0.0,0.0,0.0,-2.0216,-1.9697,-1.936,0.0,0.0,0.0,0.0,0.0,0.0,0.0,0.0,0.0,-1.8473,-2.0026,-2.1667,-2.1986,-2.3246,-2.4796,-2.5797,0.0,0.0,0.0,0.0,0.0,0.0,0.0,0.0,0.0,0.0,0.0,0.0,0.0,0.0,0.0,0.0,0.0,0.0,0.0,0.0,0.0,0.0,0.0,0.0,0.0,0.0,0.0,0.0,0.0,0.0,0.0,0.0,0.0,-5.0322,-4.9994,-4.9773,-4.8733,-4.821,-4.8225,-4.7566,-4.7309,-4.7309,-4.7309,-4.7309,-4.7309,-4.7309,-4.7309,-4.7309,-4.7309,-4.7309,-4.7309,-4.7309,-4.8267,-4.9793,-5.084,-5.1214,-5.1214,0.0,0.0,-0.7311,-0.756,0.0,0.0,0.0,0.0,0.0,0.0,0.0,-1.173,0.0,0.0,0.0,-1.1805,-1.1805,-1.1805,0.0,0.0,0.0,0.0,0.0,0.0,0.0,0.0,0.0,0.0,0.0,0.0,0.0,0.0,-2.2358,-2.3735,0.0,-2.3361,0.0,0.0,0.0,0.0,-2.0499,-1.9903,-1.9468,-1.9414,0.0,0.0,0.0,0.0,0.0,0.0,0.0,0.0,-1.8203,-1.8747,-1.965,-2.2395,-2.434,-2.637,0.0,0.0,0.0,0.0,0.0,0.0,0.0,0.0,0.0,0.0,0.0,0.0,0.0,0.0,0.0,0.0,0.0,0.0,0.0,0.0,0.0,0.0,0.0,0.0,0.0,0.0,0.0,0.0,0.0,0.0,0.0,0.0,0.0,-5.1006,-4.8679,-4.7845,-4.8677,-4.7764,-4.7309,0.0,-4.7309,-4.7309,-4.7309,-4.7309,-4.7309,-4.7309,-4.7309,-4.7309,-4.7309,-4.7309,-4.7309,-4.7309,-4.7309,-4.7309,-4.7593,-4.9987,-5.102,-5.1214,0.0,0.0,-0.7537,-0.7583,0.0,0.0,0.0,0.0,-0.9293,-0.9839,-1.0553,-1.1211,-1.1745,-1.1805,0.0,-1.1805,-1.1805,-1.1805,-1.1805,0.0,0.0,0.0,0.0,0.0,0.0,0.0,0.0,0.0,0.0,0.0,0.0,0.0,0.0,-2.4057,0.0,-2.274,0.0,0.0,0.0,-2.0665,-2.0273,-2.0082,-1.9988,-1.95,-1.8607,0.0,0.0,0.0,0.0,0.0,0.0,0.0,-1.849,-1.9672,-2.0835,-2.1478,-2.3528,-2.6015,0.0,0.0,0.0,0.0,0.0,0.0,0.0,0.0,0.0,0.0,0.0,0.0,0.0,0.0,0.0,0.0,0.0,0.0,0.0,0.0,0.0,0.0,0.0,0.0,0.0,0.0,0.0,0.0,0.0,0.0,0.0,0.0,0.0,-4.8268,-4.8351,-4.8182,-4.7609,-4.7424,-4.7309,0.0,-4.7309,-4.7309,-4.7309,-4.7309,-4.7309,-4.7309,-4.7309,-4.7309,-4.7309,-4.7309,-4.7309,-4.7309,-4.7309,-4.7309,-4.7369,-4.7938,-4.9449,-5.1214,0.0,0.0,0.0,0.0,0.0,0.0,0.0,0.0,-0.9944,-1.0294,-1.0882,-1.1405,-1.176,-1.1805,0.0,0.0,-1.1805,-1.1844,-1.1971,-1.2261,-1.2945,-1.4159,0.0,0.0,0.0,0.0,0.0,0.0,0.0,0.0,0.0,0.0,0.0,-2.4153,0.0,-2.2556,0.0,0.0,-2.0435,-2.036,-2.0307,-1.9957,-1.945,-1.9719,-1.8808,-1.7375,-1.7507,0.0,0.0,0.0,0.0,0.0,0.0,0.0,-2.031,-2.1397,-2.2654,-2.4528,0.0,0.0,0.0,0.0,0.0,0.0,0.0,0.0,0.0,0.0,0.0,0.0,0.0,0.0,0.0,0.0,0.0,0.0,0.0,0.0,0.0,0.0,0.0,0.0,0.0,0.0,0.0,0.0,0.0,0.0,0.0,-5.0849,-4.9678,-4.806,-4.8042,-4.7834,-4.7309,-4.7309,-4.7309,-4.7309,-4.7309,-4.7309,-4.7309,-4.7309,-4.7309,-4.7309,-4.7309,-4.7309,-4.7309,-4.7309,-4.7309,-4.7309,-4.7309,-4.7309,-4.7309,-4.7309,-4.8162,-4.9523,0.0,0.0,0.0,0.0,0.0,0.0,0.0,0.0,0.0,-1.0783,-1.1375,-1.1805,-1.1805,-1.1805,-1.1805,0.0,0.0,0.0,-1.2169,-1.2401,-1.3301,-1.4996,0.0,0.0,0.0,0.0,0.0,0.0,0.0,0.0,0.0,0.0,0.0,-2.4153,0.0,0.0,0.0,0.0,-2.0119,-1.9847,-1.987,-1.9302,-1.8547,-1.9497,-1.8624,-1.6986,-1.7588,-1.7845,-1.7944,-1.829,0.0,0.0,0.0,0.0,-1.9253,-2.1093,-2.1613,-2.2815,0.0,0.0,0.0,0.0,0.0,0.0,0.0,0.0,0.0,0.0,0.0,0.0,0.0,0.0,0.0,0.0,0.0,0.0,0.0,0.0,0.0,0.0,0.0,0.0,0.0,0.0,0.0,0.0,0.0,0.0,-5.1377,-4.9742,-4.8718,-4.8569,-4.7722,-4.7309,-4.7309,-4.7309,-4.7309,-4.7309,-4.7309,-4.7309,-4.7309,-4.7309,-4.7309,-4.7309,-4.7309,-4.7309,-4.7309,-4.7309,-4.7309,-4.7309,-4.7309,-4.7309,-4.7309,-4.7309,-4.7309,-4.7683,0.0,0.0,0.0,0.0,0.0,0.0,0.0,0.0,0.0,0.0,-1.1375,-1.1805,-1.1805,-1.1805,-1.1805,-1.1805,-1.1805,-1.1908,-1.2169,0.0,0.0,0.0,0.0,0.0,0.0,0.0,0.0,0.0,0.0,0.0,0.0,0.0,0.0,-2.4153,0.0,0.0,0.0,0.0,-1.9036,-1.8328,-1.7653,-1.7551,-1.7807,-1.7679,-1.7147,-1.6597,-1.7469,-1.7986,-1.8339,-1.9,-1.923,0.0,0.0,0.0,0.0,0.0,0.0,0.0,0.0,0.0,0.0,0.0,0.0,0.0,0.0,0.0,0.0,0.0,0.0,0.0,0.0,0.0,0.0,0.0,0.0,0.0,0.0,0.0,0.0,0.0,0.0,0.0,0.0,0.0,0.0,0.0,0.0,0.0,-4.928,-4.8948,-4.8403,-4.7538,-4.7381,-4.7309,-4.7309,-4.7309,-4.7309,-4.7309,-4.7309,-4.7309,-4.7309,-4.7309,-4.7309,-4.7309,-4.7309,-4.7309,-4.7309,-4.7309,-4.7309,-4.7309,-4.7309,-4.7309,-4.7309,-4.7309,-4.7309,-4.7683,0.0,0.0,0.0,0.0,0.0,0.0,0.0,0.0,0.0,0.0,0.0,-1.1805,-1.1805,-1.1805,-1.1805,-1.1805,-1.1944,-1.2138,-1.2422,-1.323,0.0,0.0,0.0,0.0,0.0,0.0,0.0,0.0,0.0,0.0,0.0,-2.2795,-2.4061,0.0,0.0,0.0,0.0,0.0,0.0,-1.8414,-1.8301,-1.7463,-1.6447,-1.7855,-1.6975,-1.5023,-1.5257,-1.6608,-1.8358,-1.8669,-1.9291,-1.9774,-1.8981,0.0,0.0,0.0,0.0,0.0,0.0,0.0,0.0,0.0,0.0,0.0,0.0,0.0,0.0,0.0,0.0,0.0,0.0,0.0,0.0,0.0,0.0,0.0,0.0,0.0,0.0,0.0,0.0,0.0,0.0,0.0,0.0,0.0,0.0,-4.9883,-4.9103,-4.8361,-4.7764,-4.7294,-4.7309,-4.7309,-4.7309,-4.7309,-4.7309,-4.7309,-4.7309,-4.7309,-4.7309,-4.7309,-4.7309,-4.7309,-4.7309,-4.7309,-4.7309,-4.7309,-4.7309,-4.7309,-4.7309,-4.7309,-4.7309,-4.7309,-4.7309,-4.7683,0.0,0.0,0.0,0.0,0.0,0.0,0.0,0.0,0.0,0.0,0.0,-1.1805,-1.1805,0.0,0.0,0.0,-1.2076,-1.2342,-1.2668,0.0,0.0,0.0,0.0,0.0,0.0,0.0,0.0,0.0,0.0,0.0,-2.3299,-2.3511,-2.5868,0.0,-2.7181,0.0,0.0,0.0,0.0,-1.9326,-1.8647,-1.6962,-1.5098,-1.7264,-1.6405,-1.409,-1.441,0.0,0.0,0.0,0.0,0.0,0.0,0.0,0.0,0.0,0.0,0.0,0.0,0.0,0.0,0.0,0.0,0.0,0.0,0.0,0.0,0.0,0.0,0.0,0.0,0.0,0.0,0.0,0.0,0.0,0.0,0.0,0.0,0.0,0.0,0.0,0.0,0.0,0.0,0.0,0.0,-4.8351,-4.8517,-4.758,-4.713,-4.7294,-4.7309,-4.7309,-4.7309,-4.7309,-4.7309,-4.7309,-4.7309,-4.7309,-4.7309,-4.7309,-4.7309,-4.7309,-4.7309,-4.7309,-4.7309,-4.7309,-4.7309,-4.7309,-4.7309,-4.7309,-4.7309,-4.7309,-4.7309,-4.7683,0.0,0.0,0.0,0.0,0.0,0.0,0.0,0.0,0.0,0.0,0.0,-1.1805,-1.1805,-1.1805,-1.1897,-1.2164,-1.2179,-1.2422,-1.2942,0.0,0.0,0.0,0.0,0.0,0.0,0.0,0.0,0.0,0.0,0.0,-2.4153,-2.4915,-2.7835,-3.2271,-2.909,-2.6392,-2.4125,0.0,0.0,-2.0942,-1.7271,-1.5055,-1.4023,-1.455,-1.4628,-1.4744,0.0,0.0,0.0,0.0,0.0,0.0,0.0,0.0,0.0,0.0,0.0,0.0,0.0,0.0,0.0,0.0,0.0,0.0,0.0,0.0,0.0,0.0,0.0,0.0,0.0,0.0,0.0,0.0,0.0,0.0,0.0,0.0,0.0,0.0,0.0,0.0,0.0,0.0,0.0,0.0,0.0,-4.5783,-4.6423,-4.6373,-4.6651,-4.7279,-4.7309,-4.7309,-4.7309,-4.7309,-4.7309,-4.7309,-4.7309,-4.7309,-4.7309,-4.7309,-4.7309,-4.7309,-4.7309,-4.7309,-4.7309,-4.7309,-4.7309,-4.7309,-4.7309,-4.7309,-4.7309,-4.7309,-4.7309,-4.7683,0.0,0.0,0.0,0.0,0.0,0.0,0.0,0.0,0.0,0.0,0.0,0.0,0.0,-1.195,-1.2102,-1.2179,-1.251,0.0,0.0,0.0,0.0,0.0,0.0,0.0,0.0,0.0,0.0,0.0,0.0,-1.7575,-2.1832,-2.2694,-2.4281,-2.6473,-2.7383,-2.7879,-2.7783,-2.3793,0.0,0.0,-1.8807,-1.8231,0.0,-2.3708,-2.639,-2.815,0.0,0.0,0.0,0.0,0.0,0.0,-1.9017,-1.8949,-1.8949,-1.7921,0.0,0.0,0.0,0.0,0.0,0.0,0.0,0.0,0.0,0.0,0.0,0.0,0.0,0.0,0.0,0.0,0.0,0.0,0.0,0.0,0.0,0.0,0.0,0.0,0.0,0.0,0.0,0.0,0.0,0.0,0.0,0.0,-4.527,-4.5822,-4.6471,-4.7279,-4.6756,-4.6741,-4.7294,-4.7309,-4.7309,-4.7309,-4.7309,-4.7309,-4.7309,-4.7309,-4.7309,-4.7309,-4.7309,-4.7309,-4.7309,-4.7309,-4.7309,-4.7309,-4.7309,-4.7309,-4.7309,-4.7309,-4.7309,-4.7429,0.0,0.0,0.0,-1.2024,0.0,-1.1746,-1.2372,-1.2006,-1.1822,-1.2279,0.0,0.0,0.0,0.0,-1.3021,-1.2855,-1.3018,0.0,-1.3388,0.0,0.0,0.0,0.0,0.0,0.0,0.0,0.0,0.0,0.0,0.0,0.0,-2.0849,-2.2044,-2.3351,-2.4953,-2.6771,0.0,0.0,0.0,-2.3422,0.0,0.0,-2.3748,0.0,-3.3897,0.0,0.0,0.0,0.0,0.0,0.0,0.0,0.0,-1.9249,-1.899,-1.8065,-1.78,0.0,0.0,0.0,0.0,0.0,0.0,0.0,0.0,0.0,0.0,0.0,0.0,0.0,0.0,0.0,0.0,0.0,0.0,0.0,0.0,0.0,0.0,0.0,0.0,0.0,0.0,0.0,0.0,0.0,0.0,0.0,-4.4539,-4.512,-4.5897,-4.6935,-4.6411,-4.6501,-4.7294,-4.7309,-4.7309,-4.7309,-4.7309,-4.7309,-4.7309,-4.7309,-4.7309,-4.7309,-4.7309,-4.7309,-4.7309,-4.7309,-4.7309,-4.7309,-4.7309,-4.7309,-4.7309,-4.7309,-4.7309,-4.7309,-1.1816,-1.1816,-1.1826,-1.1863,-1.2075,-1.2267,-1.2293,-1.2493,-1.2642,-1.2659,0.0,0.0,0.0,0.0,0.0,-1.4212,-1.3738,-1.3464,-1.343,-1.3534,0.0,0.0,0.0,0.0,0.0,0.0,0.0,0.0,0.0,0.0,0.0,0.0,-2.1543,-2.3542,-2.2132,-2.2884,-2.5261,0.0,-2.5491,-2.5326,0.0,-2.2457,-2.5299,0.0,0.0,0.0,-3.5633,-3.565,0.0,-2.9042,0.0,0.0,0.0,-2.0771,-1.8792,-1.8065,-1.7867,0.0,0.0,0.0,0.0,0.0,0.0,0.0,0.0,0.0,0.0,0.0,0.0,0.0,0.0,0.0,0.0,0.0,0.0,0.0,0.0,0.0,0.0,0.0,0.0,0.0,0.0,0.0,0.0,0.0,0.0,-4.3563,-4.4229,-4.4309,-4.489,-4.6217,-4.6264,-4.6636,-4.7264,-4.7294,-4.7309,-4.7309,-4.7309,-4.7309,-4.7309,-4.7309,-4.7309,-4.7309,-4.7309,-4.7309,-4.7309,-4.7309,-4.7309,-4.7309,-4.7309,-4.7309,-4.7309,-4.7309,-4.7309,-4.7309,-1.2045,-1.2086,-1.2386,-1.3304,-1.353,-1.3818,-1.4549,-1.41,-1.3884,0.0,0.0,0.0,-1.4497,-1.5326,-1.5907,-1.5983,-1.5363,-1.4766,-1.4242,-1.3817,-1.3615,-1.3676,-1.3962,-1.411,0.0,0.0,0.0,0.0,0.0,0.0,0.0,0.0,0.0,0.0,-2.0647,-2.1287,-2.1414,-2.1198,0.0,0.0,-2.401,-2.3828,0.0,0.0,0.0,0.0,0.0,-3.7009,-3.8582,0.0,-3.2966,-2.8112,0.0,0.0,-1.9592,-1.9029,-1.9401,-2.0314,-2.1874,0.0,0.0,0.0,0.0,0.0,0.0,0.0,0.0,0.0,0.0,0.0,0.0,0.0,0.0,0.0,0.0,0.0,0.0,0.0,0.0,0.0,0.0,0.0,0.0,0.0,0.0,0.0,-4.329,-4.3379,-4.3549,-4.4023,-4.4454,-4.484,-4.5771,-4.6369,-4.6591,-4.707,-4.7309,-4.7309,-4.7309,-4.7309,-4.7309,-4.7309,-4.7309,-4.7309,-4.7309,-4.7309,-4.7309,-4.7309,-4.7309,-4.7309,-4.7309,-4.7309,-4.7309,-4.7309,-4.7309,-4.7309,-1.2418,-1.2785,-1.3313,-1.4052,-1.464,-1.5209,-1.5804,-1.5492,-1.5455,0.0,0.0,0.0,0.0,-1.7479,-1.7663,-1.7191,-1.6485,-1.5612,-1.4571,-1.4255,-1.3948,-1.3609,-1.4154,-1.4416,-1.4351,0.0,0.0,0.0,0.0,0.0,0.0,0.0,0.0,0.0,-1.7887,-1.8863,-1.9398,-1.8083,0.0,0.0,-2.647,0.0,0.0,-3.2442,-3.7083,0.0,0.0,0.0,-4.0096,-4.0096,-3.6135,0.0,0.0,-2.3985,-2.2446,-2.0615,-2.0733,0.0,-2.2885,0.0,0.0,0.0,0.0,0.0,0.0,0.0,0.0,0.0,0.0,0.0,0.0,0.0,0.0,0.0,0.0,0.0,0.0,0.0,0.0,0.0,0.0,0.0,0.0,0.0,0.0,-4.2925,-4.314,-4.329,-4.329,-4.3673,-4.3988,-4.4302,-4.508,-4.5711,-4.6279,-4.6711,-4.704,-4.7309,-4.7309,-4.7309,-4.7309,-4.7309,-4.7309,-4.7309,-4.7309,-4.7309,-4.7309,-4.7309,-4.7309,-4.7309,-4.7309,-4.7309,-4.7309,-4.7309,-4.7309,-4.7309,0.0,-1.3717,-1.4413,-1.4601,-1.5644,-1.6514,-1.6691,-1.6836,-1.7213,0.0,-1.8121,0.0,0.0,0.0,-1.9727,-1.8408,-1.7467,-1.635,-1.496,-1.4803,-1.4451,-1.3726,-1.4407,-1.481,-1.4822,-1.4905,0.0,0.0,0.0,0.0,0.0,0.0,0.0,0.0,-1.4881,-1.6352,-1.8533,-1.6559,0.0,-2.3619,-2.8849,-2.9837,0.0,0.0,-4.0096,0.0,-4.0096,-4.0096,-4.0079,-3.9842,-3.6101,0.0,0.0,-2.713,-2.6387,-2.2939,-2.2464,0.0,-2.4535,-2.5227,0.0,0.0,0.0,0.0,-2.8861,-2.841,0.0,0.0,0.0,0.0,0.0,0.0,0.0,0.0,0.0,0.0,0.0,0.0,0.0,0.0,0.0,0.0,0.0,-4.1946,-4.2291,-4.2291,-4.2841,-4.3205,-4.329,-4.329,-4.3559,-4.4182,-4.4272,-4.4885,-4.6097,-4.6204,-4.6621,-4.7189,-4.7264,-4.7309,-4.7309,-4.7309,-4.7309,-4.7309,-4.7309,-4.7309,-4.7309,-4.7309,-4.7309,-4.7309,-4.7309,-4.7309,-4.7309,-4.7309,-4.7309,-4.7309,-1.3876,-1.43,-1.5067,-1.6466,-1.7151,-1.79,-1.9096,-1.8824,-1.8741,-1.9473,0.0,0.0,0.0,0.0,0.0,-2.1451,-1.9604,-1.8099,-1.7208,-1.5523,-1.4499,-1.4329,-1.4633,-1.446,-1.3725,-1.5175,-1.5258,0.0,0.0,0.0,0.0,0.0,0.0,0.0,-1.4927,-1.6078,-1.7281,-1.9807,0.0,-2.504,-2.8182,0.0,-3.7692,-3.9436,-4.0096,-4.0096,-4.0096,-4.0096,-3.9859,-3.8234,-3.5881,-3.3241,0.0,0.0,-2.8979,-2.7076,-2.7059,-2.7613,-2.7319,-2.7749,-2.7865,-2.6186,0.0,0.0,0.0,-2.4454,0.0,0.0,0.0,0.0,0.0,0.0,0.0,0.0,0.0,0.0,0.0,0.0,0.0,0.0,0.0,0.0,0.0,-4.1527,-4.1617,-4.1617,-4.2207,-4.2793,-4.3275,-4.329,-4.3349,-4.3484,-4.4032,-4.4451,-4.4706,-4.5741,-4.6396,-4.6516,-4.7055,-4.7309,-4.7309,-4.7309,-4.7309,-4.7309,-4.7309,-4.7309,-4.7309,-4.7309,-4.7309,-4.7309,-4.7309,-4.7309,-4.7309,-4.7309,-4.7309,-4.7309,-1.4468,-1.5046,-1.5943,-1.7351,-1.8005,-1.8866,-2.0364,-2.0092,-2.0197,-2.1608,0.0,0.0,0.0,0.0,0.0,0.0,-2.0923,-1.9413,-1.7901,-1.6769,-1.5822,-1.5078,-1.55,-1.5526,-1.5056,-1.5809,-1.5613,-1.4393,0.0,0.0,0.0,0.0,0.0,0.0,-1.5544,-1.6875,-1.8689,0.0,-2.2068,-2.4413,-2.8478,0.0,-4.0096,-4.0096,-4.0096,-4.0096,-4.0096,-3.9102,-3.7587,-3.6218,-3.5366,0.0,0.0,-3.2572,-3.2872,0.0,-3.0336,-3.0985,-2.9917,-2.9323,-2.8837,-2.791,0.0,0.0,0.0,0.0,0.0,0.0,0.0,0.0,0.0,0.0,0.0,0.0,0.0,0.0,0.0,0.0,0.0,0.0,0.0,0.0,0.0,-4.0008,-4.0666,-4.1324,-4.1912,-4.2365,-4.283,-4.3127,-4.3307,-4.329,-4.3618,-4.3947,-4.4317,-4.499,-4.5622,-4.6279,-4.6651,-4.6995,-4.7309,-4.7309,-4.7309,-4.7309,-4.7309,-4.7309,-4.7309,-4.7309,-4.7309,-4.7309,-4.7309,-4.7309,-4.7309,-4.7309,-4.7309,-4.7309,-1.499,-1.5807,-1.6768,-1.7648,-1.8529,-1.9528,-2.0788,-2.0759,-2.1347,0.0,0.0,0.0,0.0,0.0,0.0,0.0,0.0,-2.0985,0.0,-1.8628,-1.7631,-1.6289,-1.6671,-1.6819,-1.6604,-1.6486,-1.5983,-1.508,0.0,0.0,0.0,0.0,0.0,0.0,0.0,0.0,0.0,0.0,0.0,-2.4357,0.0,-3.3333,-3.7412,-3.9025,-3.9653,-3.9636,-3.9532,-3.779,-3.5458,-3.5161,0.0,-3.5885,-3.3935,-3.4994,0.0,0.0,0.0,0.0,0.0,0.0,0.0,0.0,0.0,-2.7581,0.0,0.0,0.0,-2.7305,0.0,0.0,0.0,0.0,0.0,0.0,0.0,0.0,0.0,0.0,0.0,0.0,0.0,0.0,0.0,-3.7973,-3.911,-4.0681,-4.0905,-4.125,-4.2038,-4.2756,-4.3178,-4.3304,-4.3299,-4.3544,-4.4122,-4.4302,-4.493,-4.6022,-4.6309,-4.68,-4.7309,-4.7309,-4.7309,-4.7309,-4.7309,-4.7309,-4.7309,-4.7309,-4.7309,-4.7309,-4.7309,-4.7309,-4.7309,-4.7309,-4.7309,-4.7309,-1.5694,-1.6509,-1.7244,-1.7435,-1.8754,-1.9856,-2.0102,-2.0603,-2.168,0.0,0.0,0.0,0.0,0.0,0.0,0.0,0.0,0.0,-2.4664,0.0,-1.9389,-1.8555,-1.798,-1.7222,-1.6281,-1.6863,-1.6343,-1.4679,0.0,0.0,0.0,0.0,-1.4052,-1.487,-1.6638,0.0,0.0,0.0,-2.4091,0.0,-2.8757,-2.819,0.0,-3.5223,-3.8064,-3.8007,-3.7528,-3.6554,-3.5718,0.0,-3.7894,-3.8262,0.0,-3.6906,-3.7342,0.0,0.0,0.0,0.0,0.0,0.0,0.0,-3.0769,0.0,0.0,0.0,-2.6671,-2.4597,0.0,0.0,0.0,0.0,0.0,0.0,0.0,0.0,0.0,0.0,0.0,0.0,0.0,0.0,0.0,0.0,-3.6091,-3.8542,-3.7734,-3.8227,-4.0771,-4.1901,-4.2745,-4.3279,-4.3283,-4.3334,-4.3409,-4.4242,-4.4736,-4.49,-4.6456,-4.7234,-4.7309,-4.7309,-4.7309,-4.7309,-4.7309,-4.7309,-4.7309,-4.7309,-4.7309,-4.7309,-4.7309,-4.7309,-4.7309,-4.7309,-4.7309,-4.7309,-1.5799,-1.6412,-1.7044,-1.735,-1.8393,-1.9386,-1.992,-2.2323,-2.4104,0.0,0.0,0.0,0.0,0.0,0.0,0.0,0.0,-2.6015,0.0,0.0,0.0,-2.0022,-1.9157,-1.8403,-1.7716,-1.7444,-1.6538,-1.5008,-1.4832,0.0,0.0,0.0,-1.5986,-1.7522,-1.9419,0.0,-2.3997,0.0,0.0,0.0,0.0,0.0,0.0,-3.6096,-3.7235,-3.643,-3.6227,-3.5846,-3.5437,0.0,-3.6088,0.0,0.0,0.0,0.0,0.0,0.0,0.0,0.0,0.0,0.0,0.0,0.0,0.0,-2.7395,0.0,-2.7046,0.0,0.0,0.0,0.0,0.0,0.0,0.0,0.0,0.0,0.0,0.0,0.0,0.0,0.0,0.0,0.0,0.0,0.0,0.0,0.0,-3.66,-3.9002,-3.9864,-4.1059,-4.2732,-4.3124,-4.329,-4.329,-4.3678,-4.4167,-4.4706,-4.5439,-4.6322,-4.7309,-4.7309,-4.7309,-4.7309,-4.7309,-4.7309,-4.7309,-4.7309,-4.7309,-4.7309,-4.7309,-4.7309,-4.7309,-4.7309,-4.7309,-4.7309,-1.6054,-1.6398,-1.6804,-1.7147,-1.8031,-1.8985,-1.9797,-2.2721,-2.493,0.0,0.0,0.0,-2.814,-2.8965,0.0,0.0,-3.0045,-2.8512,0.0,0.0,-2.3845,-2.2467,-2.091,-1.9959,-1.9752,-1.85,-1.7127,-1.5676,-1.5264,-1.4826,0.0,0.0,-1.7191,-1.9103,0.0,-2.3763,-2.6144,0.0,0.0,-2.2134,-2.5166,-3.0025,-3.5544,-3.5944,-3.5829,-3.5504,-3.5504,-3.5504,-3.531,-3.3977,-3.5015,0.0,-3.5161,0.0,0.0,0.0,0.0,0.0,-3.4956,0.0,0.0,0.0,0.0,0.0,0.0,0.0,0.0,0.0,0.0,0.0,0.0,0.0,0.0,0.0,0.0,0.0,0.0,0.0,0.0,0.0,0.0,0.0,0.0,0.0,0.0,0.0,0.0,0.0,-3.6454,-3.787,-3.9541,-4.1644,-4.2583,-4.315,-4.329,-4.329,-4.3618,-4.4332,-4.4332,-4.5364,-4.7309,-4.7309,-4.7309,-4.7309,-4.7309,-4.7309,-4.7309,-4.7309,-4.7309,-4.7309,-4.7309,-4.7309,-4.7309,-4.7309,-4.7309,-4.7309,-1.6666,-1.6681,0.0,0.0,-1.7818,-1.8929,-1.9609,-2.0535,-2.2694,0.0,0.0,0.0,0.0,0.0,0.0,0.0,0.0,-3.1441,-3.2053,0.0,-2.682,-2.6719,-2.3502,-2.1876,0.0,-2.0196,-1.8326,-1.6667,-1.6069,-1.5769,0.0,0.0,0.0,0.0,0.0,-2.3766,-2.5608,-2.5182,-2.5916,-2.6911,-2.1994,-2.6207,-3.522,0.0,-3.329,-3.5504,-3.5504,0.0,0.0,-3.5444,-3.6282,0.0,0.0,0.0,0.0,0.0,0.0,0.0,0.0,0.0,0.0,-3.0805,0.0,0.0,0.0,0.0,-2.9352,0.0,0.0,0.0,0.0,0.0,-2.7619,-2.5083,0.0,0.0,0.0,0.0,0.0,0.0,0.0,0.0,0.0,0.0,0.0,0.0,0.0,0.0,-3.285,-3.6165,-3.8616,-3.9956,-4.1562,-4.2701,-4.329,-4.329,-4.3305,-4.3334,-4.3334,-4.471,-4.7309,-4.7309,-4.7309,-4.7309,-4.7309,-4.7309,-4.7309,-4.7309,-4.7309,-4.7309,-4.7309,-4.7309,-4.7309,-4.7309,-4.7309,-4.7309,0.0,0.0,0.0,0.0,0.0,-2.0022,-2.1979,-2.4051,0.0,0.0,0.0,0.0,0.0,-3.128,-3.3456,0.0,0.0,-3.383,-3.3259,-3.0668,0.0,0.0,0.0,-2.4702,0.0,-2.2526,-2.0583,-1.8687,-1.8029,-1.749,0.0,0.0,0.0,0.0,0.0,-2.5315,0.0,0.0,0.0,0.0,0.0,-3.2302,-3.5415,0.0,0.0,-3.5504,-3.5504,-3.5504,0.0,-3.5504,-3.6357,-3.7494,-3.7958,-3.7722,-3.7205,-3.6947,-3.6791,0.0,0.0,0.0,-3.6851,-3.311,0.0,0.0,0.0,0.0,0.0,0.0,0.0,0.0,0.0,0.0,-2.7645,-2.6722,-2.5854,0.0,0.0,0.0,0.0,0.0,0.0,0.0,0.0,0.0,0.0,0.0,0.0,0.0,0.0,-3.5302,-3.7315,-3.9223,-4.1713,-4.3106,-4.329,-4.329,-4.329,-4.3305,-4.3288,-4.4712,-4.7309,-4.7309,-4.7309,-4.7309,-4.7309,-4.7309,-4.7309,-4.7309,-4.7309,-4.7309,-4.7309,-4.7309,-4.7309,-4.7309,-4.7309,-4.7309,-1.8102,0.0,0.0,0.0,0.0,0.0,0.0,0.0,0.0,0.0,-3.145,0.0,-3.1869,0.0,-3.3603,0.0,-3.5789,-3.5354,-3.3975,-3.232,0.0,-3.0655,-2.8601,0.0,0.0,0.0,-2.3242,-2.0771,-2.0094,-1.9181,0.0,0.0,0.0,0.0,0.0,0.0,0.0,0.0,-3.3245,0.0,0.0,-3.5699,0.0,0.0,-3.5908,-3.5983,0.0,-3.6492,-3.6896,-3.6896,-3.7434,-3.8272,-3.9155,-3.8826,-3.8078,-3.7808,-3.7524,-3.733,-3.7584,-3.8018,0.0,-3.4607,-3.4023,0.0,-3.0028,0.0,0.0,0.0,0.0,0.0,0.0,0.0,0.0,-2.8034,-2.6467,-2.4627,0.0,0.0,0.0,0.0,0.0,0.0,0.0,0.0,-2.7324,-2.8543,0.0,0.0,0.0,0.0,-3.6722,-3.8852,-4.1317,-4.2827,-4.329,-4.329,-4.329,-4.3305,-4.3786,-4.4929,-4.6606,-4.7085,-4.7309,-4.7309,-4.7309,-4.7309,-4.7309,-4.7309,-4.7309,-4.7309,-4.7309,-4.7309,-4.7309,-4.7309,-4.7309,-4.7309,0.0,0.0,0.0,0.0,-2.1081,0.0,0.0,0.0,-2.9762,0.0,-3.2512,-3.5699,-3.5699,-3.5699,-3.5699,-3.5699,-3.6462,0.0,-3.4502,-3.3888,0.0,0.0,-3.0851,-3.0088,-3.0642,0.0,0.0,0.0,-2.2119,-2.0722,0.0,0.0,0.0,0.0,-2.3065,0.0,-2.7884,-3.2183,-3.4592,-3.5504,-3.5549,-3.6058,-3.6776,-3.6626,-3.6701,-3.6941,-3.7315,-3.8272,-3.9328,-3.9373,-3.9388,-3.9388,-3.9388,-3.9388,-3.9388,-3.9388,-3.8826,-3.8167,-3.8167,-3.8302,-3.7823,-3.5327,0.0,0.0,0.0,0.0,-3.344,0.0,0.0,0.0,0.0,0.0,0.0,-2.8861,-2.747,-2.545,0.0,0.0,0.0,0.0,0.0,0.0,0.0,0.0,-2.4791,-2.7536,-2.7312,0.0,0.0,0.0,-3.6735,-3.8659,-4.0459,-4.1998,-4.323,-4.329,-4.329,-4.3305,-4.4659,-4.532,-4.5436,-4.6711,-4.7309,-4.7309,-4.7309,-4.7309,-4.7309,-4.7309,-4.7309,-4.7309,-4.7309,-4.7309,-4.7309,-4.7309,-4.7309,-4.7309,-2.021,-2.15,-2.2862,0.0,-2.3565,-2.4403,0.0,0.0,0.0,0.0,-3.6761,-3.8407,-3.8407,-3.8407,-3.8407,-3.8407,-3.8581,0.0,0.0,0.0,0.0,-3.5459,-3.4054,-3.3066,-3.2736,-2.9849,0.0,-2.6342,0.0,0.0,-2.0902,0.0,0.0,0.0,0.0,0.0,-2.7764,-3.0342,-3.3021,-3.5549,-3.6028,-3.6372,0.0,0.0,-3.7808,-3.7973,-3.7943,-3.8153,-3.8521,-3.9164,-3.9388,-3.9388,-3.9388,-3.9388,-3.9388,-3.9388,-3.9224,-3.9059,-3.9059,-3.911,-3.8871,-3.7689,-3.6806,-3.5878,0.0,0.0,0.0,0.0,0.0,0.0,0.0,0.0,0.0,0.0,-2.738,0.0,0.0,0.0,0.0,0.0,0.0,0.0,0.0,-2.3648,-2.5014,-2.6773,-2.651,0.0,0.0,0.0,0.0,-3.7385,-4.0038,-4.1811,-4.2635,-4.309,-4.329,-4.3305,-4.437,-4.5518,-4.6789,-4.7121,-4.7309,-4.7309,-4.7309,-4.7309,-4.7309,-4.7309,-4.7309,-4.7309,-4.7309,-4.7309,-4.7309,-4.7309,-4.7309,-4.7309,-2.1979,0.0,0.0,-2.7111,0.0,0.0,-2.9522,0.0,0.0,-3.5444,-3.7853,0.0,-3.9388,-3.9388,-3.9388,-3.9388,-3.9388,0.0,-3.7075,0.0,0.0,-3.6641,-3.6073,-3.5459,-3.4816,-3.2422,0.0,-2.8049,0.0,0.0,-2.1246,0.0,0.0,0.0,0.0,-2.462,0.0,-3.0791,-3.3679,-3.5968,-3.6342,0.0,0.0,-3.8003,-3.8482,-3.8826,-3.8721,-3.8691,-3.8751,-3.9209,-3.9388,-3.9388,-3.9388,-3.9388,-3.9388,-3.9388,-3.9388,-3.9388,-3.9388,-3.9388,-3.9334,-3.8931,-3.8302,-3.7524,-3.6552,-3.6626,-3.6671,0.0,0.0,0.0,0.0,0.0,0.0,0.0,0.0,0.0,0.0,0.0,0.0,0.0,0.0,0.0,0.0,-2.271,-2.3778,-2.4785,-2.5509,0.0,0.0,0.0,0.0,-3.7116,-3.9631,-4.1452,-4.2396,-4.3015,-4.329,-4.3305,-4.4404,-4.5582,-4.6754,-4.7124,-4.7309,-4.7309,-4.7309,-4.7309,-4.7309,-4.7309,-4.7309,-4.7309,-4.7309,-4.5928,-4.4256,-4.6491,-4.7309,-4.7309,0.0,0.0,0.0,0.0,0.0,0.0,0.0,-3.3095,0.0,-3.4666,0.0,-3.9298,-3.9574,-3.9649,-3.9679,-3.9679,0.0,-3.8527,-3.6417,-3.8257,-3.8701,-3.7225,-3.7494,-3.73,-3.654,-3.5117,-3.2572,0.0,0.0,-2.3917,-2.0946,0.0,0.0,0.0,0.0,0.0,0.0,-3.2377,-3.5282,0.0,-3.6671,-3.7404,-3.8407,-3.8497,-3.8901,-3.9388,-3.9388,-3.9388,-3.9388,-3.9388,-3.9388,-3.9388,-3.9388,-3.9388,-3.9388,-3.9388,-3.9388,-3.9388,-3.9388,-3.9388,-3.9388,-3.9388,-3.9388,-3.9074,-3.7943,-3.7674,-3.7674,-3.7674,-3.6791,-3.6477,0.0,0.0,0.0,0.0,0.0,0.0,0.0,0.0,0.0,0.0,0.0,0.0,0.0,-2.1869,-2.2089,-2.2588,-2.4187,0.0,0.0,0.0,0.0,-3.7345,-3.9349,-4.0995,-4.2261,0.0,-4.329,-4.3305,-4.4661,-4.5544,-4.6037,-4.6905,-4.7309,-4.7309,-4.7309,-4.7309,-4.7309,-4.7309,-4.7309,-4.7207,-4.6594,-4.3598,-4.0224,-4.4688,-4.6299,-4.6403,0.0,0.0,0.0,0.0,0.0,-3.4666,-3.4786,-3.5474,-3.6372,-3.7509,-3.8063,-3.8901,-4.03,-4.0816,-4.104,-4.104,-4.0053,0.0,0.0,0.0,0.0,-3.894,-3.9,-3.8257,-3.6522,-3.4637,-3.2512,0.0,-2.6548,-2.3954,-2.2313,0.0,0.0,0.0,0.0,0.0,-2.9322,-3.2961,0.0,-3.6582,-3.7629,-3.8182,-3.8452,-3.902,-3.932,-3.9388,-3.9388,-3.9388,-3.9388,-3.9388,-3.9388,-3.9388,-3.9388,-3.9388,-3.9388,-3.9388,-3.9388,-3.9388,-3.9388,-3.9388,-3.9388,-3.9388,-3.9388,-3.9328,-3.9089,-3.9065,-3.9065,-3.9065,-3.8886,-3.8497,-3.7719,0.0,0.0,0.0,0.0,0.0,0.0,0.0,0.0,0.0,0.0,0.0,0.0,0.0,-2.2002,0.0,0.0,0.0,0.0,0.0,0.0,0.0,-3.9349,0.0,0.0,0.0,-4.329,-4.3305,-4.4661,-4.5544,-4.6037,-4.6905,-4.7309,-4.7309,-4.7309,-4.7309,-4.7309,-4.7309,-4.7309,-4.6873,-4.2689,-4.0503,-3.9788,-4.0693,-4.1032,-4.1654,0.0,0.0,0.0,0.0,0.0,0.0,0.0,-3.7928,0.0,-4.0172,-3.9409,-3.9074,-3.9911,-4.104,-4.1624,-4.1399,-4.1414,-4.1145,-4.0412,-4.104,-4.0808,-3.9448,-3.9388,0.0,-3.8018,-3.6058,-3.3724,-3.1017,-2.7754,-2.4956,-2.2658,-2.1011,0.0,0.0,0.0,-2.6916,0.0,0.0,0.0,-3.7045,-3.8003,-3.8601,-3.896,-3.929,-3.9388,-3.9388,-3.9388,-3.9388,-3.9388,-3.9388,-3.9388,-3.9388,-3.9388,-3.9388,-3.9388,-3.9388,-3.9388,-3.9388,-3.9388,-3.9388,-3.9388,-3.9388,-3.9388,-3.9388,-3.9388,-3.9388,-3.9388,-3.9388,-3.9388,-3.9005,-3.7659,-3.5549,0.0,0.0,0.0,0.0,0.0,0.0,0.0,0.0,0.0,0.0,0.0,0.0,0.0,0.0,0.0,0.0,0.0,0.0,0.0,0.0,0.0,0.0,0.0,0.0,0.0,-4.3305,-4.4661,-4.5409,-4.5663,-4.68,-4.7309,-4.7309,-4.7309,-4.7309,-4.7309,-4.7309,-4.5734,-4.3122,-4.0642,-3.9697,-3.9697,-3.9697,-3.9697,-4.0032,0.0,-3.3827,0.0,0.0,-3.5774,0.0,-3.6941,-3.9738,-4.1818,-4.1878,-4.0898,-4.021,-4.021,-4.1436,-4.2139,-4.1818,-4.2731,-4.2423,-4.0345,-4.2154,-4.2363,-4.03,-4.021,-4.0053,-3.9634,-3.7973,-3.5489,0.0,-2.949,0.0,0.0,-2.2009,-2.154,-2.2123,0.0,0.0,0.0,0.0,-3.6447,-3.7674,-3.8332,-3.8931,-3.9439,-3.9574,-3.9634,-3.9649,-3.9783,-3.9843,-3.9843,-3.9843,-3.9738,-3.9649,-3.9783,-3.9843,-3.9843,-3.9843,-3.9843,-3.9798,-3.9664,-3.9634,-3.9589,-3.9454,-3.9388,-3.9388,-3.9388,-3.9388,-3.9388,-3.9388,-3.9388,-3.9005,-3.7659,-3.6148,0.0,0.0,0.0,0.0,0.0,0.0,0.0,0.0,0.0,0.0,0.0,0.0,0.0,0.0,0.0,0.0,0.0,0.0,0.0,0.0,0.0,-3.9768,-4.095,0.0,-4.329,-4.3305,-4.4661,-4.5289,-4.5349,-4.6696,-4.7309,-4.7309,-4.7309,-4.7309,-4.7207,-4.6107,-4.3313,-3.9697,-3.9697,-3.9697,-3.9697,-3.9697,-3.9697,-3.9697,0.0,0.0,0.0,0.0,0.0,0.0,-3.6028,-3.9896,-4.2731,-4.1594,-4.2342,-4.2931,-4.2931,-4.3065,-4.3155,-4.311,-4.323,-4.3185,-4.2946,-4.3155,-4.3185,-4.2946,-4.2931,-4.2094,-4.0352,-3.9544,-3.7524,0.0,0.0,-2.8861,0.0,-2.4238,-2.4298,-2.6138,0.0,0.0,0.0,-3.5519,-3.7135,-3.8362,-3.905,-3.9328,-3.9484,-4.0083,-4.0307,-4.0382,-4.098,-4.119,-4.119,-4.119,-4.0801,-4.0412,-4.101,-4.119,-4.119,-4.119,-4.119,-4.107,-4.0472,-4.0307,-4.0172,-3.9574,-3.9388,-3.9388,-3.9388,-3.9388,-3.9388,-3.9388,-3.9388,-3.9005,-3.7659,-3.7255,-3.6522,0.0,0.0,0.0,0.0,0.0,0.0,0.0,0.0,0.0,0.0,0.0,0.0,0.0,0.0,0.0,0.0,0.0,0.0,-3.5415,0.0,-3.8856,-3.9589,-4.2049,-4.329,-4.3305,-4.4661,-4.5289,-4.5349,-4.6696,-4.7309,-4.7309,-4.7309,-4.7309,-4.6931,-4.2315,-4.0121,-3.9697,-3.9697,-3.9697,-3.9697,-3.9697,-3.9697,-3.9697,0.0,0.0,0.0,0.0,0.0,0.0,0.0,-4.1944,-4.311,-4.2626,-4.2961,-4.329,-4.329,-4.329,-4.329,-4.329,-4.329,-4.329,-4.329,-4.329,-4.207,-3.9288,-4.1331,-4.172,-4.0021,-3.9979,-3.8661,0.0,0.0,0.0,0.0,-2.729,-2.744,0.0,0.0,-3.3575,-3.5415,-3.7404,-3.8766,-3.9649,-4.0322,-4.0591,-4.0621,-4.0891,-4.0995,-4.1025,-4.128,-4.1422,-4.1482,-4.1871,-4.1572,-4.104,-4.1332,-4.1422,-4.1422,-4.1422,-4.1422,-4.1324,-4.1055,-4.0995,-4.0935,-4.0666,-4.0307,-4.0008,-4.0008,-3.9709,-3.9388,-3.9388,-3.9388,-3.926,-3.8706,-3.7659,-3.6716,0.0,0.0,0.0,0.0,0.0,0.0,0.0,0.0,0.0,0.0,0.0,0.0,0.0,0.0,-2.1865,-2.6168,0.0,0.0,-3.4158,0.0,-3.914,-3.9388,-4.1974,-4.329,-4.3305,-4.4661,-4.5289,-4.5349,-4.6696,-4.7309,-4.7309,-4.7309,-4.7309,-4.6916,-4.1789,-3.9697,-3.9697,-3.9697,-3.9697,-3.9697,-3.9697,-3.9697,-3.9697,-3.5893,0.0,-3.894,0.0,-4.329,-4.329,-4.329,-4.329,-4.329,-4.329,-4.3977,-4.4157,-4.3379,-4.329,-4.329,-4.329,-4.329,-4.329,-4.329,-4.2029,-4.0118,-3.7553,-4.0167,0.0,-4.0285,-4.0763,-4.0053,-3.8153,-3.6462,0.0,0.0,-3.1091,-3.1315,0.0,-3.4921,-3.6567,-3.7749,-3.932,-4.0262,-4.0726,-4.119,-4.1422,-4.1399,-4.1632,-4.1707,-4.1737,-4.1878,-4.1953,-4.2028,-4.2491,-4.2342,-4.1953,-4.1953,-4.1953,-4.1953,-4.1953,-4.1953,-4.1908,-4.1752,-4.1707,-4.1662,-4.1467,-4.1025,-4.0636,-4.0442,-4.0038,-3.9649,-3.9454,-3.9388,-3.9388,-3.9388,-3.7958,-3.6851,-3.709,0.0,0.0,0.0,0.0,0.0,0.0,-3.0432,-2.845,-2.6999,0.0,0.0,0.0,0.0,-2.3999,-2.6901,0.0,0.0,0.0,0.0,0.0,0.0,-4.1974,-4.3394,-4.3604,-4.4751,-4.5394,-4.5633,-4.6785,-4.7309,-4.7309,-4.7309,-4.7309,-4.7019,-4.3409,-4.1032,-3.9697,-3.9697,-3.9697,-3.9697,-3.9697,-3.9697,-3.9697,-3.6013,-3.9642,-4.323,-4.329,-4.329,-4.329,-4.329,-4.329,-4.329,-4.329,-4.5618,-4.6262,-4.3589,-4.329,-4.329,-4.329,-4.329,-4.329,-4.329,-3.9023,-3.7474,0.0,0.0,-4.1182,-4.1573,-4.2115,-4.2051,-4.1324,0.0,0.0,-3.6402,-3.5729,-3.6103,-3.7389,-3.8751,-3.9723,-4.0397,-4.107,-4.1392,-4.1407,-4.1422,-4.1422,-4.1444,-4.2141,-4.2396,-4.247,-4.3075,-4.3275,-4.3275,-4.329,-4.3275,-4.3275,-4.3275,-4.3275,-4.3275,-4.3275,-4.3275,-4.3125,-4.256,-4.2396,-4.2231,-4.1587,-4.1369,-4.119,-4.0546,-4.0382,-4.0202,-3.9559,-3.9388,-3.9388,-3.9388,-3.8317,-3.721,-3.6596,0.0,0.0,0.0,0.0,0.0,0.0,-2.9609,-2.7598,-2.7511,0.0,0.0,0.0,0.0,-2.8378,-3.0342,0.0,0.0,-3.531,-3.7389,0.0,-3.9373,-4.1974,-4.3618,-4.4317,-4.4975,-4.5648,-4.6294,-4.6995,-4.7309,-4.7309,-4.7309,-4.7309,-4.7309,-4.7207,-4.4256,-3.9697,-3.9697,-3.9697,-3.9697,-3.9697,-3.9697,-3.9697,-4.0973,-4.2154,-4.3873,-4.5723,-4.6037,-4.6037,-4.6037,-4.6037,-4.6037,-4.6037,-4.677,-4.698,-4.6142,-4.6037,-4.6037,0.0,-4.4336,-4.329,0.0,-4.1932,-4.0362,-3.8683,-3.9154,-3.992,-4.0934,-4.1574,-4.2136,-4.2716,0.0,0.0,0.0,-3.8272,-3.8631,-3.9499,-4.0681,-4.1399,-4.1796,-4.1991,-4.2312,-4.2716,-4.2716,-4.2716,-4.2731,-4.294,-4.3015,-4.3045,-4.3215,-4.329,-4.329,-4.329,-4.329,-4.329,-4.329,-4.329,-4.329,-4.329,-4.329,-4.3245,-4.309,-4.3015,-4.297,-4.2761,-4.2387,-4.1916,-4.122,-4.0367,-3.9679,-3.9433,-3.8819,-3.8308,-3.8308,-3.6689,-3.5271,-3.5086,-3.4733,0.0,0.0,0.0,0.0,0.0,-3.2123,-3.093,0.0,-2.9146,0.0,0.0,0.0,0.0,0.0,0.0,0.0,0.0,-3.8018,0.0,-4.0083,-4.2213,-4.3618,-4.4332,-4.4975,-4.5888,-4.6995,-4.7204,-4.7309,-4.7309,-4.7309,-4.7309,-4.7309,-4.7309,-4.4303,-3.9697,-3.9697,-3.9697,-3.9697,-3.9697,-3.9697,-3.9697,-4.329,-4.4097,-4.5308,-4.701,-4.7309,-4.7309,-4.7309,-4.7309,-4.7309,-4.7309,-4.7309,-4.7309,-4.7309,-4.5584,0.0,-4.4442,-4.4674,-4.4784,-4.4784,-4.3013,-4.0976,-3.8755,-3.8669,-3.919,-4.0345,-4.1169,0.0,-4.2337,-4.1488,-4.1033,-4.0838,-4.0636,-4.0876,-4.1534,-4.2168,-4.2596,-4.2731,-4.2731,-4.297,-4.329,-4.329,-4.329,-4.329,-4.329,-4.329,-4.329,-4.329,-4.329,-4.329,-4.329,-4.329,-4.329,-4.329,-4.329,-4.329,-4.329,-4.329,-4.329,-4.329,-4.329,-4.329,-4.329,-4.303,-4.2551,-4.1931,-4.0726,-3.9659,-3.9262,-3.8431,-3.7677,-3.7252,-3.5651,-3.4402,-3.4402,-3.3864,-3.3602,-3.3959,0.0,0.0,0.0,0.0,0.0,0.0,-3.148,0.0,0.0,0.0,0.0,0.0,0.0,0.0,-3.5911,-3.8841,0.0,-4.113,-4.2836,-4.3992,-4.4691,-4.5603,-4.6486,-4.7309,-4.7309,-4.7309,-4.7309,-4.7309,-4.7309,-4.7309,-4.7309,-4.5448,-4.2363,-4.0453,-3.9697,-3.9697,-3.9697,-3.9697,-3.9697,-4.3574,-4.5603,0.0,0.0,-4.7309,0.0,-4.7309,-4.7309,-4.7309,-4.7309,-4.7309,-4.7309,-4.7309,-4.3074,-4.007,-3.9749,0.0,0.0,0.0,-4.2412,-3.9697,-3.9697,-3.9032,-3.9027,-3.9782,-4.0848,-4.1241,-4.0899,-4.0816,-4.17,-4.3424,-4.2821,-4.2865,-4.3424,-4.3469,-4.3469,-4.3424,-4.3424,-4.3424,-4.3424,-4.3424,-4.3424,-4.3424,-4.3424,-4.3424,-4.3424,-4.3424,-4.3424,-4.3424,-4.3424,-4.3424,-4.3424,-4.3424,-4.3424,-4.3409,-4.3319,-4.329,-4.329,-4.329,-4.329,-4.329,-4.329,-4.326,-4.3105,-4.2545,-4.1422,-4.0167,-3.9025,-3.8227,-3.7438,-3.629,-3.5063,-3.4176,-3.4176,-3.3234,-3.282,-3.3774,0.0,0.0,0.0,0.0,0.0,0.0,-3.2991,-3.3679,0.0,0.0,0.0,0.0,0.0,-3.4651,-3.8407,-3.9828,-4.1175,-4.253,-4.3703,-4.4661,-4.5394,-4.6681,-4.7309,-4.7309,-4.7309,-4.7309,-4.7309,-4.7309,-4.7309,-4.7309,-4.7309,-4.7309,-4.6785,-4.169,-3.9697,-3.9697,-3.9697,-3.9697,-3.9697,0.0,0.0,-4.7309,-4.7309,-4.7309,-4.7309,-4.7309,-4.7309,-4.7309,-4.7309,-4.7309,-4.7309,-4.7309,-4.6211,-4.3929,-4.0032,-4.0794,-4.2315,-4.4256,-4.1455,-3.9697,-3.9697,-3.9521,-3.9537,-3.9728,-4.0048,-4.1063,-4.275,-4.2725,-4.345,-4.4825,-4.4362,-4.4392,-4.484,-4.52,-4.517,-4.4825,-4.4825,-4.4825,-4.4825,-4.4825,-4.4825,-4.4825,-4.4825,-4.4825,-4.4825,-4.4825,-4.4825,-4.4825,-4.4825,-4.4825,-4.4825,-4.4825,-4.4825,-4.4631,-4.3589,-4.329,-4.329,-4.329,-4.329,-4.329,-4.329,-4.2955,-4.259,-4.2425,-4.1767,-4.0717,-3.9112,-3.8011,-3.6872,-3.5332,-3.3418,-3.2103,-3.2103,-3.178,-3.1852,-3.282,-3.3439,0.0,0.0,-3.534,-3.5489,-3.5325,-3.5594,-3.5579,0.0,0.0,0.0,0.0,-3.6537,-3.7898,-3.9858,-4.1242,-4.256,-4.3838,-4.4167,-4.49,-4.6097,-4.692,-4.7309,-4.7309,-4.7309,-4.7309,-4.7309,-4.7309,-4.7309,-4.7309,-4.7309,-4.7309,-4.6785,-4.169,-3.9697,-3.9697,-3.9697,-3.9697,-3.9697,-4.7309,-4.7309,-4.7309,-4.7309,-4.7309,-4.7309,-4.7309,-4.7309,-4.7309,-4.7309,-4.7309,-4.6403,-4.4069,-4.3834,-4.2689,-3.9929,-4.1838,-4.2786,-4.1838,-4.0453,-3.9697,-3.9697,-3.9697,-3.9697,-3.9697,-3.9726,-4.0535,-4.2127,-4.2452,-4.3255,-4.4418,-4.4802,-4.5095,-4.5304,-4.5559,-4.5529,-4.5289,-4.5289,-4.5289,-4.5289,-4.5289,-4.5289,-4.5289,-4.5289,-4.5289,-4.5289,-4.5289,-4.5289,-4.5289,-4.5289,-4.5289,-4.5289,-4.5289,-4.5289,-4.5155,-4.4436,-4.4018,-4.3738,-4.3738,-4.3529,-4.329,-4.329,-4.306,-4.2673,-4.2153,-4.1533,-4.0459,-3.8543,-3.7208,-3.6002,-3.4591,-3.2708,-3.1386,-3.1386,-3.0917,-3.1057,-3.2429,-3.3031,0.0,-3.5728,-3.6267,-3.6596,-3.6881,-3.718,-3.709,-3.6432,-3.6941,0.0,-3.73,-3.8856,-3.9948,-4.0382,-4.1707,-4.2985,-4.4302,-4.493,-4.5753,-4.677,-4.713,-4.7309,-4.7309,-4.7309,-4.7309,-4.7309,-4.7309,-4.7309,-4.7309,-4.7309,-4.7309,-4.7019,-4.4256,-4.1739,-3.9697,-3.9697,-3.9697,-3.9697,-4.6299,-4.6166,-4.6403,-4.7164,-4.7309,-4.7309,-4.7309,-4.7309,-4.7309,-4.7309,-4.6638,-4.4503,-4.0173,-3.9697,-3.9697,-3.9697,-4.3646,-4.4303,-3.9981,-3.9697,-3.9697,-3.9697,-3.9697,-3.9697,-3.9697,-3.9697,-4.0032,-4.0732,-4.1396,-4.2367,-4.3718,-4.4812,-4.5421,-4.5603,-4.5603,-4.5603,-4.5603,-4.5603,-4.5603,-4.5603,-4.5603,-4.5603,-4.5603,-4.5603,-4.5603,-4.5603,-4.5603,-4.5603,-4.5603,-4.5603,-4.5603,-4.5603,-4.5603,-4.5603,-4.5603,-4.5603,-4.514,-4.4601,-4.4496,-4.3947,-4.3439,-4.3439,-4.3364,-4.2981,-4.185,-4.1184,-4.008,-3.7779,-3.6458,-3.5404,-3.4142,-3.2591,-3.1486,-3.1399,-3.0495,-3.0394,-3.2141,0.0,-3.3438,-3.5969,-3.6514,-3.695,-3.7624,-3.8302,-3.8497,-3.8048,-3.8975,-3.9619,-3.9709,-4.0876,-4.1234,-4.0568,-4.1766,-4.3031,-4.4284,-4.5759,-4.6756,-4.7309,-4.7309,-4.7309,-4.7309,-4.7309,-4.7309,-4.7309,-4.7309,-4.7309,-4.7309,-4.7309,-4.7309,-4.7207,-4.6447,-4.3504,-3.9697,-3.9697,-3.9697,-3.9697,-4.1739,-4.0882,-4.2217,-4.6535,-4.7309,-4.7309,-4.7309,-4.7309,-4.7309,-4.7309,-4.3551,-4.0605,-3.9788,-3.9697,-3.9697,-3.9697,-4.0415,-4.0554,-3.9736,-3.9697,-3.9697,-3.9697,-3.9697,-3.9697,-3.9697,-3.9697,-4.0275,-4.1423,-4.1563,-4.2801,-4.5101,-4.528,-4.5947,-4.6995,-4.6995,-4.6995,-4.6995,-4.6995,-4.6995,-4.6995,-4.6995,-4.6995,-4.6995,-4.6995,-4.6995,-4.6995,-4.6995,-4.6995,-4.6995,-4.6995,-4.6995,-4.6995,-4.6995,-4.6995,-4.6995,-4.6995,-4.6531,-4.5888,-4.5304,-4.4661,-4.4127,-4.4127,-4.3708,-4.2981,-4.185,-4.1515,-4.0646,-3.7859,-3.7149,-3.6389,-3.4281,-3.2905,-3.1938,-3.1461,-3.0495,-3.0177,-3.1241,0.0,-3.288,-3.4998,-3.6635,-3.7974,-3.8988,-3.9709,-4.0277,-4.0726,-4.0442,-4.0487,-4.1055,-4.1826,-4.1942,-4.1264,-4.1986,-4.304,-4.4385,-4.6208,-4.7204,-4.7309,-4.7309,-4.7309,-4.7309,-4.7309,-4.7309,-4.7309,-4.7309,-4.7309,-4.7309,-4.7309,-4.7309,-4.6873,-4.2544,-4.0415,-3.9697,-3.9697,-3.9697,-3.9697,-4.4256,-4.1604,-4.1319,-4.6403,-4.7309,-4.6358,-4.3646,-4.3218,-4.3218,-4.3218,-4.1169,-3.9697,-3.9697,-3.9697,-3.9697,-3.9697,-3.9697,-3.9697,-3.9697,-3.9697,-3.9697,-3.9697,-3.9697,-3.9697,-3.9697,-3.9697,-3.9981,-4.0605,-4.1269,-4.2217,-4.3361,-4.478,-4.5734,-4.6299,-4.6975,-4.7309,-4.7309,-4.7309,-4.7309,-4.7309,-4.7309,-4.7309,-4.7309,-4.7309,-4.7309,-4.7309,-4.7309,-4.7309,-4.7309,-4.7309,-4.7309,-4.7309,-4.7309,-4.7309,-4.7309,-4.7309,-4.6845,-4.613,-4.5484,-4.5065,-4.484,-4.484,-4.3853,-4.2621,-4.144,-4.0427,-3.9163,-3.7202,-3.6566,-3.6025,-3.4967,-3.3633,-3.2692,-3.2742,-3.1336,0.0,0.0,-3.2462,-3.3227,-3.5353,-3.7139,-3.8577,-3.9414,-4.0388,-4.1055,-4.1392,-4.11,-4.122,-4.1916,-4.1888,-4.1623,-4.1025,-4.1966,-4.3081,-4.4408,-4.5652,-4.6638,-4.7309,-4.7309,-4.7309,-4.7309,-4.7309,-4.7309,-4.7309,-4.7309,-4.7309,-4.7309,-4.7309,-4.7309,-4.6785,-4.169,-3.9697,-3.9697,-3.9697,-3.9697,-3.9697,-4.5644,-4.2363,-4.0932,-4.4826,-4.5539,-4.421,-4.0313,-3.9697,-3.9697,-3.9697,-3.9697,-3.9697,-3.9697,-3.9697,-3.9697,-3.9697,-3.9697,-3.9697,-3.9697,-3.9697,-3.9697,-3.9697,-3.9697,-3.9697,-3.9697,-3.9697,-3.9697,-3.9697,-4.0693,-4.1319,-4.1654,-4.3598,-4.4826,-4.5448,-4.6403,-4.7019,-4.7309,-4.7309,-4.7309,-4.7309,-4.7309,-4.7309,-4.7309,-4.7309,-4.7309,-4.7309,-4.7309,-4.7309,-4.7309,-4.7309,-4.7309,-4.7309,-4.7309,-4.7309,-4.7309,-4.7309,-4.695,-4.6441,-4.5903,-4.5648,-4.5445,-4.5164,-4.3943,-4.2396,-4.0931,-3.9387,-3.7965,-3.6818,-3.6119,-3.5658,-3.552,-3.4399,-3.3558,-3.3847,0.0,0.0,0.0,-3.3255,-3.3778,-3.571,-3.7578,-3.8999,-3.9754,-4.1067,-4.1833,-4.1833,-4.1833,-4.2002,-4.2392,-4.1889,-4.1325,-4.0704,-4.16,-4.2768,-4.416,-4.5008,-4.6018,-4.7309,-4.7309,-4.7309,-4.7309,-4.7309,-4.7309,-4.7309,-4.7309,-4.7309,-4.7309,-4.7309,-4.7309,-4.6785,-4.169,-3.9697,-3.9697,-3.9697,-3.9697,-3.9697,-4.0693,-3.9981,-3.9839,-4.0173,-4.0262,-4.0121,-3.9736,-3.9697,-3.9697,-3.9697,-3.9697,-3.9697,-3.9697,-3.9697,-3.9697,-3.9697,-3.9697,-3.9697,-3.9697,-3.9697,-3.9697,-3.9697,-3.9697,-3.9697,-3.9697,-3.9697,-3.9697,-3.9697,-3.9788,-4.0465,-4.1604,-4.1789,-4.3122,-4.5403,-4.5494,-4.6211,-4.7309,-4.7309,-4.7309,-4.7309,-4.7309,-4.7309,-4.7309,-4.7309,-4.7309,-4.7309,-4.7309,-4.7309,-4.7309,-4.7309,-4.7309,-4.7309,-4.7309,-4.7309,-4.7309,-4.7309,-4.7279,-4.7219,-4.7174,-4.6711,-4.5919,-4.4763,-4.3891,-4.2731,-4.0395,-3.9348,-3.8507,-3.74,-3.6732,-3.6144,-3.5596,-3.4981,-3.4449,-3.3972,0.0,0.0,-3.3122,-3.3537,-3.4232,-3.5413,-3.7559,-3.9382,-4.0443,-4.2103,-4.314,-4.314,-4.314,-4.2953,-4.2449,-4.2352,-4.1819,-4.0623,-4.0839,-4.1793,-4.3576,-4.4812,-4.6018,-4.7309,-4.7309,-4.7309,-4.7309,-4.7309,-4.7309,-4.7309,-4.7309,-4.7309,-4.7309,-4.7309,-4.7309,-4.6785,-4.169,-3.9697,-3.9697,-3.9697,-3.9697,-3.9697,-3.989,-3.9697,-3.9697,-3.9697,-3.9697,-3.9697,-3.9697,-3.9697,-3.9697,-3.9697,-3.9697,-3.9697,-3.9697,-3.9697,-3.9697,-3.9697,-3.9697,-3.9697,-3.9697,-3.9697,-3.9697,-3.9697,-3.9697,-3.9697,-3.9697,-3.9697,-3.9697,-3.9697,-3.9697,-3.9929,-4.0465,-4.1219,-4.2558,-4.4256,-4.507,-4.6107,-4.7309,-4.7309,-4.7309,-4.7309,-4.7309,-4.7309,-4.7309,-4.7309,-4.7309,-4.7309,-4.7309,-4.7309,-4.7309,-4.7309,-4.7309,-4.7309,-4.7309,-4.7309,-4.7309,-4.7309,-4.7309,-4.7309,-4.7309,-4.7115,-4.6603,-4.5327,-4.4001,-4.2522,-4.0821,-3.9345,-3.8248,-3.7786,-3.7525,-3.7211,-3.6659,-3.6107,-3.5667,-3.5454,0.0,-3.3822,-3.4512,-3.45,-3.4959,-3.642,-3.7687,-3.9166,-4.102,-4.1843,-4.2249,-4.2249,-4.2558,-4.232,-4.1403,-4.1292,-4.0895,-4.0069,-4.0095,-4.0811,-4.2315,-4.3598,-4.4872,-4.6107,-4.6916,-4.7309,-4.7309,-4.7309,-4.6873,-4.6107,-4.6107,-4.5973,-4.5824,-4.6873,-4.7309,-4.6785,-4.169,-3.9697,-3.9697,-3.9697,-3.9697,-3.9697,-3.9697,-3.9697,-3.9697,-3.9697,-3.9697,-3.9697,-3.9697,-3.9697,-3.9697,-3.9697,-3.9697,-3.9697,-3.9697,-3.9697,-3.9697,-3.9697,-3.9697,-3.9697,-3.9697,-3.9697,-3.9697,-3.9697,-3.9697,-3.9697,-3.9697,-3.9697,-3.9697,-3.9697,-3.9697,-3.9697,-3.9749,-4.0605,-4.1887,-4.3551,-4.4396,-4.5734,-4.7309,-4.7309,-4.7309,-4.7309,-4.7309,-4.7309,-4.7309,-4.7309,-4.7309,-4.7309,-4.7309,-4.7019,-4.6682,-4.6682,-4.6447,-4.6107,-4.6107,-4.6403,-4.6682,-4.6682,-4.6682,-4.6638,-4.6211,-4.6107,-4.5928,-4.5024,-4.3561,-4.2032,-4.073,-3.9341,-3.8278,-3.8278,-3.814,-3.7889,-3.7513,-3.7136,-3.6872,-3.6872,-3.578,-3.519,-3.5909,-3.5579,-3.5674,-3.6871,-3.7657,-3.8725,-4.0333,-4.0986,-4.1312,-4.1312,-4.1795,-4.1707,-4.0731,-4.0469,-4.0106,-3.9724,-3.9697,-4.0121,-4.0982,-4.2266,-4.374,-4.5403,-4.6299,-4.6682,-4.6682,-4.6682,-4.6018,-4.4826,-4.507,-4.507,-4.4918,-4.6594,-4.7309,-4.6785,-4.169,-3.9697,-3.9697,-3.9697,-3.9697,-3.9697,-3.9697,-3.9697,-3.9697,-3.9697,-3.9697,-3.9697,-3.9697,-3.9697,-3.9697,-3.9697,-3.9697,-3.9697,-3.9697,-3.9697,-3.9697,-3.9697,-3.9697,-3.9697,-3.9697,-3.9697,-3.9697,-3.9697,-3.9697,-3.9697,-3.9697,-3.9697,-3.9697,-3.9697,-3.9697,-3.9697,-3.9697,-3.9697,-4.1082,-4.3504,-4.3504,-4.4918,-4.7309,-4.7309,-4.7309,-4.7309,-4.7309,-4.7309,-4.7309,-4.7309,-4.7309,-4.7309,-4.7309,-4.6447,-4.5403,-4.5403,-4.4549,-4.3504,-4.3504,-4.4349,-4.5403,-4.5403,-4.5403,-4.5115,-4.3834,-4.3504,-4.3504,-4.3504,-4.2558,-4.1269,-3.9981,-3.927,-3.8932,-3.8932,-3.8417,-3.8015,-3.8015,-3.8015,-3.8015,-3.8002,-3.755,-3.7199,-3.7199,-3.6769,-3.6417,-3.6417,-3.7428,-3.8121,-3.8121,-3.9699,-4.0711,-4.0711,-4.1186,-4.1205,-4.0623,-4.0007,-3.9697,-3.9697,-3.9697,-3.9697,-3.9697,-4.0982,-4.2882,-4.5403,-4.5403,-4.5403,-4.5403,-4.5403,-4.4688,-4.3551,-4.4396,-4.478,-4.4872,-4.6535,-4.7251,-4.6726,-4.1654,-3.9697,-3.9697,-3.9697,-3.9697,-3.9697,-3.9697,-3.9697,-3.9697,-3.9697,-3.9697,-3.9697,-3.9697,-3.9697,-3.9697,-3.9697,-3.9697,-3.9697,-3.9697,-3.9697,-3.9697,-3.9697,-3.9697,-3.9697,-3.9697,-3.9697,-3.9697,-3.9697,-3.9697,-3.9697,-3.9697,-3.9697,-3.9697,-3.9697,-3.9697,-3.9697,-3.9697,-3.9697,-4.1082,-4.3504,-4.3504,-4.4918,-4.7309,-4.7309,-4.7309,-4.7309,-4.7309,-4.7309,-4.7309,-4.7309,-4.7309,-4.7164,-4.6299,-4.5734,-4.5252,-4.4349,-4.3834,-4.3504,-4.3504,-4.374,-4.4069,-4.4069,-4.4069,-4.3975,-4.3598,-4.2834,-4.2168,-4.2168,-4.1887,-4.1269,-3.9981,-3.9572,-3.9446,-3.9446,-3.9308,-3.9069,-3.868,-3.8617,-3.8479,-3.8078,-3.7864,-3.7764,-3.7764,-3.7613,-3.784,-3.8679,-3.8345,-3.8687,-4.0313,-4.0212,-4.0054,-4.0054,-3.9817,-3.9743,-3.9944,-3.9802,-3.9697,-3.9697,-3.9697,-3.9697,-3.9697,-4.1838,-4.3313,-4.4069,-4.4978,-4.5403,-4.5358,-4.4456,-4.3551,-4.2593,-4.2882,-4.2315,-4.1269,-4.1739,-4.1985,-4.1838,-4.0262,-3.9697,-3.9697,-3.9697,-3.9697,-3.9697,-3.9697,-3.9697,-3.9697,-3.9697,-3.9697,-3.9697,-3.9697,-3.9697,-3.9697,-3.9697,-3.9697,-3.9697,-3.9697,-3.9697,-3.9697,-3.9697,-3.9697,-3.9697,-3.9697,-3.9697,-3.9697,-3.9697,-3.9697,-3.9697,-3.9697,-3.9697,-3.9697,-3.9697,-3.9697,-3.9697,-3.9697,-3.9697,-4.0794,-4.2738,-4.2738,-4.3882,-4.5779,-4.5779,-4.5779,-4.5779,-4.5779,-4.5779,-4.5824,-4.6358,-4.6255,-4.5779,-4.5494,-4.4734,-4.3787,-4.3026,-4.2412,-4.207,-4.2593,-4.2738,-4.2738,-4.2738,-4.2738,-4.2641,-4.2119,-4.1406,-4.0844,-4.0844,-4.0844,-4.0642,-3.989,-3.9697,-3.9697,-3.9697,-3.9697,-3.9597,-3.9258,-3.9195,-3.9082,-3.873,-3.8492,-3.8354,-3.8354,-3.8153,-3.8285,-3.8991,-3.8432,-3.8554,-3.9965,-3.9703,-3.9527,-3.9747,-3.9436,-3.9346,-3.9672,-3.9697,-3.9697,-3.9697,-3.9697,-3.9697,-3.9697,-4.1739,-4.2738,-4.2738,-4.3551,-4.3882,-4.3882,-4.3122,-4.2168,-4.1219,-4.1219,-4.0655,-3.9697,-3.9697,-3.9697,-3.9697,-3.9697,-3.9697,-3.9697,-3.9697,-3.9697,-3.9697,-3.9697,-3.9697,-3.9697,-3.9697,-3.9697,-3.9697,-3.9697,-3.9697,-3.9697,-3.9697,-3.9697,-3.9697,-3.9697,-3.9697,-3.9697,-3.9697,-3.9697,-3.9697,-3.9697,-3.9697,-3.9697,-3.9697,-3.9697,-3.9697,-3.9697,-3.9697,-3.9697,-3.9697,-3.9697,-3.9697,-3.9697,-3.9697,-4.0364,-4.1604,-4.1604,-4.2315,-4.3504,-4.3504,-4.3504,-4.3504,-4.3504,-4.3504,-4.3646,-4.478,-4.4503,-4.3646,-4.4688,-4.3551,-4.1604,-4.1455,-4.0642,-3.989,-4.1082,-4.1505,-4.1604,-4.1604,-4.1604,-4.1369,-4.0173,-3.9788,-3.9697,-3.9697,-3.9697,-3.9697,-3.9697,-3.9697,-3.9697,-3.9697,-3.9697,-3.9697,-3.9697,-3.9697,-3.9697,-3.9697,-3.927,-3.8994,-3.8994,-3.8492,-3.8153,-3.8153,-3.8153,-3.8153,-3.8153,-3.863,-3.9145,-3.9647,-3.9697,-3.9697,-3.9697,-3.9697,-3.9697,-3.9697,-3.9697,-3.9697,-3.9697,-4.0844,-4.1505,-4.1604,-4.1604,-4.1604,-4.1604,-4.1455,-4.0794,-3.9697,-3.9697,-3.9697,-3.9697,-3.9697,-3.9697,-3.9697,-3.9697,-3.9697,-3.9697,-3.9697,-3.9697,-3.9697,-3.9697,-3.9697,-3.9697,-3.9697,-3.9697,-3.9697,-3.9697,-3.9697,-3.9697,-3.9697,-3.9697,-3.9697,-3.9697,-3.9697,-3.9697,-3.9697,-3.9697,-3.9697,-3.9697,-3.9697,-3.9697,-3.9697,-3.9697,-3.9697,-3.9697,-3.9697,-3.9697,-3.9697,-3.9697,-3.9697,-3.9697,-3.9697,-4.0364,-4.1604,-4.1604,-4.2315,-4.3504,-4.3504,-4.3504,-4.3504,-4.3504,-4.3504,-4.3551,-4.3834,-4.374,-4.3409,-4.2689,-4.207,-4.1455,-4.0453,-3.9929,-3.9736,-4.0032,-4.0794,-4.1604,-4.1604,-4.1604,-4.1555,-4.1269,-4.0453,-3.9697,-3.9697,-3.9697,-3.9697,-3.9697,-3.9697,-3.9697,-3.9697,-3.9697,-3.9697,-3.9697,-3.9697,-3.9697,-3.9697,-3.9597,-3.9521,-3.9521,-3.9408,-3.9333,-3.9333,-3.9333,-3.9333,-3.9333,-3.9446,-3.9559,-3.9685,-3.9697,-3.9697,-3.9697,-3.9697,-3.9697,-3.9697,-3.9697,-3.9697,-3.9697,-3.9981,-4.0605,-4.1604,-4.1604,-4.1604,-4.1555,-4.0554,-3.9981,-3.9697,-3.9697,-3.9697,-3.9697,-3.9697,-3.9697,-3.9697,-3.9697,-3.9697,-3.9697,-3.9697,-3.9697,-3.9697,-3.9697,-3.9697,-3.9697,-3.9697,-3.9697,-3.9697,-3.9697,-3.9697,-3.9697,-3.9697,-3.9697,-3.9697,-3.9697,-3.9697,-3.9697,-3.9697,-3.9697,-3.9697,-3.9697,-3.9697,-3.9697,-3.9697,-3.9697,-3.9697,-3.9697,-3.9697,-3.9697,-3.9697,-3.9697,-3.9697,-3.9697,-3.9697,-4.0083,-4.0693,-4.0693,-4.1082,-4.169,-4.169,-4.169,-4.169,-4.169,-4.169,-4.1739,-4.2363,-4.2217,-4.169,-4.1604,-4.1219,-4.0605,-3.9929,-3.9697,-3.9697,-3.9697,-4.0554,-4.1604,-4.1604,-4.2035,-4.2363,-4.1789,-4.1119,-4.0453,-3.9839,-3.9697,-3.9697,-3.9697,-3.9697,-3.9697,-3.9697,-3.9697,-3.9697,-3.9697,-3.9697,-3.9697,-3.9697,-3.9697,-3.9697,-3.9697,-3.9697,-3.9697,-3.9697,-3.9697,-3.9697,-3.9697,-3.9697,-3.9697,-3.9697,-3.9697,-3.9697,-3.9697,-3.9697,-3.9697,-3.9697,-3.9697,-3.9697,-3.9697,-3.9697,-4.0032,-4.0693,-4.0693,-4.0693,-4.0642,-3.9981,-3.9697,-3.9697,-3.9697,-3.9697,-3.9697,-3.9697,-3.9697,-3.9697,-3.9697,-3.9697,-3.9697,-3.9697,-3.9697,-3.9697,-3.9697,-3.9697,-3.9697,-3.9697,-3.9697,-3.9697,-3.9697,-3.9697,-3.9697,-3.9697,-3.9697,-3.9697,-3.9697,-3.9697,-3.9697,-3.9697,-3.9697,-3.9697,-3.9697,-3.9697,-3.9697,-3.9697,-3.9697,-3.9697,-3.9697,-3.9697,-3.9697,-3.9697,-3.9697,-3.9697,-3.9697,-3.9697,-3.9697,-3.9697,-3.9697,-3.9697,-3.9697,-3.9697,-3.9697,-3.9697,-3.9697,-3.9697,-3.9839,-4.0882,-4.0605,-3.9839,-4.0882,-4.0605,-3.9697,-3.9697,-3.9697,-3.9736,-3.9981,-4.0882,-4.1985,-4.2168,-4.2834,-4.3266,-4.2217,-4.1604,-4.1032,-3.9981,-3.9697,-3.9697,-3.9697,-3.9697,-3.9697,-3.9697,-3.9697,-3.9697,-3.9697,-3.9697,-3.9697,-3.9697,-3.9697,-3.9697,-3.9697,-3.9697,-3.9697,-3.9697,-3.9697,-3.9697,-3.9697,-3.9697,-3.9697,-3.9697,-3.9697,-3.9697,-3.9697,-3.9697,-3.9697,-3.9697,-3.9697,-3.9697,-3.9697,-3.9697,-3.9697,-3.9697,-3.9697,-3.9697,-3.9697,-3.9697,-3.9697,-3.9697,-3.9697,-3.9697,-3.9697,-3.9697,-3.9697,-3.9697,-3.9697,-3.9697,-3.9697,-3.9697,-3.9697,-3.9697,-3.9697,-3.9697,-3.9697,-3.9697,-3.9697,-3.9697,-3.9697,-3.9697,-3.9697,-3.9697,-3.9697,-3.9697,-3.9697,-3.9697,-3.9697,-3.9697,-3.9697,-3.9697,-3.9697,-3.9697,-3.9697,-3.9697,-3.9697,-3.9697,-3.9697,-3.9697,-3.9697,-3.9697,-3.9697,-3.9697,-3.9697,-3.9697,-3.9697,-3.9697,-3.9697,-3.9697,-3.9697,-3.9697,-3.9697,-3.9697,-3.9697,-3.9697,-3.9749,-3.989,-3.9839,-3.9749,-3.989,-3.9839,-3.9697,-3.9697,-3.9697,-3.989,-4.0982,-4.2217,-4.3456,-4.4549,-4.421,-4.3456,-4.3313,-4.1654,-3.9929,-3.9736,-3.9697,-3.9697,-3.9697,-3.9697,-3.9697,-3.9697,-3.9697,-3.9697,-3.9697,-3.9697,-3.9697,-3.9697,-3.9697,-3.9697,-3.9697,-3.9697,-3.9697,-3.9697,-3.9697,-3.9697,-3.9697,-3.9697,-3.9697,-3.9697,-3.9697,-3.9697,-3.9697,-3.9697,-3.9697,-3.9697,-3.9697,-3.9697,-3.9697,-3.9697,-3.9697,-3.9697,-3.9697,-3.9697,-3.9697,-3.9697,-3.9697,-3.9697,-3.9697,-3.9697,-3.9697,-3.9697,-3.9697,-3.9697,-3.9697,-3.9697,-3.9697,-3.9697,-3.9697,-3.9697,-3.9697,-3.9697,-3.9697,-3.9697,-3.9697,-3.9697,-3.9697,-3.9697,-3.9697,-3.9697,-3.9697,-3.9697,-3.9697,-3.9697,-3.9697,-3.9697,-3.9697,-3.9697,-3.9697,-3.9697,-3.9697,-3.9697,-3.9697,-3.9697,-3.9697,-3.9697,-3.9697,-3.9697,-3.9697,-3.9697,-3.9697,-3.9697,-3.9697,-3.9697,-3.9697,-3.9697,-3.9697,-3.9697,-3.9697,-3.9697,-3.9697,-3.9697,-3.9697,-3.9697,-3.9697,-3.9697,-3.9697,-3.9697,-3.9697,-3.9697,-3.9697,-3.9788,-4.0364,-4.1406,-4.2544,-4.3122,-4.3361,-4.3361,-4.2641,-4.1604,-4.0605,-3.989,-3.9697,-3.9697,-3.9697,-3.9697,-3.9697,-3.9697,-3.9697,-3.9697,-3.9697,-3.9697,-3.9697,-3.9697,-3.9697,-3.9697,-3.9697,-3.9697,-3.9697,-3.9697,-3.9697,-3.9697,-3.9697,-3.9697,-3.9697,-3.9697,-3.9697,-3.9697,-3.9697,-3.9697,-3.9697,-3.9697,-3.9697,-3.9697,-3.9697,-3.9697,-3.9697,-3.9697,-3.9697,-3.9697,-3.9697,-3.9697,-3.9697,-3.9697,-3.9697,-3.9697,-3.9697,-3.9697,-3.9697,-3.9697,-3.9697,-3.9697,-3.9697,-3.9697,-3.9697,-3.9697]}]]